[[{"header":{"parameterUnit":"m.s-1","parameterCategory":1,"la1":30.6,"la2":28.766,"lo1":-90.7593,"lo2":-88.6598,"dy":0.0162,"dx":0.0183,"nx":116,"ny":114,"refTime":"2023-05-20T00:00:00:Z","depth":0,"parameterNumber":2,"parameterNumberName":"U-component_of_WINDS"},"data":[0.0,0.0,0.0,0.0,0.0,0.0,0.0,0.0,0.0,0.0,0.0,0.0,0.0,0.0,0.0,0.0,0.0,0.0,0.0,0.0,0.0,0.0,0.0,0.0,0.0,0.0,0.0,0.0,0.0,0.0,0.0,0.0,0.0,0.0,0.0,0.0,0.0,0.0,0.0,0.0,0.0,0.0,0.0,0.0,0.0,0.0,0.0,0.0,0.0,0.0,0.0,0.0,0.0,0.0,0.0,0.0,0.0,0.0,0.0,0.0,0.0,0.0,0.0,0.0,0.0,0.0,0.0,0.0,0.0,0.0,0.0,0.0,0.0,0.0,0.0,0.0,0.0,0.0,0.0,0.0,0.0,0.0,0.0,0.0,0.0,0.0,0.0,0.0,0.0,0.0,0.0,0.0,0.0,0.0,0.0,0.0,0.0,0.0,0.0,0.0,0.0,0.0,0.0,0.0,0.0,0.0,0.0,0.0,0.0,0.0,0.0,0.0,0.0,0.0,0.0,0.0,0.0,0.0,0.0,0.0,0.0,0.0,0.0,0.0,0.0,0.0,0.0,0.0,0.0,0.0,0.0,0.0,0.0,0.0,0.0,0.0,0.0,0.0,0.0,0.0,0.0,0.0,0.0,0.0,0.0,0.0,0.0,0.0,0.0,0.0,0.0,0.0,0.0,0.0,0.0,0.0,0.0,0.0,0.0,0.0,0.0,0.0,0.0,0.0,0.0,0.0,0.0,0.0,0.0,0.0,0.0,0.0,0.0,0.0,0.0,0.0,0.0,0.0,0.0,0.0,0.0,0.0,0.0,0.0,0.0,0.0,0.0,0.0,0.0,0.0,0.0,0.0,0.0,0.0,0.0,0.0,0.0,0.0,0.0,0.0,0.0,0.0,0.0,0.0,0.0,0.0,0.0,0.0,0.0,0.0,0.0,0.0,0.0,0.0,0.0,0.0,0.0,0.0,0.0,0.0,0.0,0.0,0.0,0.0,0.0,0.0,0.0,0.0,0.0,0.0,0.0,0.0,0.0,0.0,0.0,0.0,0.0,0.0,0.0,0.0,0.0,0.0,0.0,0.0,0.0,0.0,0.0,0.0,0.0,0.0,0.0,0.0,0.0,0.0,0.0,0.0,0.0,0.0,0.0,0.0,0.0,0.0,0.0,0.0,0.0,0.0,0.0,0.0,0.0,0.0,0.0,0.0,0.0,0.0,0.0,0.0,0.0,0.0,0.0,0.0,0.0,0.0,0.0,0.0,0.0,0.0,0.0,0.0,0.0,0.0,0.0,0.0,0.0,0.0,0.0,0.0,0.0,0.0,0.0,0.0,0.0,0.0,0.0,0.0,0.0,0.0,0.0,0.0,0.0,0.0,0.0,0.0,0.0,0.0,0.0,0.0,0.0,0.0,0.0,0.0,0.0,0.0,0.0,0.0,0.0,0.0,0.0,0.0,0.0,0.0,0.0,0.0,0.0,0.0,0.0,0.0,0.0,0.0,0.0,0.0,0.0,0.0,0.0,0.0,0.0,0.0,0.0,0.0,0.0,0.0,0.0,0.0,0.0,0.0,0.0,0.0,0.0,0.0,0.0,0.0,0.0,0.0,0.0,0.0,0.0,0.0,0.0,0.0,0.0,0.0,0.0,0.0,0.0,0.0,0.0,0.0,0.0,0.0,0.0,0.0,0.0,0.0,0.0,0.0,0.0,0.0,0.0,0.0,0.0,0.0,0.0,0.0,0.0,0.0,0.0,0.0,0.0,0.0,0.0,0.0,0.0,0.0,0.0,0.0,0.0,0.0,0.0,0.0,0.0,0.0,0.0,0.0,0.0,0.0,0.0,0.0,0.0,0.0,0.0,0.0,0.0,0.0,0.0,0.0,0.0,0.0,0.0,0.0,0.0,0.0,0.0,0.0,0.0,0.0,0.0,0.0,0.0,0.0,0.0,0.0,0.0,0.0,0.0,0.0,0.0,0.0,0.0,0.0,0.0,0.0,0.0,0.0,0.0,0.0,0.0,0.0,0.0,0.0,0.0,0.0,0.0,0.0,0.0,0.0,0.0,0.0,0.0,0.0,0.0,0.0,0.0,0.0,0.0,0.0,0.0,0.0,0.0,0.0,0.0,0.0,0.0,0.0,0.0,0.0,0.0,0.0,0.0,0.0,0.0,0.0,0.0,0.0,0.0,0.0,0.0,0.0,0.0,0.0,0.0,0.0,0.0,0.0,0.0,0.0,0.0,0.0,0.0,0.0,0.0,0.0,0.0,0.0,0.0,0.0,0.0,0.0,0.0,0.0,0.0,0.0,0.0,0.0,0.0,0.0,0.0,0.0,0.0,0.0,0.0,0.0,0.0,0.0,0.0,0.0,0.0,0.0,0.0,0.0,0.0,0.0,0.0,0.0,0.0,0.0,0.0,0.0,0.0,0.0,0.0,0.0,0.0,0.0,0.0,0.0,0.0,0.0,0.0,0.0,0.0,0.0,0.0,0.0,0.0,0.0,0.0,0.0,0.0,0.0,0.0,0.0,0.0,0.0,0.0,0.0,0.0,0.0,0.0,0.0,0.0,0.0,0.0,0.0,0.0,0.0,0.0,0.0,0.0,0.0,0.0,0.0,0.0,0.0,0.0,0.0,0.0,0.0,0.0,0.0,0.0,0.0,0.0,0.0,0.0,0.0,0.0,0.0,0.0,0.0,0.0,0.0,0.0,0.0,0.0,0.0,0.0,0.0,0.0,0.0,0.0,0.0,0.0,0.0,0.0,0.0,0.0,0.0,0.0,0.0,0.0,0.0,0.0,0.0,0.0,0.0,0.0,0.0,0.0,0.0,0.0,0.0,0.0,0.0,0.0,0.0,0.0,0.0,0.0,0.0,0.0,0.0,0.0,0.0,0.0,0.0,0.0,0.0,0.0,0.0,0.0,0.0,0.0,0.0,0.0,0.0,0.0,0.0,0.0,0.0,0.0,0.0,0.0,0.0,0.0,0.0,0.0,0.0,0.0,0.0,0.0,0.0,0.0,0.0,0.0,0.0,0.0,0.0,0.0,0.0,0.0,0.0,0.0,0.0,0.0,0.0,0.0,0.0,0.0,0.0,0.0,0.0,0.0,0.0,0.0,0.0,0.0,0.0,0.0,0.0,0.0,0.0,0.0,0.0,0.0,0.0,0.0,0.0,0.0,0.0,0.0,0.0,0.0,0.0,0.0,0.0,0.0,0.0,0.0,0.0,0.0,0.0,0.0,0.0,0.0,0.0,0.0,0.0,0.0,0.0,0.0,0.0,0.0,0.0,0.0,0.0,0.0,0.0,0.0,0.0,0.0,0.0,0.0,0.0,0.0,0.0,0.0,0.0,0.0,0.0,0.0,0.0,0.0,0.0,0.0,0.0,0.0,0.0,0.0,0.0,0.0,0.0,0.0,0.0,0.0,0.0,0.0,0.0,0.0,0.0,0.0,0.0,0.0,0.0,0.0,0.0,0.0,0.0,0.0,0.0,0.0,0.0,0.0,0.0,0.0,0.0,0.0,0.0,0.0,0.0,0.0,0.0,0.0,0.0,0.0,0.0,0.0,0.0,0.0,0.0,0.0,0.0,0.0,0.0,0.0,0.0,0.0,0.0,0.0,0.0,0.0,0.0,0.0,0.0,0.0,0.0,0.0,0.0,0.0,0.0,0.0,0.0,0.0,0.0,0.0,0.0,0.0,0.0,0.0,0.0,0.0,0.0,0.0,0.0,0.0,0.0,0.0,0.0,0.0,0.0,0.0,0.0,0.0,0.0,0.0,0.0,0.0,0.0,0.0,0.0,0.0,0.0,0.0,0.0,0.0,0.0,0.0,0.0,0.0,0.0,0.0,0.0,0.0,0.0,0.0,0.0,0.0,0.0,0.0,0.0,0.0,0.0,0.0,0.0,0.0,0.0,0.0,0.0,0.0,0.0,0.0,0.0,0.0,0.0,0.0,0.0,0.0,0.0,0.0,0.0,0.0,0.0,0.0,0.0,0.0,0.0,0.0,0.0,0.0,0.0,0.0,0.0,0.0,0.0,0.0,0.0,0.0,0.0,0.0,0.0,0.0,0.0,0.0,0.0,0.0,0.0,0.0,0.0,0.0,0.0,0.0,0.0,0.0,0.0,0.0,0.0,0.0,0.0,0.0,0.0,0.0,0.0,0.0,0.0,0.0,0.0,0.0,0.0,0.0,0.0,0.0,0.0,0.0,0.0,0.0,0.0,0.0,0.0,0.0,0.0,0.0,0.0,0.0,0.0,0.0,0.0,0.0,0.0,0.0,0.0,0.0,0.0,0.0,0.0,0.0,0.0,0.0,0.0,0.0,0.0,0.0,0.0,0.0,0.0,0.0,0.0,0.0,0.0,0.0,0.0,0.0,0.0,0.0,0.0,0.0,0.0,0.0,0.0,0.0,0.0,0.0,0.0,0.0,0.0,0.0,0.0,0.0,0.0,0.0,0.0,0.0,0.0,0.0,0.0,0.0,0.0,0.0,0.0,0.0,0.0,0.0,0.0,0.0,0.0,0.0,0.0,0.0,0.0,0.0,0.0,0.0,0.0,0.0,0.0,0.0,0.0,0.0,0.0,0.0,0.0,0.0,0.0,0.0,0.0,0.0,0.0,0.0,0.0,0.0,0.0,0.0,0.0,0.0,0.0,0.0,0.0,0.0,0.0,0.0,0.0,0.0,0.0,0.0,0.0,0.0,0.0,0.0,0.0,0.0,0.0,0.0,0.0,0.0,0.0,0.0,0.0,0.0,0.0,0.0,0.0,0.0,0.0,0.0,0.0,0.0,0.0,0.0,0.0,0.0,0.0,0.0,0.0,0.0,0.0,0.0,0.0,0.0,0.0,0.0,0.0,0.0,0.0,0.0,0.0,0.0,0.0,0.0,0.0,0.0,0.0,0.0,0.0,0.0,0.0,0.0,0.0,0.0,0.0,0.0,0.0,0.0,0.0,0.0,0.0,0.0,0.0,0.0,0.0,0.0,0.0,0.0,0.0,0.0,0.0,0.0,0.0,0.0,0.0,0.0,0.0,0.0,0.0,0.0,0.0,0.0,0.0,0.0,0.0,0.0,0.0,0.0,0.0,0.0,0.0,0.0,0.0,0.0,0.0,0.0,0.0,0.0,0.0,0.0,0.0,0.0,0.0,0.0,0.0,0.0,0.0,0.0,0.0,0.0,0.0,0.0,0.0,0.0,0.0,0.0,0.0,0.0,0.0,0.0,0.0,0.0,0.0,0.0,0.0,0.0,0.0,0.0,0.0,0.0,0.0,0.0,0.0,0.0,0.0,0.0,0.0,0.0,0.0,0.0,0.0,0.0,0.0,0.0,0.0,0.0,0.0,0.0,0.0,0.0,0.0,0.0,0.0,0.0,0.0,0.0,0.0,0.0,0.0,0.0,0.0,0.0,0.0,0.0,0.0,0.0,0.0,0.0,0.0,0.0,0.0,0.0,0.0,0.0,0.0,0.0,0.0,0.0,0.0,0.0,0.0,0.0,0.0,0.0,0.0,0.0,0.0,0.0,0.0,0.0,0.0,0.0,0.0,0.0,0.0,0.0,0.0,0.0,0.0,0.0,0.0,0.0,0.0,0.0,0.0,0.0,0.0,0.0,0.0,0.0,0.0,0.0,0.0,0.0,0.0,0.0,0.0,0.0,0.0,0.0,0.0,0.0,0.0,0.0,0.0,0.0,0.0,0.0,0.0,0.0,0.0,0.0,0.0,0.0,0.0,0.0,0.0,0.0,0.0,0.0,0.0,0.0,0.0,0.0,0.0,0.0,0.0,0.0,0.0,0.0,0.0,0.0,0.0,0.0,0.0,0.0,0.0,0.0,0.0,0.0,0.0,0.0,0.0,0.0,0.0,0.0,0.0,0.0,0.0,0.0,0.0,0.0,0.0,0.0,0.0,0.0,0.0,0.0,0.0,0.0,0.0,0.0,0.0,0.0,0.0,0.0,0.0,0.0,0.0,0.0,0.0,0.0,0.0,0.0,0.0,0.0,0.0,0.0,0.0,0.0,0.0,0.0,0.0,0.0,0.0,0.0,0.0,0.0,0.0,0.0,0.0,0.0,0.0,0.0,0.0,0.0,0.0,0.0,0.0,-2.6912,0.0,0.0,0.0,0.0,0.0,0.0,0.0,0.0,0.0,0.0,0.0,0.0,0.0,0.0,0.0,0.0,0.0,0.0,0.0,0.0,0.0,0.0,0.0,0.0,0.0,0.0,0.0,0.0,0.0,0.0,0.0,0.0,0.0,0.0,0.0,0.0,0.0,0.0,0.0,-2.3515,-2.3564,-2.3245,-2.2787,-2.2201,-2.1581,0.0,0.0,0.0,0.0,0.0,0.0,0.0,0.0,0.0,0.0,0.0,0.0,0.0,0.0,0.0,0.0,0.0,0.0,0.0,0.0,0.0,0.0,0.0,0.0,0.0,0.0,0.0,0.0,0.0,0.0,0.0,0.0,0.0,0.0,0.0,0.0,0.0,0.0,0.0,0.0,0.0,0.0,0.0,0.0,0.0,0.0,0.0,0.0,0.0,0.0,0.0,0.0,0.0,0.0,0.0,0.0,0.0,0.0,0.0,0.0,0.0,0.0,0.0,0.0,0.0,0.0,0.0,0.0,0.0,0.0,0.0,-2.8258,0.0,0.0,0.0,0.0,0.0,0.0,0.0,0.0,0.0,0.0,0.0,0.0,0.0,0.0,0.0,0.0,0.0,0.0,0.0,0.0,0.0,0.0,0.0,0.0,0.0,0.0,0.0,0.0,0.0,0.0,0.0,0.0,0.0,0.0,0.0,-2.1091,-2.1769,-2.3335,-2.3428,-2.3289,-2.2957,-2.2359,-2.1761,-2.0993,-1.9925,0.0,0.0,0.0,0.0,0.0,0.0,0.0,0.0,0.0,0.0,0.0,0.0,0.0,0.0,0.0,0.0,0.0,0.0,0.0,0.0,0.0,0.0,0.0,0.0,0.0,0.0,0.0,0.0,0.0,0.0,0.0,0.0,0.0,0.0,0.0,0.0,0.0,0.0,0.0,0.0,0.0,0.0,0.0,0.0,0.0,0.0,0.0,0.0,0.0,0.0,0.0,0.0,0.0,0.0,0.0,0.0,0.0,0.0,0.0,0.0,0.0,0.0,0.0,0.0,0.0,-2.7224,-2.8295,-2.8987,-2.9252,-2.8773,-2.9659,-3.0936,0.0,0.0,0.0,0.0,0.0,0.0,0.0,0.0,0.0,0.0,0.0,0.0,0.0,0.0,0.0,0.0,0.0,0.0,0.0,0.0,0.0,0.0,0.0,-1.6237,-1.73,-1.7906,-1.8548,0.0,0.0,0.0,0.0,0.0,0.0,-2.0323,-2.0135,-2.0694,-2.2128,-2.2677,-2.2727,-2.2309,-2.1925,-2.1502,-2.0905,-2.0273,-2.0159,-2.0191,0.0,0.0,0.0,0.0,0.0,0.0,0.0,0.0,0.0,0.0,0.0,0.0,0.0,0.0,0.0,0.0,0.0,0.0,0.0,0.0,0.0,0.0,0.0,0.0,0.0,0.0,0.0,0.0,0.0,0.0,0.0,0.0,0.0,0.0,0.0,0.0,0.0,0.0,0.0,0.0,0.0,-3.3902,-3.4112,0.0,0.0,0.0,0.0,0.0,0.0,0.0,0.0,0.0,0.0,0.0,0.0,0.0,0.0,-2.9988,-2.9202,-2.8316,-2.7419,-2.8801,-2.934,-2.915,-3.0066,-3.1299,-3.2651,-3.2583,0.0,-2.8688,-2.5822,0.0,0.0,0.0,0.0,0.0,0.0,0.0,0.0,0.0,0.0,0.0,0.0,0.0,0.0,0.0,0.0,0.0,0.0,0.0,0.0,0.0,-1.4946,-1.5838,-1.6403,-1.7524,-1.8318,-1.8662,0.0,0.0,0.0,0.0,-1.8694,-1.8952,-1.8867,-1.9465,-2.083,-2.1849,-2.1968,-2.1351,-2.1186,-2.0677,-1.9966,-1.9425,-1.9221,-1.9116,-1.6978,0.0,0.0,0.0,0.0,0.0,0.0,0.0,0.0,0.0,0.0,0.0,0.0,0.0,0.0,0.0,0.0,0.0,0.0,0.0,0.0,0.0,0.0,0.0,0.0,0.0,0.0,0.0,0.0,0.0,0.0,0.0,0.0,0.0,0.0,0.0,0.0,0.0,0.0,0.0,-3.4221,-3.6083,-3.5257,-3.564,-3.5166,0.0,0.0,0.0,0.0,0.0,0.0,0.0,0.0,0.0,-3.75,-3.5891,-3.4673,-3.3895,-3.2862,-3.1942,-3.1168,-3.1926,-3.2044,-3.1616,-3.2336,-3.3051,-3.3761,-3.3761,-3.2752,-3.092,-2.8262,-2.579,-2.3575,0.0,0.0,0.0,0.0,0.0,-1.6933,0.0,0.0,0.0,0.0,0.0,0.0,0.0,0.0,0.0,0.0,0.0,0.0,-1.3279,-1.4451,-1.5357,-1.5712,-1.7068,-1.7906,-1.7933,0.0,0.0,0.0,-1.7567,-1.7253,-1.7402,-1.7663,-1.8305,-1.9494,-2.0552,-2.0723,-2.0061,-1.9976,-1.9566,-1.8858,-1.8392,-1.8152,-1.7916,-1.6239,-1.4821,-1.3555,0.0,0.0,0.0,0.0,0.0,0.0,0.0,0.0,0.0,0.0,0.0,0.0,0.0,0.0,0.0,0.0,0.0,0.0,0.0,0.0,0.0,0.0,0.0,0.0,0.0,0.0,0.0,0.0,0.0,0.0,0.0,0.0,0.0,0.0,0.0,0.0,0.0,-3.6882,-3.8173,-3.7018,-3.8364,-3.8323,0.0,0.0,0.0,0.0,0.0,0.0,-3.9981,-3.999,-3.9935,-3.9801,-3.8337,-3.7246,-3.6595,-3.5392,-3.4445,-3.3842,-3.4074,-3.3846,-3.3156,-3.3909,-3.425,-3.43,-3.4151,-3.3848,-3.3312,-3.0539,-2.796,-2.5584,-2.4153,-2.2337,0.0,-2.0862,-1.9908,-1.858,0.0,0.0,0.0,0.0,0.0,0.0,0.0,0.0,0.0,0.0,0.0,-1.1537,-1.2775,-1.3609,-1.4479,-1.5525,-1.6522,-1.7185,-1.741,-1.7901,-1.7863,-1.7124,-1.6518,-1.6016,-1.5758,-1.6677,-1.7441,-1.8078,-1.8538,-1.8659,-1.8405,-1.8291,-1.8049,-1.768,-1.7388,-1.7398,-1.7581,-1.6419,-1.5359,-1.4292,-1.2721,0.0,0.0,0.0,0.0,0.0,0.0,0.0,0.0,0.0,0.0,0.0,0.0,0.0,0.0,0.0,0.0,0.0,0.0,0.0,0.0,0.0,0.0,0.0,0.0,0.0,0.0,0.0,0.0,0.0,0.0,0.0,0.0,0.0,0.0,0.0,0.0,0.0,0.0,-4.1189,-4.2489,0.0,0.0,0.0,0.0,-4.1879,-4.1165,-4.1682,-4.381,-4.2251,-4.1514,-4.1944,-4.0108,-3.8564,-3.7449,-3.6317,-3.5203,-3.4177,-3.4389,-3.397,-3.3028,-3.4032,-3.4594,-3.4851,-3.43,-3.4101,-3.3887,-3.1897,-2.9627,-2.7196,-2.5541,-2.4024,-2.2769,-2.3117,-2.2161,-2.0652,0.0,0.0,0.0,0.0,0.0,0.0,0.0,0.0,0.0,-0.9004,-0.9985,-1.0913,-1.1851,-1.2954,-1.3968,-1.4833,-1.5698,-1.6338,-1.6629,-1.6599,-1.6528,-1.6312,-1.5371,-1.4914,-1.4991,-1.582,-1.6227,-1.6356,-1.7083,-1.7216,-1.6769,-1.6573,-1.6328,-1.6048,-1.5736,-1.5659,-1.5802,-1.5404,-1.4662,-1.3666,-1.219,-1.0553,0.0,0.0,0.0,0.0,0.0,0.0,0.0,0.0,0.0,0.0,0.0,0.0,0.0,0.0,0.0,0.0,0.0,0.0,0.0,0.0,0.0,0.0,0.0,0.0,0.0,0.0,0.0,0.0,0.0,0.0,0.0,0.0,0.0,0.0,0.0,0.0,0.0,-4.3944,-4.4441,0.0,-4.3463,-4.2652,-4.2382,-4.2944,-4.2603,-4.2857,-4.3931,-4.3272,-4.2809,-4.2686,-4.089,-3.9623,-3.8996,-3.7394,-3.6291,-3.5694,-3.5582,-3.5222,-3.4667,-3.4745,-3.4804,-3.4899,-3.4691,-3.4399,-3.3987,-3.2353,-3.0991,-2.9722,-2.8207,-2.6246,-2.4255,-2.4312,-2.3818,-2.3014,0.0,0.0,0.0,0.0,0.0,0.0,0.0,0.0,0.0,-0.8254,-0.9104,-1.0059,-1.1223,-1.2267,-1.3233,-1.4132,-1.4942,-1.55,-1.5827,-1.5761,-1.5507,-1.5108,-1.4282,-1.4045,-1.455,-1.4921,-1.5172,-1.5219,-1.5619,-1.5553,-1.5177,-1.496,-1.4744,-1.4529,-1.4641,-1.4668,-1.4584,-1.5045,-1.4787,-1.3949,-1.3115,-1.187,-1.0303,0.0,0.0,0.0,0.0,0.0,0.0,0.0,0.0,0.0,0.0,0.0,0.0,0.0,0.0,0.0,0.0,0.0,0.0,0.0,0.0,0.0,0.0,0.0,0.0,0.0,0.0,0.0,0.0,0.0,0.0,0.0,0.0,0.0,0.0,0.0,-4.5149,-4.5706,-4.5741,-4.5638,-4.5494,-4.4094,-4.3555,-4.4411,-4.3877,-4.37,-4.4169,-4.3744,-4.3356,-4.2938,-4.1139,-4.0065,-3.9736,-3.7941,-3.6891,-3.6609,-3.6343,-3.6071,-3.5827,-3.535,-3.4805,-3.4326,-3.4731,-3.4315,-3.334,-3.287,-3.1823,-3.0417,-2.9438,-2.7328,-2.4766,-2.4726,-2.4402,-2.3754,0.0,0.0,0.0,0.0,0.0,0.0,0.0,0.0,-0.6278,-0.7574,-0.8052,-0.9041,-1.0923,-1.1516,-1.2286,-1.3599,-1.418,-1.4677,-1.5138,-1.5278,-1.4756,-1.3502,-1.3164,-1.3392,-1.4176,-1.4074,-1.4257,-1.4808,-1.4126,-1.3692,-1.3623,-1.3477,-1.3353,-1.3199,-1.4217,-1.4502,-1.4217,-1.5621,-1.5842,-1.541,-1.5595,-1.458,-1.2829,0.0,0.0,0.0,0.0,0.0,0.0,0.0,0.0,0.0,0.0,0.0,0.0,0.0,0.0,0.0,0.0,0.0,0.0,0.0,0.0,0.0,0.0,0.0,0.0,0.0,0.0,0.0,0.0,0.0,0.0,0.0,0.0,0.0,-4.4012,-4.5587,-4.6638,-4.6577,-4.6568,-4.643,-4.61,-4.5337,-4.5348,-4.647,-4.5078,-4.4313,-4.4634,-4.3761,-4.3086,-4.2783,-4.0966,-3.9854,-3.9545,-3.7905,-3.7009,-3.6823,-3.6585,-3.6444,-3.6301,-3.5827,-3.4678,-3.3208,-3.4376,-3.3787,-3.2107,-3.3437,-3.2096,-2.9122,-2.9091,-2.7199,-2.4467,-2.4539,-2.3909,-2.2809,0.0,0.0,0.0,0.0,0.0,0.0,0.0,-0.4988,-0.5744,-0.6331,-0.7526,-0.8716,-0.9776,-1.0771,-1.1917,-1.3287,-1.3411,-1.3875,-1.5032,-1.4309,-1.3433,-1.2589,-1.2964,-1.3319,-1.3542,-1.3623,-1.3425,-1.3008,-1.2926,-1.2575,-1.1924,-1.1717,-1.1671,-1.1833,-1.253,-1.3317,-1.4096,-1.5493,-1.6287,-1.6568,-1.5964,-1.4944,-1.3682,0.0,0.0,0.0,0.0,0.0,0.0,0.0,0.0,0.0,0.0,0.0,0.0,0.0,0.0,0.0,0.0,0.0,0.0,0.0,0.0,0.0,0.0,0.0,0.0,0.0,0.0,0.0,0.0,0.0,0.0,0.0,0.0,-4.5903,-4.5569,-4.712,-4.8215,-4.8104,-4.8093,-4.801,-4.784,-4.6939,-4.6242,-4.5835,-4.5746,-4.5112,-4.3758,-4.3779,-4.3498,-4.2727,-4.0774,-3.9425,-3.8805,-3.7633,-3.7009,-3.6948,-3.6725,-3.6544,-3.6301,-3.6019,-3.5128,-3.3845,-3.3974,-3.3346,-3.218,-3.1997,-3.1198,-3.0038,-2.939,-2.8572,-2.7509,-2.5195,-2.38,-2.2903,0.0,0.0,0.0,0.0,0.0,0.0,0.0,-0.4208,-0.4996,-0.5644,-0.6826,-0.7953,-0.8901,-0.9953,-1.1003,-1.2061,-1.241,-1.2741,-1.33,-1.2411,-1.1905,-1.2042,-1.2474,-1.2647,-1.2562,-1.2742,-1.2443,-1.16,-1.1578,-1.1284,-1.0717,-1.077,-1.0782,-1.0968,-1.2263,-1.3209,-1.3896,-1.5867,-1.7047,-1.7506,-1.7081,-1.6477,-1.579,-1.4417,-1.3566,-1.2925,-1.1742,-1.1899,-1.2723,-1.3045,0.0,0.0,0.0,0.0,0.0,0.0,0.0,0.0,0.0,0.0,0.0,0.0,0.0,0.0,0.0,0.0,0.0,0.0,0.0,0.0,0.0,0.0,0.0,0.0,-4.6451,-4.7932,-4.806,-4.8806,-4.9309,-4.9219,-4.8856,-4.8672,-4.8852,-4.765,-4.6607,-4.5898,-4.6045,-4.5293,-4.3324,-4.3699,-4.3538,-4.2649,-4.0869,-3.961,-3.8969,-3.7567,-3.6908,-3.6987,-3.6869,-3.6708,-3.6444,-3.6233,-3.5292,0.0,-3.357,-3.2658,-3.1356,-3.0553,-3.0069,0.0,0.0,0.0,0.0,0.0,-2.3682,-2.292,0.0,0.0,0.0,0.0,0.0,0.0,0.0,-0.3457,-0.4214,-0.5242,-0.6062,-0.6993,-0.8159,-0.9099,-0.9859,-1.0419,-1.1285,-1.148,-1.073,-1.0436,-1.0742,-1.1802,-1.1809,-1.1775,-1.1562,-1.174,-1.1363,-1.0571,-1.0335,-1.0067,-0.9765,-1.0302,-1.0441,-1.0439,-1.2784,-1.3769,-1.3973,-1.6594,-1.8031,-1.8543,-1.8701,-1.8633,-1.8293,-1.7006,-1.6653,-1.6645,-1.4795,-1.4385,-1.4606,-1.3968,0.0,0.0,0.0,0.0,0.0,0.0,0.0,0.0,0.0,0.0,0.0,0.0,0.0,0.0,0.0,0.0,0.0,0.0,0.0,0.0,0.0,0.0,0.0,0.0,-4.8519,-4.9711,-5.0642,-5.0393,-5.002,-4.9871,-4.9107,-4.8815,-4.934,-4.7916,-4.6778,-4.6413,-4.6301,-4.5443,-4.3487,0.0,0.0,0.0,0.0,-4.0176,-3.9764,-3.7726,-3.6806,-3.693,-3.693,-3.6829,-3.6702,-3.6402,-3.5307,-3.3598,-3.3212,-3.1948,-3.0146,-2.9486,-2.9075,-2.8858,-2.8541,-2.7657,-2.6335,-2.4658,-2.3644,0.0,0.0,0.0,0.0,0.0,0.0,0.0,0.0,-0.3283,-0.4066,-0.4632,-0.5597,-0.647,-0.7052,-0.8039,-0.8934,-0.9479,-1.0672,-1.093,-1.0079,-1.1331,-1.1843,-1.131,-1.1747,-1.1844,-1.145,-1.1182,-1.0661,-0.9709,-0.9781,-0.95,-0.8948,-0.9703,-1.0257,-1.0679,-1.253,-1.4099,-1.5526,-1.7441,-1.9044,-2.0324,-2.0385,-2.0008,-1.9241,-1.8091,-1.7535,-1.7315,-1.6975,-1.6994,-1.7201,-1.7158,-1.7826,-1.8781,-1.9575,-2.0228,0.0,0.0,0.0,0.0,0.0,0.0,0.0,0.0,0.0,0.0,0.0,0.0,0.0,0.0,0.0,0.0,0.0,0.0,0.0,-4.7997,-4.9841,-5.0956,-5.0735,-5.0685,-5.0398,-4.9738,-4.9405,-4.9227,-4.9225,-4.88,-4.8073,-4.7011,-4.75,-4.7056,-4.5219,-4.4881,0.0,-4.286,-4.1644,-4.0924,-4.0654,-3.8168,-3.6771,-3.6426,0.0,0.0,-3.6702,-3.6233,-3.5215,-3.3714,-3.2959,-3.1716,-3.0267,-2.9957,-2.947,-2.8873,-2.8541,-2.8242,-2.7656,-2.4759,-2.3721,-2.3613,0.0,0.0,0.0,0.0,0.0,0.0,0.0,-0.3053,-0.3793,-0.4428,-0.5171,-0.5878,-0.6534,-0.745,-0.8207,-0.8559,-1.0482,-1.1581,-1.1531,-1.1773,-1.1935,-1.1926,-1.1767,-1.1526,-1.1143,-1.0667,-1.0087,-0.9522,-0.955,-0.9524,-0.9417,-1.0445,-1.131,-1.1995,-1.4228,-1.5965,-1.7218,-1.9153,-2.0587,-2.1535,-2.1639,-2.1478,-2.1003,-1.9745,-1.907,-1.8744,-1.8259,-1.8268,-1.8463,-1.8194,-1.887,-1.9969,-2.0644,-2.1696,-2.2835,0.0,0.0,0.0,0.0,0.0,0.0,0.0,0.0,0.0,0.0,0.0,0.0,0.0,0.0,-4.0855,0.0,0.0,-4.8275,-5.0,-5.0898,-5.1338,-5.1256,-5.0534,-4.9872,-4.9551,-4.9402,-4.9225,-4.9079,-4.8785,-4.8015,-4.6614,-4.7497,-4.6973,-4.4376,-4.4633,-4.4181,-4.2645,-4.1831,-4.1226,-4.0871,-3.7836,-3.6301,-3.6301,-3.6301,-3.6343,-3.6468,-3.5759,-3.4819,-3.3721,-3.235,-3.1241,-3.0368,-2.987,-2.9273,-2.867,-2.7873,-2.7624,-2.7286,-2.4595,-2.3383,-2.302,0.0,0.0,0.0,0.0,0.0,0.0,0.0,0.0,0.0,-0.4385,-0.4878,-0.5441,-0.6055,-0.691,-0.7616,-0.8136,-1.0294,-1.22,-1.3528,-1.2535,-1.2309,-1.3139,-1.2326,-1.1623,-1.122,-1.0539,-1.0155,-0.9893,-0.9783,-1.0072,-1.0675,-1.1909,-1.2899,-1.381,-1.6453,-1.8138,-1.9125,-2.0842,-2.2103,-2.2997,-2.3017,-2.3098,-2.3142,-2.179,-2.0911,-2.0254,-1.9421,-1.9219,-1.9221,-1.8554,-1.9219,-2.0444,-2.1188,-2.2638,-2.4357,-2.584,-2.723,0.0,0.0,0.0,0.0,0.0,0.0,0.0,0.0,0.0,-3.9813,-4.0022,-4.1377,-4.3332,-4.5909,-4.7893,-4.9762,-5.1683,-5.1669,-5.151,-5.1681,-5.0277,-4.9211,-4.9289,-4.9211,-4.9046,-4.8855,-4.8532,-4.7736,-4.6434,-4.701,-4.6063,-4.2835,-4.3567,-4.3479,-4.2055,-4.1542,-4.1134,-4.0728,-3.725,-3.5694,-3.6174,-3.6174,-3.6174,-3.6224,-3.5122,-3.4363,-3.3826,-3.1907,-3.0842,-3.0401,-2.9605,-2.898,-2.8404,-2.7272,-2.6687,-2.6229,-2.4326,-2.3161,-2.2491,0.0,0.0,0.0,0.0,0.0,0.0,0.0,0.0,0.0,-0.425,-0.4977,-0.5454,-0.5289,-0.5845,-0.7092,-0.9042,-0.9764,-1.1526,-1.4944,-1.4523,-1.4278,-1.4569,-1.399,-1.3267,-1.2261,-1.1726,-1.1445,-1.126,-1.1083,-1.1574,-1.2719,-1.3726,-1.4849,-1.6049,-1.7846,-1.9713,-2.1589,-2.172,-2.3189,-2.5471,-2.5001,-2.5035,-2.5265,-2.4464,-2.2994,-2.1309,-2.1064,-2.0608,-1.9977,-1.9366,-1.9707,-2.0517,-2.1334,-2.3135,-2.5219,-2.6512,-2.7774,-2.8712,-2.8662,-3.5331,-4.2515,-4.3467,-4.1914,-3.9952,0.0,0.0,-4.3232,-4.2632,-4.4126,-4.6007,-4.7713,-4.9072,-5.0348,-5.1499,-5.2011,-5.2066,-5.1453,-5.0104,-4.9146,-4.8978,-4.8925,-4.8855,-4.866,-4.842,-4.8155,-4.7776,-4.657,-4.4668,-4.1894,-4.1851,-4.169,-4.1059,-4.0566,-4.0221,-4.0171,-3.6731,-3.5211,-3.5667,-3.5667,-3.58,-3.5968,-3.4548,-3.4099,-3.4286,-3.2274,-3.0935,-3.0189,-2.9441,-2.8712,-2.8084,-2.7134,-2.6199,-2.5228,-2.4056,-2.3463,-2.3185,0.0,0.0,0.0,0.0,0.0,0.0,0.0,0.0,0.0,0.0,0.0,-0.5566,-0.5562,-0.6332,-0.7471,-0.9048,-1.0254,-1.18,-1.3919,-1.454,-1.4932,-1.5133,-1.512,-1.4903,-1.4429,-1.3809,-1.3606,-1.3787,-1.3433,-1.3955,-1.5393,-1.5924,-1.7218,-1.9215,-2.0321,-2.192,-2.38,-2.4728,-2.5864,-2.701,-2.7106,-2.6995,-2.6742,-2.6103,-2.4884,-2.3374,-2.2067,-2.1078,0.0,-1.9641,-1.9924,-2.0653,-2.1457,-2.2957,-2.4765,-2.6581,-2.887,-3.1446,-3.4253,-3.8024,-4.1667,-4.383,-4.3417,-4.2449,-4.2449,-4.339,-4.4619,-4.581,-4.6539,-4.7114,-4.7479,-4.8542,-4.9851,0.0,-5.1191,-5.0933,-5.1268,-4.9557,-4.8289,-4.8252,-4.7673,-4.759,-4.8365,-4.8151,-4.7674,-4.7077,-4.5932,-4.4385,-4.2445,-4.1311,-4.0662,-4.0419,-4.0238,-3.9918,-3.9625,-3.8201,-3.6688,-3.5211,-3.5211,-3.535,-3.556,-3.4523,-3.3659,-3.289,-3.1851,-3.0915,-3.0027,-2.9099,-2.8453,-2.785,-2.6483,-2.5603,-2.4926,-2.385,-2.3038,-2.2466,0.0,0.0,0.0,0.0,0.0,0.0,0.0,0.0,0.0,0.0,0.0,0.0,0.0,-0.6999,-0.7978,-0.886,-1.0629,-1.2135,-1.3228,-1.4423,-1.5287,-1.5836,-1.6245,-1.6539,-1.6714,-1.6112,-1.5995,-1.6392,-1.5916,-1.6443,-1.7931,-1.8251,-1.9449,-2.1361,-2.2144,-2.3623,-2.5556,-2.6896,-2.7869,-2.8595,-2.9073,-2.8903,-2.8291,-2.7651,-2.662,-2.5199,-2.32,-2.177,-2.0758,-2.01,-2.0226,-2.0797,-2.1578,-2.2978,-2.4798,-2.7323,-3.0546,-3.4382,-3.9526,-4.1089,-4.1959,-4.4811,-4.569,-4.5827,-4.5611,-4.555,-4.6076,-4.7923,-4.797,-4.7662,-4.7582,-4.8271,-4.947,-5.1242,-5.0643,-5.0264,-5.1139,-4.9102,-4.7638,-4.798,-4.6664,-4.6397,-4.8102,-4.7696,-4.7148,-4.6517,-4.5432,-4.4534,-4.384,-4.1534,-4.0121,-3.9884,-3.9867,-3.9661,-3.9164,-3.8714,-3.7195,-3.4691,-3.4691,-3.4804,-3.5071,-3.438,-3.3245,-3.1722,-3.1539,-3.0849,-2.9865,-2.8801,-2.8053,-2.7476,-2.588,-2.5022,-2.4548,-2.3614,-2.2805,-2.2176,0.0,0.0,0.0,0.0,0.0,0.0,0.0,0.0,0.0,0.0,0.0,0.0,0.0,-0.7505,-0.8361,-0.8771,-1.0592,-1.2236,-1.3591,-1.4521,-1.5622,-1.6976,-1.7548,-1.8137,-1.8792,-1.8448,-1.85,-1.8983,-1.8451,-1.881,-2.0033,-2.0611,-2.1144,-2.1626,-2.2613,-2.4413,-2.6678,-2.7138,-2.8507,-3.0469,-3.0862,-3.0698,-3.012,-2.9339,-2.804,-2.643,-2.4727,-2.3105,-2.1664,-2.1057,-2.0829,-2.0934,-2.166,-2.3492,-2.5998,-2.9341,-3.2865,-3.6939,-4.2623,-4.5442,-4.7151,-4.8877,-4.934,-4.9132,-4.8347,-4.8197,-4.8234,-4.8288,-4.797,-4.7965,-4.8802,-4.8934,-4.9401,-5.1076,-5.0952,-5.0772,-5.1042,-4.8956,-4.7682,-4.8494,-4.6322,-4.5627,0.0,-4.714,-4.6662,-4.6963,-4.5347,-4.4845,-4.6059,-4.2555,-4.0121,-3.9325,-3.9276,-3.9098,-3.8805,-3.7194,-3.5606,-3.4151,-3.4151,-3.425,-3.4513,-3.3886,-3.2904,-3.1593,-3.1544,-3.0863,-2.9729,-2.8522,-2.7608,-2.6816,-2.5654,-2.4633,-2.3769,-2.3304,-2.3113,-2.2951,0.0,0.0,0.0,0.0,0.0,0.0,0.0,0.0,0.0,0.0,0.0,0.0,0.0,0.0,0.0,0.0,-1.0418,-1.1471,-1.2378,-1.4417,-1.5958,-1.6807,-1.8771,-1.9866,-1.996,-2.0166,-2.0323,-2.0448,-2.001,-2.0231,-2.1029,-2.091,-2.1381,-2.231,-2.24,-2.3981,-2.6659,-2.8033,-2.9758,-3.1628,-3.2446,-3.2694,-3.2479,-3.1651,-2.9969,-2.7963,0.0,-2.5032,-2.1887,-2.1258,-2.1016,-2.1108,-2.1805,-2.3258,-2.5634,-3.054,-3.4437,-3.7988,-4.2015,-4.4621,-4.6657,-4.8628,-4.8211,-4.7191,-4.6635,-4.7344,-4.7801,-4.674,-4.6579,-4.6481,-4.5972,-4.6675,-4.7645,-4.8713,-4.8995,-4.9276,-4.9926,-4.8936,-4.8016,-4.7758,-4.6397,0.0,0.0,0.0,0.0,-4.5454,-4.4936,-4.4027,-4.2732,-4.1246,-4.0255,-3.9833,-3.9435,-3.9115,-3.8931,-3.695,-3.5368,-3.4084,-3.3583,-3.3453,-3.3615,-3.3414,-3.2672,-3.156,-3.1941,-3.1115,-2.9499,-2.8971,-2.7942,-2.6598,-2.561,-2.4574,-2.361,-2.3157,-2.2859,-2.2709,0.0,0.0,0.0,0.0,0.0,0.0,0.0,0.0,0.0,0.0,0.0,0.0,0.0,0.0,0.0,0.0,0.0,-1.0779,-1.1616,-1.3691,-1.54,-1.6425,-1.8432,-1.98,-2.0392,-2.0625,-2.0953,-2.1366,-2.1067,-2.1154,-2.1519,-2.1421,-2.1418,-2.153,-2.1789,-2.3238,-2.5646,-2.7675,-2.9889,-3.2072,-3.3037,-3.3622,-3.3865,-3.3032,-3.1092,0.0,-2.861,-2.5879,-2.228,-2.184,-2.146,-2.1377,-2.2308,-2.5013,-2.8713,-3.2945,-3.6517,-3.9769,-4.2701,-4.4538,-4.6071,-4.7884,-4.7344,-4.6194,-4.544,-4.5979,-4.6317,-4.5269,-4.5167,-4.5062,-4.4353,-4.4913,-4.6006,-4.7446,-4.7947,-4.8422,-4.9389,-4.8859,-4.8235,-4.772,-4.6599,-4.5865,0.0,0.0,0.0,-4.4668,-4.435,-4.3348,-4.154,-4.0739,-4.0205,-3.9918,-3.9435,-3.9131,-3.8947,-3.695,-3.5299,-3.3949,-3.3501,-3.3194,-3.3064,-3.2754,-3.215,-3.1229,-3.1294,-3.0564,-2.9335,-2.8667,-2.7826,-2.6791,-2.5571,-2.4579,-2.3763,-2.3022,-2.2632,-2.2434,0.0,0.0,0.0,0.0,0.0,0.0,0.0,0.0,0.0,0.0,0.0,0.0,0.0,0.0,0.0,0.0,0.0,0.0,-1.1316,-1.253,-1.4084,-1.601,-1.6822,-1.8187,-2.0104,-2.0091,-2.0618,-2.1768,-2.1644,-2.1569,-2.1579,-2.2032,-2.1188,-1.9421,-2.0778,-2.2223,-2.3822,-2.618,-2.897,-3.1891,-3.2807,-3.3692,-3.4374,-3.3495,-3.1499,-2.9076,-2.8277,-2.5777,-2.2867,-2.2785,-2.2278,-2.1922,-2.3391,-2.8671,-3.4612,-3.6259,-3.9045,-4.2131,-4.4594,-4.5374,-4.5755,-4.7018,-4.6999,-4.6324,-4.5018,-4.4379,-4.3994,-4.3966,-4.3794,-4.3674,-4.37,-4.3732,-4.4543,-4.7024,-4.7679,-4.8207,-4.9255,-4.8781,-4.8323,0.0,0.0,0.0,0.0,0.0,0.0,-4.45,0.0,-4.2876,-4.2351,-4.1064,-4.0087,-3.9556,-3.9362,-3.9148,-3.8805,-3.7113,-3.5421,-3.371,-3.3697,-3.3446,-3.2868,-3.1903,-3.1182,-3.0679,-2.9761,-2.9305,-2.918,-2.7826,-2.7333,-2.7319,-2.5515,-2.4597,-2.4158,-2.3028,-2.2417,-2.2086,0.0,0.0,0.0,0.0,0.0,0.0,0.0,0.0,0.0,0.0,0.0,0.0,0.0,0.0,0.0,0.0,0.0,0.0,-1.1108,-1.2798,-1.4342,-1.562,-1.7328,-1.8658,-1.9571,-2.0294,-2.0967,-2.1565,-2.1296,-2.1122,-2.1048,-2.0242,-1.9439,-1.8677,-1.9344,-2.0964,-2.3346,-2.5897,-2.8899,-3.2073,-3.361,-3.4739,-3.5413,-3.4491,-3.2547,-3.0175,-2.9317,-2.6786,-2.3825,-2.3769,-2.429,-2.5443,-2.8082,-3.1376,-3.4631,-3.675,-4.0068,-4.3351,-4.4533,-4.6246,-4.7739,-4.7923,-4.7003,-4.5826,-4.5149,-4.3895,-4.2727,-4.2024,-4.1761,-4.1364,-4.0318,-4.1594,-4.3032,-4.3706,-4.5536,0.0,-4.8047,-4.8607,0.0,-4.8079,0.0,-4.7128,-4.6372,-4.6029,0.0,0.0,-4.2617,-4.181,-4.1315,-4.0688,-4.0188,-3.9969,-3.9487,-3.9131,-3.8947,-3.7043,-3.5193,-3.3398,-3.2962,-3.2831,-3.2893,-3.0734,-2.9657,-2.9529,-2.9139,-2.8905,-2.8748,-2.8104,-2.7655,-2.7132,-2.583,-2.4845,-2.4005,-2.289,-2.2231,-2.1749,0.0,0.0,0.0,0.0,0.0,0.0,0.0,0.0,0.0,0.0,0.0,0.0,0.0,0.0,0.0,0.0,0.0,0.0,0.0,-1.2048,-1.3283,-1.4651,-1.617,-1.7424,-1.8323,-1.9473,-2.037,-2.1118,-2.1213,-2.1061,-2.0665,-1.9864,-1.8886,-1.7817,-1.8616,-1.9834,-2.1539,-2.4539,-2.7567,0.0,0.0,-3.3649,-3.4661,-3.375,-3.2068,-3.0064,-2.9195,-2.7123,-2.4857,-2.5136,-2.6173,-2.7842,-3.0846,-3.3594,-3.6149,-3.8449,-4.1167,-4.3666,-4.4803,-4.6377,-4.7604,-4.7062,-4.62,-4.4971,-4.3149,-4.1841,-4.0583,-3.8934,-3.8576,-3.8351,-3.7658,-3.9284,-4.1006,0.0,0.0,0.0,-4.7047,-4.7993,-4.8439,0.0,-4.7866,0.0,-4.6819,-4.6392,-4.5459,0.0,-4.2969,-4.2125,-4.097,-4.0337,-3.9986,-3.9833,-3.9276,-3.8477,-3.7601,-3.6502,-3.5016,-3.3203,-3.2846,-3.2599,-3.2404,-3.0644,-2.9689,-2.9391,0.0,-2.8732,-2.8605,-2.8268,-2.7859,-2.7337,-2.5893,-2.4934,-2.4196,-2.2696,-2.1949,-2.1554,0.0,0.0,0.0,0.0,0.0,0.0,0.0,0.0,0.0,0.0,0.0,0.0,0.0,0.0,0.0,0.0,0.0,0.0,0.0,0.0,-1.1822,-1.3575,-1.4502,-1.5658,-1.7047,-1.8375,-1.9564,-2.0682,-2.114,-2.1021,-2.039,-1.9856,-1.8653,-1.6995,-1.8187,-1.8863,-1.9386,-2.2781,-2.5683,-2.8151,-2.9721,-3.1451,-3.2986,0.0,-3.0732,-2.9331,-2.8256,-2.6893,-2.5736,-2.6568,-2.7742,-2.9391,-3.2345,-3.5342,-3.8203,-4.0543,-4.2298,-4.3816,-4.5271,-4.6273,-4.6652,-4.5612,-4.516,-4.4091,-4.0682,-3.9447,-3.8325,-3.5977,-3.537,-3.5331,-3.5478,-3.6935,-3.872,-4.0499,0.0,-4.4916,-4.6223,-4.7089,-4.7625,-4.7656,-4.7645,-4.7518,-4.7176,-4.6418,-4.5391,-4.4014,-4.3869,-4.2969,-4.0909,-4.0138,-3.9573,-3.9379,-3.869,-3.7446,-3.5639,-3.5678,-3.4807,-3.3096,-3.2989,-3.2554,-3.1824,-3.114,-3.0472,-2.9769,0.0,0.0,-2.8477,-2.8235,-2.7929,-2.7485,-2.5707,-2.4839,-2.4302,-2.2462,-2.1664,-2.1458,0.0,0.0,0.0,0.0,0.0,0.0,0.0,0.0,0.0,0.0,-0.8174,-0.7178,0.0,0.0,0.0,0.0,0.0,0.0,0.0,0.0,0.0,-1.3217,-1.4747,-1.6153,-1.7469,-1.895,-2.0147,-2.1007,-2.0336,-2.0153,-2.0349,-1.8033,-1.6864,-1.6707,-1.7368,-1.8143,-1.9143,-2.2026,-2.4746,-2.7201,-2.8179,-2.9959,-3.1887,-3.0353,0.0,0.0,-2.689,-2.5938,-2.5881,-2.7174,-2.8564,-3.0289,-3.3254,-3.6203,-3.9031,-4.1202,-4.3305,-4.5073,-4.5833,-4.6681,-4.7096,-4.5986,-4.5201,-4.4064,-4.1744,-3.946,0.0,-3.6156,-3.4947,-3.398,-3.3481,-3.4896,-3.6685,-3.8448,-4.0329,-4.2638,-4.5497,-4.6216,-4.6495,0.0,-4.7132,-4.7173,-4.6309,-4.657,0.0,0.0,0.0,0.0,-4.0521,-3.9935,-3.9362,-3.8616,-3.7559,-3.6254,-3.4643,-3.4975,-3.4413,-3.3043,-3.2827,-3.2516,-3.2048,-3.1428,-3.0715,-2.9953,0.0,0.0,-2.8103,-2.7825,-2.7345,-2.6692,-2.5321,-2.4307,-2.3521,-2.2007,-2.1326,-2.0966,0.0,0.0,0.0,0.0,0.0,0.0,0.0,-0.9654,-1.0346,-1.0828,-1.0234,-0.9419,-0.8362,-0.7497,-0.7301,0.0,0.0,0.0,0.0,0.0,0.0,0.0,0.0,0.0,-1.6522,-1.8022,-1.9148,0.0,0.0,-1.9068,-1.8949,-1.7072,-1.612,-1.6004,-1.6396,-1.6918,-1.7722,-2.0449,-2.2595,-2.4336,-2.5987,-2.7613,0.0,0.0,0.0,0.0,-2.6269,-2.5698,-2.5866,-2.6921,-2.811,-2.9855,-3.3749,-3.6673,-3.9067,-4.123,-4.3079,-4.4515,-4.5076,-4.6185,-4.6767,-4.5194,-4.4155,-4.2669,-3.9355,0.0,0.0,-3.3533,-3.2671,-3.2184,-3.1947,-3.3503,-3.5218,-3.6429,-3.8257,-4.0642,-4.3934,-4.4614,-4.5065,-4.5889,-4.6344,-4.639,0.0,0.0,0.0,0.0,0.0,0.0,-4.0521,-3.9713,-3.8969,-3.8164,-3.7078,-3.5967,-3.4855,-3.4046,-3.3341,-3.2687,-3.2468,-3.2247,-3.2007,-3.1409,-3.0684,-2.9963,0.0,0.0,-2.776,-2.72,-2.6659,-2.6041,-2.4586,-2.3686,-2.3041,-2.1689,-2.1082,-2.0782,0.0,0.0,0.0,0.0,0.0,0.0,0.0,-1.089,-1.1547,-1.2275,-1.2341,-1.1796,-1.0312,-0.8578,-0.7788,0.0,0.0,0.0,0.0,0.0,0.0,0.0,0.0,0.0,0.0,0.0,0.0,0.0,0.0,0.0,0.0,0.0,0.0,0.0,0.0,-1.6045,-1.6661,-1.8823,-2.048,0.0,0.0,0.0,0.0,0.0,0.0,0.0,0.0,-2.5691,-2.5784,-2.6293,-2.7228,-2.8847,-3.2788,-3.58,-3.83,-4.0456,-4.2228,-4.3661,-4.4343,-4.5574,-4.6218,-4.4273,-4.3121,-4.1337,-3.7011,-3.5203,-3.3741,-3.1156,-3.0518,-3.054,-3.0861,-3.2128,-3.3532,-3.4714,-3.6371,-3.869,-4.2,-4.2977,-4.3853,0.0,-4.5588,0.0,-4.5559,0.0,0.0,0.0,0.0,0.0,0.0,-3.9382,-3.8583,-3.7876,-3.6899,-3.5973,-3.507,-3.3315,-3.2398,-3.2287,-3.212,-3.2038,-3.1925,-3.1394,-3.0658,-2.9872,0.0,0.0,0.0,-2.6594,-2.6006,-2.5437,-2.392,-2.3118,-2.2582,-2.1403,-2.0822,-2.061,0.0,0.0,0.0,0.0,0.0,0.0,0.0,-1.1845,-1.2954,-1.4103,-1.3799,-1.3038,-1.1983,-1.0565,-0.9443,0.0,0.0,0.0,0.0,0.0,0.0,0.0,0.0,0.0,0.0,0.0,0.0,0.0,0.0,0.0,0.0,0.0,0.0,0.0,0.0,0.0,0.0,-1.7738,0.0,0.0,0.0,0.0,0.0,0.0,0.0,0.0,0.0,-2.5701,-2.5679,-2.5506,-2.6303,-2.7623,-2.8907,-3.2338,-3.6305,-3.8564,-4.1092,-4.3421,-4.4665,-4.562,-4.5817,-4.3823,-4.2757,-4.1133,-3.7263,0.0,-3.3461,-3.145,-3.0074,-2.9576,-3.0575,-3.0346,-3.0886,-3.3481,-3.473,-3.6582,-4.0001,-4.1956,-4.335,-4.4135,0.0,0.0,-4.5421,0.0,0.0,0.0,0.0,0.0,0.0,-3.8805,-3.8359,-3.7759,-3.6885,-3.5786,-3.4593,-3.3147,-3.2302,-3.2053,-3.191,-3.1811,-3.1784,-3.1564,-3.0731,-2.9441,0.0,0.0,0.0,-2.617,-2.5458,-2.4696,-2.3603,-2.2692,-2.1828,-2.1082,-2.0573,-2.0182,0.0,0.0,0.0,0.0,0.0,0.0,-1.1434,-1.1996,-1.2727,-1.4121,-1.3935,-1.3346,-1.2552,-1.1547,-1.0282,-0.8724,0.0,0.0,0.0,0.0,0.0,0.0,0.0,0.0,0.0,0.0,0.0,0.0,0.0,0.0,0.0,0.0,0.0,0.0,0.0,0.0,0.0,0.0,0.0,0.0,0.0,0.0,0.0,0.0,0.0,0.0,0.0,0.0,-2.5664,-2.5473,-2.5832,-2.6454,-2.7155,-2.9538,-3.2696,-3.604,-3.869,-4.0814,-4.2089,-4.3409,-4.4019,-4.2414,-4.105,-3.927,-3.6052,0.0,-3.2289,-3.0493,-2.9766,-2.9632,-3.0182,-3.0137,-3.0601,-3.2328,-3.2635,-3.3987,-3.7853,-3.8677,-3.9913,-4.2638,-4.2969,0.0,0.0,0.0,0.0,0.0,0.0,0.0,0.0,-3.8544,-3.7995,-3.6933,-3.6506,-3.5498,-3.3933,-3.3233,-3.2547,-3.1898,-3.1826,-3.1712,-3.1482,-3.1394,-3.0565,-2.9098,0.0,0.0,0.0,-2.5744,-2.5137,-2.454,-2.3192,-2.2369,-2.1862,-2.0891,-2.0372,-2.0029,0.0,0.0,0.0,0.0,0.0,-1.0153,-1.1607,-1.2023,-1.2653,-1.406,-1.4001,-1.3572,-1.2839,-1.2074,-1.0924,-0.923,-0.9056,0.0,0.0,0.0,0.0,0.0,0.0,0.0,0.0,0.0,0.0,-1.4342,-1.4168,0.0,0.0,0.0,0.0,0.0,0.0,0.0,0.0,0.0,0.0,0.0,0.0,0.0,0.0,0.0,0.0,0.0,0.0,0.0,0.0,0.0,0.0,-2.5744,-2.5856,-2.7424,-2.9902,-3.3522,-3.6284,-3.8487,-3.986,-4.1182,-4.1937,-4.0915,-3.9429,-3.7419,-3.4644,-3.2837,-3.1261,-2.9559,-2.913,-2.9246,-2.9722,-2.9762,-3.0084,-3.1182,-3.1274,-3.2454,-3.5878,-3.6439,-3.7696,0.0,0.0,0.0,0.0,0.0,0.0,0.0,0.0,0.0,0.0,-3.8148,-3.7582,-3.6406,-3.6173,-3.5167,-3.3361,-3.3157,-3.2591,-3.1727,-3.167,-3.1539,-3.1278,-3.0954,-3.0087,0.0,0.0,0.0,0.0,-2.5445,-2.4913,-2.4443,-2.292,-2.2153,-2.1832,-2.0781,-2.0182,-1.9823,0.0,0.0,0.0,0.0,0.0,0.0,-1.0994,-1.211,-1.3145,-1.4179,-1.4248,-1.3857,-1.299,-1.2298,-1.1521,-1.0558,-0.9329,0.0,0.0,0.0,0.0,0.0,0.0,0.0,0.0,0.0,-1.3608,-1.4405,-1.4131,-1.4226,-1.4693,0.0,0.0,0.0,0.0,0.0,0.0,0.0,0.0,0.0,0.0,0.0,0.0,0.0,0.0,0.0,0.0,0.0,0.0,0.0,0.0,0.0,0.0,-2.6128,-2.8528,-3.1165,-3.4271,-3.717,-3.8614,-3.9412,-3.9729,-3.9418,-3.7992,-3.5969,-3.3155,-3.1849,-3.0683,-2.8886,-2.8093,-2.8074,-2.9116,-2.8806,-2.8855,-3.011,-3.1148,-3.2419,-3.4179,-3.6031,-3.7757,0.0,0.0,0.0,0.0,0.0,0.0,0.0,0.0,0.0,0.0,0.0,-3.7042,-3.6248,-3.5907,-3.4842,-3.2998,-3.2881,-3.2389,-3.1482,-3.1351,-3.1278,-3.1263,-3.0119,0.0,0.0,0.0,0.0,0.0,-2.5233,-2.4716,-2.4163,-2.2831,-2.2052,-2.1588,-2.0744,-2.0067,-1.9565,0.0,0.0,0.0,0.0,0.0,0.0,0.0,-1.156,-1.1924,-1.2756,-1.2569,-1.2373,-1.2407,-1.1745,-1.1292,-1.1253,-1.0065,0.0,0.0,0.0,0.0,0.0,0.0,0.0,0.0,0.0,-1.2343,-1.2952,-1.3158,-1.351,-1.4012,-1.4034,-1.4183,0.0,0.0,0.0,0.0,0.0,0.0,0.0,0.0,0.0,0.0,0.0,0.0,0.0,0.0,0.0,0.0,0.0,0.0,0.0,0.0,0.0,0.0,-2.8555,-3.158,-3.4535,-3.4758,-3.5778,-3.6481,-3.5372,-3.4326,-3.3093,-3.1393,-3.039,-2.9493,-2.824,-2.8051,-2.8199,-2.8685,-2.8778,-2.9116,-3.0364,-3.0929,-3.1851,0.0,0.0,0.0,-3.8717,0.0,0.0,0.0,0.0,0.0,0.0,0.0,0.0,0.0,0.0,-3.6451,-3.5109,-3.5259,-3.4346,-3.2173,-3.2377,-3.208,-3.1351,-3.1249,-3.0895,-3.0337,-2.9799,0.0,0.0,0.0,0.0,0.0,-2.508,-2.4776,-2.4372,-2.3362,-2.2839,-2.2557,-2.1234,-2.0519,-2.0085,0.0,0.0,0.0,0.0,0.0,0.0,0.0,-1.127,-1.1659,-1.2138,-1.19,-1.1856,-1.2271,-1.1608,-1.1286,-1.1665,-1.0733,0.0,0.0,0.0,0.0,0.0,0.0,0.0,0.0,-1.1349,-1.1894,-1.2404,-1.2895,-1.336,-1.3824,-1.4105,-1.4362,-1.4635,-1.4734,0.0,0.0,0.0,0.0,0.0,0.0,0.0,-2.3066,0.0,0.0,0.0,0.0,0.0,0.0,0.0,0.0,0.0,0.0,0.0,0.0,0.0,-2.923,-3.1486,-3.1997,-3.2814,-3.3387,-3.2641,-3.192,0.0,-2.9831,-2.9197,-2.8538,-2.7607,-2.7625,-2.7875,-2.814,-2.8415,-2.8983,-2.9846,-3.0218,-3.1008,0.0,0.0,0.0,0.0,0.0,0.0,0.0,0.0,0.0,0.0,0.0,0.0,0.0,0.0,-3.6012,-3.4329,-3.4621,-3.3757,-3.1727,-3.1826,-3.1708,-3.1234,-3.1073,-3.0558,-2.9783,0.0,0.0,0.0,0.0,0.0,0.0,-2.5005,-2.4778,-2.4337,-2.3502,-2.3111,-2.2837,-2.1593,-2.0799,-2.0237,0.0,0.0,0.0,0.0,0.0,0.0,0.0,-1.1262,-1.2164,-1.2216,-1.2112,-1.2143,-1.2439,-1.1796,-1.1505,-1.1864,0.0,0.0,0.0,0.0,0.0,0.0,0.0,0.0,0.0,-1.1629,-1.2173,-1.2638,-1.3227,-1.3684,-1.4025,-1.4296,-1.4541,-1.4718,-1.4726,-1.4831,-1.5132,-1.7001,-1.8319,-1.9254,-2.1015,-2.218,0.0,0.0,0.0,0.0,0.0,0.0,0.0,0.0,0.0,0.0,0.0,0.0,0.0,0.0,0.0,0.0,0.0,-3.0437,-3.0536,-3.0838,-3.0342,-2.9493,-2.8434,-2.8119,0.0,-2.6852,-2.6907,-2.7233,-2.7533,-2.7959,-2.8383,-2.8936,-2.934,-3.0094,0.0,-3.2788,0.0,0.0,0.0,0.0,0.0,0.0,0.0,0.0,0.0,0.0,0.0,0.0,0.0,-3.403,-3.3985,-3.3155,-3.1495,-3.1336,-3.1176,-3.1087,-3.0836,-3.0352,-2.9552,0.0,0.0,0.0,0.0,0.0,0.0,-2.4948,-2.462,-2.4002,-2.3441,-2.2948,-2.2553,-2.1813,-2.0903,-1.9982,0.0,0.0,0.0,0.0,0.0,0.0,0.0,0.0,0.0,0.0,-1.2205,-1.2107,-1.2195,-1.194,-1.1826,0.0,0.0,0.0,0.0,0.0,0.0,0.0,0.0,0.0,0.0,-1.2046,-1.2527,-1.3056,-1.3463,-1.3877,-1.4311,-1.4569,-1.4787,-1.4924,-1.4973,-1.5069,-1.5273,-1.7104,-1.8001,-1.8358,-2.0097,-2.1288,0.0,0.0,0.0,0.0,-2.3223,-2.3624,0.0,0.0,0.0,0.0,0.0,0.0,0.0,0.0,-2.5274,-2.5221,-2.625,0.0,-2.8547,-2.7662,-2.7418,-2.7166,0.0,-2.6486,-2.6389,-2.6139,-2.6165,-2.6522,-2.7467,-2.7602,-2.8082,-2.977,-3.0242,-3.0788,-3.2137,0.0,0.0,0.0,0.0,0.0,0.0,0.0,0.0,0.0,0.0,0.0,0.0,0.0,0.0,-3.3652,-3.3514,-3.275,-3.1351,-3.0984,-3.0821,-3.0895,-3.0476,-3.0009,-2.9406,0.0,0.0,0.0,0.0,0.0,-2.4835,-2.4593,-2.4261,-2.3936,-2.3487,-2.3187,-2.2887,-2.203,-2.1186,-2.0378,0.0,0.0,0.0,0.0,0.0,0.0,0.0,0.0,0.0,0.0,0.0,0.0,0.0,0.0,0.0,0.0,0.0,0.0,0.0,0.0,0.0,0.0,0.0,-1.0819,-1.1475,-1.197,-1.2239,-1.2323,-1.3059,-1.3406,-1.3393,-1.4006,-1.437,-1.4514,-1.4942,-1.5362,-1.5838,-1.726,-1.8106,-1.8611,-1.9968,0.0,0.0,0.0,0.0,0.0,-2.2686,-2.3052,0.0,-2.4904,-2.5568,-2.5841,0.0,0.0,0.0,0.0,-2.4264,-2.376,-2.4292,-2.5802,-2.7122,-2.6576,-2.6507,-2.6466,-2.6092,-2.5758,-2.5481,-2.5066,-2.5301,-2.5729,-2.6354,-2.6968,-2.7838,-2.9199,-2.9944,0.0,0.0,0.0,0.0,0.0,0.0,0.0,0.0,0.0,0.0,0.0,0.0,0.0,0.0,0.0,0.0,0.0,-3.3129,-3.2308,-3.1073,-3.0747,-3.0568,-3.0568,-3.0233,-2.9768,-2.9111,0.0,0.0,0.0,0.0,0.0,-2.4664,-2.4376,-2.4041,-2.37,-2.339,-2.315,-2.2919,-2.2213,-2.1366,-2.0423,0.0,0.0,0.0,0.0,0.0,0.0,0.0,0.0,0.0,0.0,0.0,0.0,0.0,0.0,0.0,0.0,0.0,0.0,0.0,0.0,0.0,0.0,0.0,-1.0327,-1.1017,-1.1581,-1.1768,-1.1563,-1.2493,-1.2853,-1.2636,-1.3403,-1.3952,-1.4319,-1.5068,-1.5849,-1.6676,-1.7607,-1.8461,-1.9289,-2.0136,0.0,0.0,0.0,0.0,0.0,0.0,0.0,0.0,-2.4651,-2.5207,-2.5132,-2.5442,0.0,0.0,0.0,0.0,0.0,-2.3283,-2.4581,-2.5882,-2.6133,-2.6327,-2.6323,-2.5939,-2.5415,-2.4842,-2.4106,-2.4514,-2.512,-2.5254,-2.6406,0.0,0.0,0.0,0.0,0.0,0.0,0.0,0.0,0.0,0.0,0.0,0.0,0.0,0.0,0.0,0.0,0.0,0.0,0.0,0.0,-3.2786,-3.1859,-3.0717,-3.0582,-3.0387,-3.019,-3.0097,-2.9629,-2.8941,-2.8071,0.0,0.0,0.0,0.0,-2.462,-2.4229,-2.3878,-2.3509,-2.3198,-2.2957,-2.2787,-2.2309,-2.144,-2.0346,0.0,0.0,0.0,0.0,0.0,0.0,0.0,0.0,0.0,0.0,0.0,0.0,0.0,0.0,0.0,0.0,0.0,0.0,0.0,0.0,0.0,0.0,-1.1401,-1.1253,-1.0768,-1.1074,-1.1723,-1.2741,-1.2475,-1.3092,-1.4558,-1.4211,-1.4779,-1.6105,-1.6231,-1.6777,-1.7636,-1.8523,-1.9013,-1.926,-2.008,0.0,0.0,0.0,0.0,0.0,0.0,0.0,0.0,-2.2464,-2.364,-2.4888,-2.4112,0.0,0.0,0.0,0.0,0.0,-2.2587,-2.3725,-2.4513,-2.4392,-2.504,-2.5517,-2.4776,-2.4532,-2.4381,-2.4116,-2.4284,-2.486,-2.6244,-2.6616,-2.7484,0.0,0.0,0.0,0.0,0.0,0.0,0.0,0.0,0.0,0.0,0.0,0.0,0.0,0.0,0.0,0.0,0.0,0.0,0.0,0.0,-3.1608,-3.0248,-3.0021,-2.9931,-2.9884,-2.9727,-2.9532,-2.9191,-2.794,-2.728,0.0,0.0,-2.4778,-2.4734,-2.4287,-2.3819,-2.3403,-2.309,-2.2726,-2.242,-2.1975,-2.1287,-2.0424,0.0,0.0,0.0,0.0,0.0,0.0,0.0,0.0,0.0,0.0,0.0,0.0,0.0,0.0,0.0,0.0,0.0,0.0,0.0,0.0,0.0,-1.1386,-1.1121,-1.077,-1.0281,-1.095,-1.1253,-1.1104,-1.1442,-1.2103,-1.3065,-1.3733,-1.4663,-1.5815,-1.6281,-1.6982,-1.7862,-1.8734,-1.9389,-1.9873,0.0,0.0,0.0,0.0,0.0,0.0,0.0,0.0,0.0,0.0,-2.3673,-2.4222,-2.371,0.0,0.0,0.0,0.0,0.0,-2.1336,-2.2408,-2.3347,-2.3258,-2.4629,-2.5936,-2.5524,-2.5162,-2.465,-2.3863,-2.439,-2.5022,-2.5408,0.0,-2.7982,-3.051,0.0,0.0,0.0,0.0,0.0,0.0,0.0,0.0,0.0,0.0,0.0,0.0,0.0,0.0,0.0,0.0,0.0,0.0,0.0,0.0,-2.9803,-2.9651,-2.9651,-2.9713,-2.954,-2.9415,-2.9156,-2.7875,-2.7276,-2.7116,0.0,-2.4677,-2.4677,-2.4099,-2.3641,-2.3343,-2.2921,-2.242,-2.1753,-2.0911,-2.0315,-1.9727,0.0,0.0,0.0,0.0,0.0,0.0,0.0,0.0,0.0,0.0,0.0,0.0,0.0,0.0,0.0,0.0,0.0,0.0,0.0,0.0,-1.2095,-1.1076,-1.0585,-1.0146,-0.9752,-1.0552,-1.0603,-0.985,-1.0501,-1.11,-1.1694,-1.3468,-1.4695,-1.5501,-1.6386,-1.7259,-1.814,-1.902,-1.9774,-2.036,0.0,0.0,0.0,0.0,0.0,0.0,0.0,0.0,0.0,0.0,0.0,0.0,0.0,0.0,0.0,-2.2026,-2.1169,-2.0256,-2.0545,-2.1311,-2.2122,-2.2375,-2.4098,-2.5884,-2.6193,-2.5691,-2.49,-2.4002,-2.4772,-2.5469,-2.4771,-2.6516,0.0,-3.0326,0.0,0.0,0.0,0.0,0.0,0.0,0.0,0.0,0.0,0.0,0.0,0.0,0.0,0.0,0.0,0.0,0.0,0.0,0.0,0.0,-2.9415,-2.9289,-2.9289,-2.9415,-2.9352,-2.9162,-2.8853,-2.7754,-2.7157,-2.6802,-2.5244,-2.4549,-2.4447,-2.3806,-2.345,-2.3223,-2.2739,-2.1971,-2.1021,-2.0188,-1.9471,-1.8811,0.0,0.0,0.0,0.0,0.0,0.0,0.0,0.0,0.0,0.0,0.0,0.0,0.0,0.0,0.0,0.0,0.0,0.0,0.0,0.0,-1.1148,-0.9708,-1.011,-1.0024,-0.9274,-0.9388,-0.9933,-1.0896,-1.0276,-1.0825,-1.246,-1.4277,-1.5503,-1.6263,-1.7201,-1.8108,-1.8963,-1.9838,-2.0248,-2.0304,-2.0235,0.0,0.0,0.0,0.0,0.0,0.0,0.0,0.0,0.0,0.0,0.0,0.0,0.0,-2.1781,-2.1605,-2.0512,-1.967,-2.0912,-2.0862,-2.0742,-2.1803,-2.2994,-2.4255,-2.5635,-2.538,-2.4908,-2.5095,-2.563,-2.5985,-2.5843,-2.763,-2.9038,0.0,0.0,0.0,0.0,0.0,0.0,0.0,0.0,0.0,0.0,0.0,0.0,0.0,0.0,0.0,0.0,0.0,0.0,0.0,0.0,0.0,-2.8867,-2.8702,-2.8716,-2.8844,-2.9035,-2.883,-2.8312,-2.7462,-2.687,-2.6289,-2.5042,-2.4376,-2.4112,-2.3628,-2.3223,-2.2909,-2.2432,-2.1419,-2.0323,-2.0694,-1.9549,-1.8002,0.0,0.0,0.0,0.0,0.0,0.0,0.0,0.0,0.0,0.0,0.0,0.0,0.0,0.0,0.0,0.0,0.0,0.0,0.0,0.0,-1.1552,-1.0238,-0.9278,-0.8718,-0.8576,-0.9544,-1.0069,-1.0124,-1.0971,-1.1787,-1.2602,-1.4283,-1.5261,-1.5657,-1.656,-1.7131,-1.7535,-1.891,-1.9477,-1.9473,-1.995,-2.0098,0.0,0.0,0.0,0.0,0.0,0.0,0.0,0.0,-2.172,-2.1993,-2.1534,-2.1302,-2.113,-2.0958,-2.0057,-1.935,-2.0192,-2.0054,-1.9977,-2.1221,-2.1848,-2.2651,-2.4533,-2.5219,-2.5549,-2.5841,-2.6289,-2.6622,-2.6405,0.0,-2.805,0.0,0.0,0.0,0.0,0.0,0.0,0.0,0.0,0.0,0.0,0.0,0.0,0.0,0.0,0.0,0.0,0.0,0.0,0.0,0.0,0.0,0.0,-2.8235,-2.8118,-2.7987,-2.843,-2.8241,-2.7595,-2.6916,-2.623,-2.554,-2.4557,-2.3982,-2.3747,-2.3378,-2.2969,-2.2506,-2.1507,-2.083,-2.0362,-1.9761,-1.8884,-1.8044,0.0,0.0,0.0,0.0,0.0,0.0,0.0,0.0,0.0,0.0,0.0,0.0,0.0,0.0,0.0,0.0,0.0,0.0,-1.2456,-1.22,-1.1547,-1.03,-0.8695,-0.7748,-0.7583,-0.8779,-0.933,-0.9221,-1.0733,-1.1803,-1.2446,-1.3804,-1.4672,-1.5159,-1.6055,-1.6483,-1.6592,-1.7949,-1.8641,-1.8875,-1.9412,-1.9751,0.0,0.0,0.0,0.0,0.0,0.0,0.0,0.0,-2.099,-2.0994,-2.0695,-2.0607,-2.0575,-2.0154,-1.9565,-1.9063,-1.9298,-1.909,-1.9059,-2.0106,-2.0544,-2.1112,-2.3078,-2.4461,-2.5472,-2.6107,-2.6257,-2.634,-2.6295,0.0,0.0,0.0,0.0,0.0,0.0,0.0,0.0,0.0,0.0,0.0,0.0,0.0,0.0,0.0,0.0,0.0,0.0,0.0,0.0,0.0,0.0,0.0,0.0,-2.7776,-2.7656,-2.7335,-2.7525,-2.7417,-2.6956,-2.6374,-2.5682,-2.4849,-2.4064,-2.3582,-2.333,-2.3017,-2.2592,-2.1978,-2.078,-2.0206,-1.992,-1.9164,-1.838,-1.7684,0.0,0.0,0.0,0.0,0.0,0.0,0.0,0.0,0.0,0.0,0.0,0.0,0.0,0.0,0.0,0.0,0.0,0.0,-1.2266,-1.1715,-1.0849,-0.9564,-0.8458,-0.7348,-0.6231,-0.6725,-0.7459,-0.8401,-0.9276,-1.0498,-1.2021,-1.2815,-1.3804,-1.4938,-1.5952,-1.6413,-1.6516,-1.7205,-1.7947,-1.8677,-1.8623,-1.9035,-1.9682,0.0,0.0,0.0,0.0,0.0,0.0,0.0,-2.037,-2.0855,-2.0638,-2.0431,-2.0133,-1.9312,-1.8948,-1.8695,-1.8323,-1.7908,-1.7751,-1.8517,-1.9031,-1.9803,-2.1365,-2.2912,-2.4518,-2.5925,-2.5541,-2.5087,-2.5229,-2.5792,0.0,0.0,0.0,0.0,0.0,0.0,0.0,0.0,0.0,0.0,0.0,0.0,0.0,0.0,0.0,0.0,0.0,0.0,0.0,0.0,0.0,0.0,0.0,-2.7268,-2.7214,-2.7011,-2.6447,-2.6284,-2.6362,-2.5996,-2.5174,-2.4151,-2.3631,-2.321,-2.2848,-2.2543,-2.1963,-2.133,-2.0511,-1.9593,-1.8753,-1.9035,-1.807,-1.6649,0.0,0.0,0.0,0.0,0.0,0.0,0.0,0.0,0.0,0.0,0.0,0.0,0.0,0.0,0.0,0.0,0.0,0.0,-1.2857,-1.282,-1.1796,-0.9529,-0.7087,-0.6111,-0.6814,-0.6622,-0.7044,-0.8122,-0.9556,-1.0831,-1.1948,-1.2913,-1.3615,-1.4168,-1.5087,-1.5125,-1.4606,-1.5856,-1.6493,-1.6746,-1.7857,-1.8447,-1.8719,0.0,0.0,0.0,0.0,0.0,0.0,0.0,0.0,0.0,-1.899,-1.9024,-1.9059,-1.8457,-1.7685,-1.71,-1.7287,-1.6995,-1.6933,-1.8256,-1.9073,-1.9923,-2.1183,-2.2628,-2.4002,-2.511,-2.5253,-2.5093,-2.4609,0.0,0.0,0.0,0.0,0.0,0.0,0.0,0.0,0.0,0.0,0.0,0.0,0.0,0.0,0.0,0.0,0.0,0.0,0.0,0.0,0.0,0.0,0.0,0.0,0.0,-2.6794,-2.6658,-2.5954,-2.5608,-2.5589,-2.4898,-2.4139,-2.3424,-2.3044,-2.2739,-2.2371,-2.1788,-2.0993,-2.0064,-1.9767,-1.9269,-1.8585,-1.781,-1.7327,-1.6901,0.0,0.0,0.0,0.0,0.0,0.0,0.0,0.0,0.0,0.0,-1.5332,0.0,0.0,0.0,0.0,0.0,0.0,0.0,0.0,-1.2263,-1.0469,-0.7771,-0.6496,-0.5891,-0.5991,-0.6192,-0.655,-0.7037,-0.8836,-1.0235,-1.1249,-1.2362,-1.3206,-1.38,-1.4724,-1.4795,-1.4266,-1.5029,-1.5666,-1.6238,-1.7165,-1.7874,-1.848,0.0,0.0,0.0,0.0,0.0,0.0,0.0,0.0,0.0,-1.7855,-1.7591,-1.7253,-1.6595,-1.6241,-1.6099,-1.6126,-1.6331,-1.6799,-1.7878,-1.8672,-1.9493,-2.0643,-2.2148,-2.339,0.0,-2.4266,-2.4386,-2.3796,0.0,0.0,0.0,0.0,0.0,0.0,0.0,0.0,0.0,0.0,0.0,0.0,0.0,0.0,0.0,0.0,0.0,0.0,0.0,0.0,0.0,0.0,0.0,0.0,0.0,0.0,-2.5921,-2.5294,-2.48,-2.4443,-2.3991,-2.3418,-2.2714,-2.214,-2.1812,-2.1554,-2.0838,-2.0023,-1.925,-1.8868,-1.8483,-1.7988,-1.7052,-1.6739,-1.6658,0.0,0.0,0.0,0.0,0.0,0.0,0.0,0.0,0.0,0.0,-1.5367,-1.5233,0.0,0.0,0.0,0.0,0.0,0.0,0.0,0.0,-0.7948,-0.5316,-0.6477,-0.6275,-0.4359,-0.5518,-0.5948,-0.5537,-0.7502,-0.9057,-1.0208,-1.1398,-1.2501,-1.3513,-1.4524,-1.4839,-1.4618,-1.4373,-1.506,-1.6327,-1.6255,-1.7074,-1.836,-1.8714,0.0,0.0,0.0,0.0,0.0,0.0,0.0,0.0,-1.7034,-1.6223,-1.5189,-1.4333,-1.4749,-1.5389,-1.4857,-1.568,-1.6849,-1.7458,-1.7969,-1.8614,-1.967,-2.1209,-2.2391,-2.2248,0.0,-2.3021,0.0,0.0,0.0,0.0,0.0,0.0,0.0,0.0,0.0,0.0,0.0,0.0,0.0,0.0,0.0,0.0,0.0,0.0,0.0,0.0,0.0,0.0,0.0,0.0,0.0,0.0,0.0,0.0,-2.4553,-2.3884,-2.322,-2.3325,-2.287,-2.2027,-2.1061,-2.061,-2.0433,-1.9718,-1.9194,-1.8703,-1.8013,-1.745,-1.6956,-1.6627,-1.6266,-1.5976,0.0,0.0,0.0,0.0,0.0,0.0,0.0,0.0,0.0,0.0,0.0,0.0,0.0,0.0,0.0,0.0,0.0,0.0,0.0,0.0,-0.8545,-0.6804,-0.6395,-0.5647,-0.4472,-0.4801,-0.4965,-0.4964,-0.7187,-0.8841,-0.9973,-1.0676,-1.1295,-1.1858,-1.2763,-1.2649,-1.1798,-1.2271,-1.2859,-1.3539,-1.4079,-1.4805,-1.5645,-1.6498,-1.6863,0.0,0.0,0.0,0.0,0.0,0.0,0.0,-1.6105,-1.554,-1.487,-1.4147,-1.3664,-1.3485,-1.4029,-1.4279,-1.4841,-1.6542,-1.7252,-1.7687,-1.8267,-1.8895,-1.973,-2.1125,-2.1576,-2.1755,0.0,0.0,0.0,0.0,0.0,0.0,0.0,0.0,0.0,0.0,0.0,0.0,0.0,0.0,0.0,0.0,0.0,0.0,0.0,0.0,0.0,0.0,0.0,0.0,-2.598,-2.5758,-2.5627,0.0,-2.4695,-2.3883,-2.3214,-2.2727,-2.1942,-2.1002,-2.0641,-1.9904,-1.8962,-1.8877,-1.818,-1.7126,-1.7227,-1.6847,-1.6267,-1.5703,-1.5554,-1.5645,0.0,0.0,0.0,0.0,0.0,0.0,0.0,0.0,0.0,0.0,0.0,0.0,0.0,0.0,0.0,0.0,0.0,0.0,0.0,0.0,-0.8417,-0.6751,-0.5836,-0.5015,-0.4229,-0.4466,-0.4593,-0.4608,-0.6115,-0.7565,-0.8922,-1.0205,-1.099,-1.1397,-1.225,-1.2221,-1.1535,-1.1719,-1.2234,-1.2944,-1.3175,-1.385,-1.4821,-1.5441,-1.5745,-1.5854,-1.5725,0.0,0.0,0.0,0.0,0.0,0.0,0.0,-1.3803,-1.3252,-1.278,-1.2581,-1.3318,-1.3569,-1.4034,-1.5847,-1.6353,-1.6495,-1.6885,-1.7232,-1.7648,-1.8666,-1.9932,0.0,0.0,0.0,0.0,0.0,0.0,0.0,0.0,0.0,0.0,0.0,0.0,0.0,0.0,0.0,0.0,0.0,0.0,0.0,0.0,0.0,0.0,0.0,0.0,0.0,-2.5606,-2.5336,-2.5075,-2.4671,-2.4011,-2.308,-2.1916,-2.1719,-2.1195,-2.045,-1.9966,-1.9194,-1.8256,-1.7988,-1.7359,-1.6498,-1.668,-1.6353,-1.5732,-1.539,-1.5281,-1.5232,0.0,0.0,0.0,0.0,0.0,0.0,0.0,0.0,0.0,0.0,0.0,0.0,0.0,0.0,0.0,0.0,0.0,0.0,0.0,0.0,0.0,-0.6261,-0.5266,-0.4467,-0.3911,-0.4263,-0.4398,-0.4303,-0.4997,-0.615,-0.7738,-0.96,-1.0658,-1.1004,-1.1888,-1.2003,-1.1541,-1.1384,-1.1943,-1.289,-1.2535,-1.3197,-1.4417,-1.4574,-1.4758,-1.4855,-1.4401,-1.4826,-1.5476,-1.4685,0.0,0.0,0.0,0.0,-1.2316,-1.1929,-1.171,-1.1752,-1.2359,-1.2901,-1.3564,-1.4917,-1.5084,-1.509,-1.5579,-1.5725,-1.5855,-1.6042,0.0,0.0,0.0,0.0,0.0,0.0,0.0,0.0,0.0,0.0,0.0,0.0,0.0,0.0,0.0,0.0,0.0,0.0,0.0,0.0,0.0,0.0,0.0,0.0,0.0,-2.4921,-2.5182,-2.4826,-2.4295,-2.3653,-2.2982,-2.1911,-2.0575,-2.068,-2.0385,-1.9873,-1.9226,-1.8489,-1.7698,-1.7127,-1.6627,-1.6259,-1.6259,-1.5836,-1.5362,-1.5294,-1.5128,-1.4852,0.0,0.0,0.0,0.0,0.0,0.0,0.0,0.0,0.0,0.0,0.0,0.0,0.0,0.0,0.0,0.0,0.0,0.0,0.0,0.0,0.0,-0.661,-0.5235,-0.428,-0.3905,-0.3847,-0.3839,-0.3888,-0.4734,-0.5879,-0.7301,-0.8278,-0.8916,-0.9262,-1.0143,-0.9961,-0.9029,-0.9503,-1.0358,-1.1355,-1.0977,-1.1576,-1.2731,-1.2808,-1.2906,-1.2905,-1.2506,-1.2564,-1.2732,-1.1981,-1.1681,0.0,0.0,0.0,-1.0651,-1.0307,-0.9946,-0.9821,-1.0475,-1.1459,-1.2473,-1.3125,-1.3244,-1.3429,0.0,0.0,-1.3899,0.0,0.0,0.0,0.0,0.0,0.0,0.0,0.0,0.0,0.0,0.0,0.0,0.0,0.0,0.0,0.0,0.0,0.0,0.0,0.0,0.0,0.0,-2.3804,-2.4345,-2.4562,-2.4718,0.0,-2.4861,-2.4178,-2.377,-2.349,-2.1935,-2.095,-2.0617,-2.0062,-1.9393,-1.8746,-1.872,-1.7949,-1.6628,-1.6519,-1.6124,-1.5526,-1.5526,-1.5371,-1.5029,-1.4911,-1.4725,-1.4478,0.0,0.0,0.0,0.0,0.0,0.0,0.0,0.0,0.0,0.0,0.0,0.0,0.0,0.0,0.0,0.0,0.0,0.0,0.0,0.0,0.0,-0.6038,-0.4905,-0.4184,-0.3955,-0.3649,-0.3611,-0.3847,-0.3835,-0.4984,-0.7211,-0.7289,-0.8136,-0.9591,-0.998,-0.9785,-0.9189,-0.9339,-0.9759,-1.0276,-0.9841,-1.0285,-1.1226,-1.1246,-1.1315,-1.1382,-1.1423,-1.14,-1.1324,-1.11,-1.1014,-1.0982,-1.0912,0.0,0.0,0.0,-0.9399,-0.8999,-0.9416,-1.0097,-1.0893,-1.1788,-1.1843,-1.1908,-1.2641,-1.2605,-1.2485,0.0,0.0,0.0,0.0,0.0,0.0,0.0,0.0,0.0,0.0,0.0,0.0,0.0,0.0,0.0,0.0,0.0,0.0,0.0,0.0,0.0,-2.1674,-2.2358,-2.2835,-2.3047,-2.3117,0.0,-2.3514,-2.2971,-2.2432,-2.1898,-2.1125,-2.045,-1.9846,-1.9701,-1.9158,-1.8334,-1.8334,-1.756,-1.6384,-1.6192,-1.5826,-1.541,-1.5313,-1.5137,-1.4911,-1.5079,-1.4775,-1.4181,0.0,0.0,0.0,0.0,0.0,0.0,0.0,0.0,0.0,0.0,0.0,0.0,0.0,0.0,0.0,0.0,0.0,0.0,0.0,0.0,0.0,-0.5884,-0.4868,-0.4217,-0.3973,-0.3526,-0.3465,-0.3832,-0.3126,-0.3965,-0.627,-0.6573,-0.7751,-0.9628,-0.9952,-0.9744,-0.9135,-0.9121,-0.938,-0.9754,-0.9184,-0.9518,-1.0408,-1.0732,-1.0845,-1.0906,-1.101,-1.0914,-1.0704,-1.0392,-1.0277,-1.0246,-1.0145,-0.9703,0.0,0.0,0.0,-0.7654,-0.7888,-0.8327,-0.897,-1.0026,-1.029,-1.0436,0.0,0.0,0.0,0.0,0.0,0.0,0.0,0.0,0.0,0.0,0.0,0.0,0.0,0.0,0.0,0.0,0.0,0.0,0.0,0.0,0.0,0.0,0.0,0.0,-2.0477,-2.1134,-2.1549,-2.1757,-2.1827,-2.1976,-2.2343,-2.1854,-2.1202,-2.0339,-2.0272,-1.9878,-1.9274,-1.9215,-1.8784,-1.8123,-1.7957,-1.7212,-1.6134,-1.5826,-1.5536,-1.5235,-1.5147,-1.497,-1.4852,-1.5069,-1.4715,-1.4061,0.0,0.0,0.0,0.0,0.0,0.0,0.0,0.0,0.0,0.0,0.0,0.0,-1.7798,-1.5895,-1.4634,-1.4472,0.0,0.0,0.0,0.0,0.0,-0.6839,-0.5447,0.0,-0.3909,-0.3505,-0.3407,-0.3606,-0.3003,-0.3039,-0.3737,-0.6142,-0.7623,-0.8356,-0.9568,-0.9177,-0.765,-0.8151,-0.9026,-0.9997,-0.9159,-0.953,-1.0715,-1.1859,-1.2257,-1.2103,-1.1439,-1.1172,-1.0908,-0.9197,-0.8573,-0.8498,-0.8308,-0.7827,-0.7268,0.0,0.0,0.0,-0.53,-0.5827,-0.6467,-0.7297,-0.8184,-0.9033,0.0,0.0,0.0,0.0,0.0,0.0,0.0,0.0,0.0,0.0,0.0,0.0,0.0,0.0,0.0,0.0,0.0,0.0,0.0,0.0,0.0,0.0,0.0,0.0,-1.9581,-2.0544,-2.121,-2.1328,-2.1549,-2.1757,-2.1896,-2.1248,-2.0519,-1.9647,-1.9306,-1.9162,-1.9054,-1.8349,-1.795,-1.791,-1.7665,-1.6709,-1.541,-1.5323,-1.5029,-1.4715,-1.4793,-1.4793,-1.4793,-1.4625,-1.4497,-1.435,0.0,0.0,0.0,0.0,0.0,0.0,0.0,0.0,0.0,0.0,0.0,0.0,0.0,-1.6646,-1.5245,-1.3113,-1.126,0.0,0.0,0.0,0.0,-0.547,-0.4881,-0.4444,-0.4169,-0.3762,-0.3209,-0.2512,-0.2074,-0.2683,-0.4275,-0.45,-0.6252,-0.9189,-0.8317,-0.7958,-0.8002,-0.781,-0.8225,-0.896,-0.8486,-0.9316,-1.0909,-1.1347,-1.1483,0.0,0.0,0.0,-0.9429,-0.8829,-0.8549,-0.8402,-0.8028,-0.7489,-0.6786,-0.5646,-0.4953,-0.4564,-0.4498,-0.4686,-0.5147,-0.619,-0.6752,-0.7253,-0.8054,0.0,0.0,0.0,0.0,0.0,0.0,0.0,0.0,0.0,0.0,0.0,0.0,0.0,0.0,0.0,0.0,0.0,0.0,0.0,0.0,0.0,0.0,0.0,-1.8507,-1.9137,-1.9561,-1.9891,-2.0162,-2.0374,-2.043,-2.0212,-1.9775,-1.9274,-1.9208,-1.9208,-1.9054,-1.8414,-1.795,-1.766,-1.7096,-1.6543,-1.5975,-1.5482,-1.5294,-1.5209,-1.4754,-1.4625,-1.4625,-1.4515,-1.4249,-1.3812,0.0,0.0,0.0,0.0,0.0,0.0,0.0,0.0,0.0,-2.3616,0.0,0.0,0.0,0.0,-1.5753,-1.3258,-1.2316,-1.1008,-0.9023,-0.7707,-0.6549,-0.5545,-0.4857,-0.4424,-0.4264,-0.3688,-0.2889,-0.1832,-0.1175,-0.1636,-0.3116,-0.3115,-0.4902,-0.8067,-0.6709,-0.6515,-0.7244,-0.759,-0.7998,-0.8392,-0.8327,-0.923,-1.0665,-1.1354,0.0,0.0,0.0,0.0,0.0,-0.9431,0.0,0.0,-0.7926,-0.7009,-0.5924,-0.4654,-0.4192,-0.398,-0.3561,-0.3645,-0.4049,0.0,-0.5184,-0.5471,-0.6521,0.0,0.0,0.0,0.0,0.0,0.0,0.0,0.0,0.0,0.0,0.0,0.0,0.0,0.0,0.0,0.0,0.0,0.0,0.0,0.0,0.0,0.0,0.0,-1.7725,-1.8008,-1.8337,-1.8875,-1.9274,-1.9407,-1.9407,-1.9473,-1.9341,-1.9075,-1.9075,-1.8936,-1.8771,-1.8147,-1.768,-1.7399,-1.6737,-1.6258,-1.5911,-1.539,-1.5136,-1.5115,-1.4643,-1.4515,-1.4446,-1.4258,-1.3881,-1.3511,0.0,0.0,0.0,0.0,0.0,0.0,0.0,0.0,-2.4091,-2.3082,0.0,0.0,0.0,0.0,0.0,-1.5167,-1.5078,-1.3602,-1.0114,-0.7884,-0.6855,-0.7212,0.0,0.0,0.0,-0.3313,-0.2465,-0.1656,-0.0308,0.0258,0.0049,-0.199,-0.3527,-0.461,-0.4724,-0.483,-0.5054,-0.7278,-0.8277,-0.8391,0.0,-0.921,-1.0098,0.0,0.0,0.0,-1.3494,-1.3112,0.0,-1.0912,0.0,0.0,0.0,0.0,0.0,0.0,-0.35,-0.3095,0.0,0.0,0.0,0.0,0.0,0.0,-0.5262,0.0,0.0,0.0,0.0,0.0,0.0,0.0,0.0,0.0,0.0,0.0,0.0,0.0,0.0,0.0,0.0,0.0,0.0,0.0,0.0,0.0,0.0,-1.6394,-1.7148,-1.7304,-1.7716,-1.8462,-1.8865,-1.9075,-1.9142,-1.9208,-1.9198,-1.9044,-1.8664,-1.8364,-1.8134,-1.739,-1.7071,-1.7091,-1.6494,-1.5854,-1.5076,-1.4934,-1.4628,-1.4216,-1.4396,-1.4455,-1.4387,-1.3761,-1.3511,-1.3511,0.0,0.0,0.0,0.0,0.0,0.0,-2.6402,-2.5859,-2.5131,0.0,0.0,0.0,-1.8833,-1.7205,-1.5806,-1.4614,-1.4606,-1.3235,-0.9836,-0.9127,-0.7834,-0.5584,-0.4953,-0.4308,-0.3563,-0.4096,-0.3097,-0.0469,0.2364,0.3287,0.2366,0.1407,0.066,0.0052,-0.1471,-0.1524,-0.0625,-0.2937,-0.5367,-0.7541,-0.6081,-0.8103,0.0,0.0,0.0,0.0,0.0,-1.3455,-1.1671,0.0,-1.0685,-0.9743,0.0,0.0,-0.5396,0.0,-0.4304,-0.4058,-0.2644,0.0,0.0,0.0,0.0,0.0,0.0,0.0,0.0,0.0,0.0,0.0,0.0,0.0,0.0,0.0,0.0,0.0,0.0,0.0,0.0,0.0,0.0,0.0,0.0,0.0,0.0,0.0,-1.5076,-1.583,-1.6517,-1.7349,-1.7986,-1.8253,-1.8701,-1.9008,-1.9208,-1.9208,-1.8965,-1.8568,-1.8393,-1.8039,-1.7519,-1.675,-1.6513,-1.6684,-1.6122,-1.5573,-1.5146,-1.5136,-1.4916,-1.448,-1.397,-1.3649,-1.3415,-1.3224,-1.3277,-1.3511,0.0,0.0,0.0,0.0,0.0,-2.6809,-2.6818,-2.6269,-2.5563,0.0,0.0,0.0,-1.8897,-1.7462,-1.5879,-1.3854,-1.3315,-1.2038,-0.9537,-0.8741,-0.7555,-0.5715,-0.4852,-0.4095,-0.3442,-0.314,-0.202,-0.0041,0.2657,0.3943,0.387,0.3248,0.3002,0.3035,0.1789,0.1338,0.1475,0.0891,0.0,0.0,-0.6005,0.0,0.0,-1.1429,-1.2007,0.0,0.0,0.0,-1.1946,-1.1925,-1.1183,0.0,0.0,0.0,0.0,0.0,0.0,-0.4508,-0.2964,-0.2717,-0.2803,0.0,0.0,0.0,-0.2021,-0.1786,0.0,0.0,0.0,0.0,0.0,0.0,0.0,0.0,0.0,0.0,0.0,0.0,0.0,0.0,0.0,0.0,0.0,0.0,0.0,0.0,-1.4239,-1.51,-1.5905,-1.6798,-1.7422,-1.7855,-1.8248,-1.868,-1.9208,-1.9142,-1.8847,-1.8328,-1.8134,-1.7617,-1.6807,-1.6357,-1.6075,-1.5993,-1.5661,-1.5216,-1.4735,-1.4707,-1.4501,-1.4126,-1.3578,-1.3164,-1.2805,-1.2805,-1.3094,-1.3511,0.0,0.0,-2.6061,-2.6494,-2.7037,-2.7235,-2.6701,-2.6265,-2.5566,0.0,-2.3526,-2.1839,-1.8818,-1.7792,-1.6161,-1.3372,-1.1992,-1.0656,-0.9144,-0.7524,-0.6594,-0.6555,-0.471,-0.3526,-0.3216,-0.1004,0.0132,0.0101,0.1784,0.3286,0.4568,0.3984,0.4003,0.4527,0.0,0.0,0.2217,0.0,0.0,-0.3632,-0.663,-0.8326,0.0,0.0,-1.1417,-1.1618,-1.2409,-1.2584,-1.2443,-1.2364,-1.1218,0.0,0.0,0.0,0.0,0.0,-0.4894,-0.4791,-0.3366,-0.3018,-0.2967,0.0,0.0,0.0,-0.1601,-0.1003,0.0,0.0,0.0,0.0,0.0,0.0,0.0,0.0,0.0,0.0,0.0,0.0,0.0,0.0,0.0,0.0,0.0,0.0,-1.141,-1.2115,-1.3299,-1.4328,-1.5312,-1.5918,-1.6536,-1.7252,-1.7686,-1.8232,-1.892,-1.8971,-1.8689,-1.8066,-1.7853,-1.7156,-1.6006,-1.6076,-1.5692,-1.5058,-1.5104,-1.4757,-1.409,-1.3992,-1.3738,-1.345,-1.3216,-1.292,-1.2621,-1.2621,-1.292,-1.339,0.0,0.0,-2.5586,-2.6375,-2.6291,-2.6119,-2.6084,-2.5982,-2.5306,-2.3655,-2.2011,-2.0326,-1.8622,-1.7365,-1.6271,-1.5236,-1.3563,-1.1287,-0.8269,-0.7584,-0.6614,-0.5093,-0.2872,-0.1393,-0.0796,0.1242,0.1984,0.1347,0.3033,0.3837,0.3825,0.4269,0.4349,0.4137,0.0,0.0,0.0,0.0,0.0,-0.0869,-0.2421,0.0,-0.998,-1.0328,-1.0897,-1.1606,-1.2401,-1.2209,-1.1523,-1.1363,-1.0489,-0.9394,0.0,0.0,0.0,-0.6283,0.0,0.0,0.0,0.0,0.0,0.0,0.0,0.0,0.0234,0.067,0.0843,0.0,0.0,0.0,0.0,0.0,0.0,0.0,0.0,0.0,0.0,0.0,0.0,0.0,0.0,0.0,0.0,0.0,-1.0141,-1.1002,-1.2928,-1.4395,-1.5096,-1.5823,-1.6331,-1.6513,-1.743,-1.7863,-1.7799,-1.8168,-1.7933,-1.7063,-1.6748,-1.6226,-1.5547,-1.5348,-1.5046,-1.4684,-1.4701,-1.4469,-1.4065,-1.3966,-1.3559,-1.3103,-1.2972,-1.2911,-1.2789,-1.2683,-1.2683,-1.2805,-2.4845,-2.5909,-2.6934,-2.7303,-2.724,-2.7003,-2.6499,-2.6421,-2.572,-2.3831,-2.187,-2.0255,-1.9259,-1.7899,-1.668,-1.5771,-1.4283,-1.2283,-0.9669,-0.8059,-0.6335,-0.4387,-0.2145,-0.0922,-0.0848,0.1317,0.2274,0.1898,0.3308,0.3947,0.3862,0.4398,0.4358,0.3874,0.438,0.0,0.0,0.0,0.1559,0.009,-0.2324,0.0,-0.896,-0.9427,-1.0118,-1.0902,-1.1304,-1.1382,-1.1264,-1.1023,-1.0613,0.0,0.0,-0.8871,-0.8465,0.0,-0.6447,-0.6168,0.0,0.0,0.0,-0.2509,0.0,0.0,0.0,0.0961,0.1542,0.0,0.0,0.0,0.0,0.0,0.0,0.0,0.0,0.0,0.0,0.0,0.0,0.0,0.0,0.0,0.0,0.0,-0.9444,-1.112,-1.2491,-1.358,-1.43,-1.498,-1.5453,-1.5811,-1.6624,-1.7211,-1.7409,-1.7632,-1.7346,-1.6558,-1.6367,-1.59,-1.5196,-1.5088,-1.4726,-1.4311,-1.4259,-1.3922,-1.3506,-1.3397,-1.3083,-1.2674,-1.285,-1.285,-1.2666,-1.2621,-1.2621,-1.256,-2.5978,-2.7081,-2.8194,-2.8171,-2.8146,-2.7869,-2.6983,-2.6693,-2.5914,-2.404,-2.2132,-2.0695,-1.9963,-1.87,-1.7452,-1.6221,-1.5051,-1.3616,-1.1713,-0.905,-0.6651,-0.4602,-0.2445,-0.1344,-0.1449,0.0712,0.1986,0.2252,0.0,0.0,0.0,0.4622,0.0,0.0,0.4482,0.4307,0.3729,0.0,0.0,0.0095,0.0,-0.5462,-0.7321,-0.852,-0.9275,-0.9718,-0.9884,-1.0409,-1.1011,-1.0784,-1.0636,-1.035,-0.9189,-0.893,0.0,0.0,0.0,0.0,0.0,0.0,0.0,0.0,0.0,-0.1153,0.0,0.0,0.0,0.1957,0.0,0.0,0.0,0.0,0.0,0.0,0.0,0.0,0.0,0.0,0.0,0.0,0.0,0.0,0.0,0.0,-0.8857,-1.1359,-1.1846,-1.2497,-1.3513,-1.4092,-1.4619,-1.5176,-1.5851,-1.6497,-1.6951,-1.7124,-1.6859,-1.6248,-1.6188,-1.5723,-1.4964,-1.4857,-1.4495,-1.3903,-1.3725,-1.3399,-1.2989,-1.2805,-1.256,-1.2243,-1.2605,-1.2605,-1.2428,-1.2436,-1.2436,-1.2313,-2.6829,-2.7052,-2.7563,-2.7947,-2.7455,-2.6823,-2.6377,-2.5775,-2.4838,-2.3328,-2.1966,-2.0831,-1.9893,-1.9445,-1.8749,-1.766,0.0,0.0,-1.3101,0.0,-0.8856,-0.6503,-0.4283,-0.2408,-0.0922,0.0548,0.1786,0.281,0.3349,0.0,0.0,0.0,0.0,0.0,0.5263,0.0,0.0,0.0,0.1645,0.0,-0.1635,-0.3543,0.0,-0.8026,-0.8443,-0.7999,-0.8708,-0.9477,-1.0138,0.0,-0.9542,-0.8913,0.0,-0.8557,-0.8191,0.0,0.0,0.0,0.0,0.0,0.0,0.0,-0.2167,0.0,0.0,0.0,0.1533,0.2784,0.0,0.3006,0.294,0.0,0.0,0.0,0.0,0.0,0.0,0.0,0.0,0.0,0.0,0.0,0.0,0.0,0.0,-1.0423,-1.0763,-1.1606,-1.3495,-1.3912,-1.4282,-1.4653,-1.5634,-1.5965,-1.5609,-1.6461,-1.6634,-1.6128,-1.5858,-1.5456,-1.4807,-1.4421,-1.3965,-1.3447,-1.3215,-1.305,-1.2989,-1.2744,-1.2305,-1.1872,-1.1996,-1.2065,-1.212,-1.1809,-1.1685,-1.1747,-2.7061,-2.7387,-2.785,-2.7894,-2.7233,-2.6538,-2.6144,-2.4912,-2.3635,-2.2551,-2.1597,-2.0822,0.0,0.0,0.0,0.0,0.0,-1.6649,0.0,0.0,-0.9864,-0.694,0.0,0.0,-0.1409,0.0196,0.1392,0.2152,0.3085,0.3807,0.0,0.0,0.0,0.0,0.5037,0.0,0.3523,0.0,0.2659,0.0,0.0,0.0,0.0,-0.6365,-0.7778,-0.8339,-0.8681,-0.9315,-0.991,0.0,-0.8882,0.0,0.0,0.0,0.0,0.0,0.0,0.0,0.0,0.0,0.0,0.0,0.0,0.0,0.0592,0.0,0.2069,0.0,0.0,0.0,0.0,0.0,0.0,0.0,0.0,0.0,0.0,0.0,0.0,0.0,0.0,0.0,0.0,0.0,0.0,0.0,0.0,-1.0909,-1.258,-1.3427,-1.3977,-1.4174,-1.4991,-1.529,-1.5009,-1.5385,-1.5553,-1.5568,-1.5083,-1.4828,-1.4664,-1.408,-1.3525,-1.304,-1.2869,-1.2705,-1.2557,-1.2472,-1.2182,-1.1802,-1.1747,-1.1747,-1.1747,-1.1435,-1.131,-1.131,-2.6961,-2.7508,-2.7989,-2.774,-2.6986,-2.6169,-2.5495,0.0,0.0,0.0,0.0,0.0,-2.068,-2.0194,0.0,0.0,-1.9404,-1.7797,0.0,0.0,-1.072,0.0,0.0,0.0,0.0,-0.0426,0.1014,0.1816,0.299,0.3729,0.0,0.0,0.0,0.0,0.0,0.4622,0.3322,0.0,0.307,0.1157,0.1036,-0.0429,-0.2791,-0.5136,-0.7027,-0.842,-0.8203,-0.8629,-0.9206,-0.8454,-0.8087,0.0,-0.711,0.0,0.0,0.0,0.0,0.0,-0.3399,0.0,0.0,0.0,0.0,0.0,0.0,0.0,0.0,0.0,0.0,0.0,0.0,0.0,0.2398,0.0,0.0,0.0,0.0,0.0,0.0,0.0,0.0,0.0,0.0,0.0,0.0,0.0,0.0,0.0,-1.1826,-1.2729,-1.342,-1.38,-1.4428,-1.4717,-1.4718,-1.4883,-1.5014,-1.5168,-1.461,-1.4346,-1.426,-1.361,-1.304,-1.258,-1.2422,-1.2307,-1.2153,-1.2116,-1.1905,-1.1677,-1.156,-1.1435,-1.131,-1.1185,-1.1059,-1.0933,-2.6707,-2.7188,-2.7575,-2.7452,0.0,0.0,0.0,0.0,0.0,0.0,0.0,0.0,0.0,0.0,0.0,0.0,0.0,-1.8702,-1.6863,0.0,-1.164,0.0,0.0,-0.4802,0.0,0.0,0.0,0.2376,0.326,0.4126,0.0,0.6058,0.6453,0.6239,0.6455,0.5311,0.3212,0.3371,0.1943,-0.0444,-0.0707,-0.2263,-0.4456,0.0,-0.6087,-0.7447,-0.6661,0.0,0.0,-0.7476,-0.6918,0.0,0.0,0.0,0.0,0.0,0.0,0.0,0.0,0.0,0.0,-0.1287,0.0,0.0,0.0,0.0,0.1848,0.0,0.0,0.0,0.0,0.1731,0.1731,0.1698,0.0,0.0,0.0,0.0,0.0,0.0,0.0,0.0,0.0,0.0,0.0,0.0,0.0,0.0,-1.1557,-1.195,-1.2532,-1.3563,-1.4125,-1.4514,-1.4694,-1.5292,-1.5476,-1.5185,-1.4787,-1.424,-1.3494,-1.295,-1.2482,-1.2017,-1.1769,-1.1789,-1.196,-1.1673,-1.145,-1.1303,-1.1303,-1.1059,-1.0688,-1.0996,-1.087,-1.0688,-2.6563,-2.6525,-2.6448,-2.6353,0.0,0.0,0.0,-2.2404,0.0,0.0,0.0,0.0,0.0,-2.2149,-2.1945,0.0,0.0,-1.9257,-1.6927,-1.4378,0.0,0.0,0.0,-0.4943,0.0,0.0,0.0,0.0,0.0,0.0,0.4166,0.5367,0.6147,0.6494,0.0,0.6064,0.0,0.0,0.0,0.0,0.0,-0.23,-0.3876,0.0,0.0,-0.6669,-0.6406,-0.682,0.0,-0.6807,-0.6402,-0.6043,-0.5484,-0.5188,-0.4964,-0.458,-0.4326,0.0,0.0,0.0,-0.3061,-0.1417,0.0,0.0,0.0,0.0,0.0,0.0,0.0,0.0,0.0,0.0,0.1431,0.1605,0.1036,0.0635,0.0,0.0,0.0,0.0,0.0,0.0,0.0,0.0,0.0,0.0,0.0,0.0,0.0,-1.2118,-1.2893,-1.3401,-1.3788,-1.4123,-1.4315,-1.44,-1.4664,-1.4985,-1.4171,-1.3751,-1.3629,-1.2692,-1.2076,-1.1687,-1.1528,-1.1339,-1.1129,-1.1062,-1.093,-1.068,-1.0258,-1.002,-0.9953,-1.0539,-1.0688,-1.0618,-2.6436,-2.6048,0.0,0.0,0.0,0.0,0.0,0.0,0.0,0.0,-2.2359,0.0,-2.3518,0.0,-2.219,0.0,-2.0993,-1.8965,-1.6414,-1.4482,0.0,-0.9494,-0.7339,0.0,0.0,0.0,0.0,0.0,0.0,0.3193,0.4079,0.5305,0.6167,0.6687,0.0,0.6546,0.5489,0.0,0.3986,0.0,0.0,-0.2515,0.0,0.0,-0.5397,0.0,0.0,-0.6215,-0.6562,-0.5976,-0.5732,-0.5573,-0.5038,-0.4775,-0.4641,-0.4513,-0.4098,-0.3607,-0.3185,-0.3042,0.0,0.0,-0.0994,0.0,0.04,0.0,0.0,0.0,0.0,0.0,0.0,0.0,0.0825,0.1019,0.0623,0.0314,0.0,-0.0948,0.0,0.0,0.0,0.0,0.0,0.0,0.0,0.0,-0.7386,0.0,0.0,0.0,-1.2803,-1.3335,-1.3689,-1.395,-1.4105,-1.399,-1.4103,-1.4318,-1.3489,-1.3118,-1.3165,-1.2357,-1.1791,-1.1436,-1.1326,-1.0974,-1.0508,-1.0554,-1.0364,-1.007,-0.9724,-0.9434,-0.9317,-0.9975,-1.0273,-1.0428,-2.6335,0.0,0.0,0.0,-2.4942,0.0,0.0,0.0,-2.3315,0.0,-2.322,-2.3227,-2.407,-2.2476,-2.1509,-2.175,-2.003,0.0,-1.5363,-1.4317,0.0,0.0,-0.8054,-0.6474,-0.4759,0.0,0.0,0.0,0.0,0.0,0.4694,0.5854,0.6558,0.6884,0.7532,0.0,0.5109,0.4721,0.3287,0.1089,-0.1309,-0.2969,-0.4072,-0.4741,0.0,-0.51,-0.5091,-0.5105,-0.5087,-0.5034,-0.4953,-0.4896,-0.4835,-0.4792,-0.472,-0.4485,-0.4159,-0.3724,-0.311,-0.2612,-0.2086,-0.1379,0.0,0.0,0.0,0.0,0.0274,0.0,0.0,0.0,0.0,0.0,0.0,-0.0052,-0.0054,-0.0251,-0.0806,0.0,0.0,0.0,0.0,0.0,0.0,0.0,-0.511,-0.7073,-0.7161,-0.8057,0.0,0.0,0.0,-1.3449,-1.3824,-1.4038,-1.4137,-1.4098,-1.383,-1.3335,-1.2784,-1.2461,-1.227,-1.1947,-1.1597,-1.1216,-1.1082,-1.0665,-1.0053,-1.0068,-0.9813,-0.9446,-0.9575,-0.924,-0.8816,-0.9205,-0.9718,-1.0142,-2.5783,-2.5701,-2.538,0.0,-2.3979,-2.3328,0.0,0.0,0.0,0.0,-2.3715,-2.3688,-2.4407,-2.2899,-2.1631,-2.125,-1.9244,0.0,0.0,0.0,0.0,-0.9728,-0.7874,-0.6233,-0.4887,-0.2645,0.0,-0.0235,0.0,0.0,0.4135,0.5529,0.675,0.0,0.0,0.0,0.6937,0.5704,0.3106,-0.026,-0.145,-0.2818,0.0,0.0,-0.5008,-0.5027,-0.5077,-0.5104,-0.509,-0.507,-0.504,-0.4972,-0.496,-0.467,-0.4414,-0.4692,-0.4001,-0.304,-0.2482,-0.1991,-0.1553,-0.1214,-0.0759,-0.0383,0.0,0.0,0.0,0.0,0.0,0.0,0.0,0.0,0.0,-0.0602,-0.0807,-0.13,0.0,0.0,0.0,-0.4252,0.0,0.0,0.0,0.0,-0.5744,-0.6219,-0.7136,-0.8474,0.0,0.0,0.0,-1.3299,-1.3714,-1.4094,-1.4481,-1.4285,-1.4047,-1.3825,-1.3242,-1.2669,-1.2202,-1.163,-1.1058,-1.0539,-1.0431,-0.9964,-0.9373,-0.9389,-0.9212,-0.8795,-0.836,-0.8102,-0.8098,-0.8896,-0.9144,-0.9174,-2.5748,0.0,0.0,-2.4437,0.0,0.0,-2.3788,0.0,0.0,-2.4318,-2.4025,0.0,-2.3638,-2.2303,-2.0946,-1.9831,-1.8247,0.0,-1.443,0.0,0.0,-0.9215,-0.7602,-0.608,-0.4721,-0.2904,0.0,-0.0137,0.0,0.0,0.4753,0.582,0.0,0.0,0.0,0.7815,0.687,0.4857,0.233,-0.0378,-0.1231,0.0,0.0,-0.4246,-0.4129,-0.3654,-0.3759,-0.4354,-0.5057,-0.4772,-0.4633,-0.4545,-0.4194,-0.3811,-0.3554,-0.3821,-0.3149,-0.2255,-0.1936,-0.1536,-0.1206,-0.1117,-0.0796,-0.0534,-0.0669,-0.0478,-0.0385,0.0,0.0,0.0,0.0,0.0,0.0,-0.1369,0.0,0.0,0.0,0.0,0.0,0.0,0.0,0.0,0.0,0.0,-0.6077,-0.6275,-0.7298,-0.8417,0.0,0.0,0.0,-1.257,-1.3435,-1.4015,-1.4257,-1.4333,-1.421,-1.3816,-1.3162,-1.2585,-1.2006,-1.1387,-1.0804,-1.0282,-0.9933,-0.9414,-0.8762,-0.8643,-0.8375,-0.7982,-0.757,-0.7438,-0.7483,-0.8052,-0.8445,-0.8749,-2.573,0.0,0.0,0.0,0.0,0.0,0.0,-2.4053,0.0,-2.4135,0.0,-2.3323,-2.2371,-2.1246,-1.9848,-1.8135,0.0,-1.5571,-1.3119,-1.2206,-1.0746,-0.8505,-0.7387,-0.6073,-0.4466,-0.3248,0.0,0.0,0.0,0.0,0.5709,0.0,0.0,0.0,0.0,0.0,0.0,0.3466,0.1627,0.0,-0.0635,-0.1576,-0.2495,-0.3162,-0.2706,-0.1713,-0.1832,-0.3009,-0.4391,-0.3807,-0.3643,-0.3581,-0.2858,-0.2396,-0.2117,-0.2097,-0.176,-0.1388,-0.1297,-0.1093,-0.094,-0.0971,-0.0802,-0.0702,-0.0966,-0.08,-0.074,-0.1274,-0.143,0.0,0.0,0.0,0.0,0.0,0.0,0.0,0.0,0.0,0.0,0.0,0.0,0.0,0.0,0.0,-0.6286,-0.68,-0.7431,0.0,0.0,0.0,0.0,0.0,-1.3103,0.0,-1.377,0.0,-1.4096,-1.3441,-1.2861,-1.2244,-1.1584,-1.1156,-1.0653,-1.0056,-0.9514,-0.8875,-0.8184,-0.7896,-0.7554,-0.7218,-0.7153,-0.7085,-0.7036,-0.7063,-0.7626,-0.8429,0.0,0.0,0.0,0.0,0.0,-2.3675,-2.381,-2.3888,-2.3679,-2.3224,-2.2929,-2.2391,-2.1573,-2.035,-1.9007,-1.7527,-1.6421,0.0,0.0,0.0,0.0,-0.8479,-0.758,-0.6313,-0.4509,-0.3399,-0.1892,0.0,0.0,0.0,0.5258,0.6449,0.0,0.0,0.0,0.0,0.575,0.4312,0.0,0.1076,0.0731,-0.0032,-0.1,-0.1295,-0.1065,-0.0594,-0.0668,-0.0927,-0.1199,-0.1021,-0.1257,-0.1572,-0.1266,-0.0422,0.0473,0.0582,0.0151,-0.0316,-0.0081,-0.0258,-0.0477,-0.0386,-0.0599,-0.0825,-0.0719,-0.0848,-0.1161,-0.1752,-0.2064,-0.2353,-0.2879,0.0,0.0,0.0,0.0,0.0,0.0,0.0,0.0,0.0,0.0,0.0,0.0,0.0,0.0,0.0,0.0,0.0,0.0,0.0,0.0,0.0,0.0,0.0,0.0,0.0,0.0,-1.2595,-1.25,-1.1739,-1.0487,-1.0666,-1.006,-0.8815,-0.8893,-0.8387,-0.7555,-0.7662,-0.7401,-0.7007,-0.7211,-0.709,-0.6836,-0.6839,-0.6916,-0.7091,0.0,0.0,0.0,0.0,0.0,0.0,0.0,-2.3069,0.0,-2.2052,-2.1553,-2.0839,-1.9733,-1.8796,-1.7731,-1.6497,-1.551,-1.4196,-1.2546,-1.1352,-0.997,-0.8221,-0.7115,0.0,-0.428,-0.3631,-0.2168,0.0164,0.0,0.0,0.5322,0.6348,0.0,0.8092,0.0,0.6957,0.0,0.0,0.0,0.1421,0.1045,0.0591,0.0101,-0.0173,0.0406,0.1348,0.1245,0.166,0.2048,0.0801,0.0156,-0.0041,0.037,0.0897,0.1326,0.1148,0.0645,0.0169,0.0191,-0.0078,-0.0355,-0.0362,-0.045,-0.0611,-0.086,-0.1121,-0.1482,-0.212,-0.273,-0.3323,-0.3918,-0.4311,0.0,0.0,0.0,0.0,0.0,0.0,0.0,0.0,0.0,0.0,0.0,0.0,0.0,0.0,0.0,0.0,0.0,0.0,0.0,0.0,0.0,0.0,0.0,0.0,0.0,-1.276,-1.2462,-1.161,-1.04,-1.0188,-0.9437,-0.8331,-0.8198,-0.7724,-0.7005,-0.6863,-0.6541,-0.6196,-0.643,-0.6359,-0.6187,-0.6435,-0.6317,-0.6207,0.0,-2.356,0.0,0.0,-2.2553,0.0,0.0,-2.1781,-2.1529,-2.0869,-2.0121,-1.9162,-1.792,-1.7304,-1.6533,-1.5344,-1.4542,-1.3456,-1.2022,-1.0562,-0.9228,-0.7929,-0.6684,-0.5401,-0.4085,-0.3746,-0.2299,0.0,0.0,0.0,0.0,0.0,0.0,0.0,0.0,0.0,0.0,0.0,0.2847,0.1828,0.1461,0.1353,0.1394,0.1187,0.2007,0.3238,0.3151,0.3819,0.4492,0.2511,0.1685,0.1567,0.2042,0.211,0.193,0.143,0.1074,0.0752,0.0329,0.0034,-0.02,-0.0411,-0.0404,-0.0493,-0.1072,-0.1441,-0.1847,-0.2574,-0.3425,-0.4264,-0.4953,-0.5279,0.0,0.0,0.0,0.0,0.0,0.0,0.0,0.0,0.0,0.0,0.0,0.0,0.0,0.0,0.0,0.0,0.0,0.0,0.0,0.0,0.0,0.0,-1.2691,0.0,-1.334,0.0,-1.2293,-1.1462,-1.0316,-0.9788,-0.8973,-0.8026,-0.7696,-0.7151,-0.652,-0.6028,-0.5631,-0.5387,-0.5596,-0.5592,-0.5489,-0.5791,-0.5727,-0.5493,0.0,0.0,0.0,0.0,0.0,0.0,0.0,-1.9767,-1.9274,-1.9856,-1.882,-1.7747,-1.7153,-1.6542,-1.5694,-1.4354,-1.3501,-1.259,-1.1477,-1.0095,-0.8873,-0.7847,-0.6645,-0.5443,-0.4309,-0.352,-0.2088,0.0,0.0,0.0,0.0,0.0,0.0,0.0,0.0,0.0,0.0,0.3419,0.2921,0.271,0.2896,0.3157,0.3457,0.367,0.4033,0.4438,0.443,0.4707,0.5013,0.472,0.4209,0.3715,0.3764,0.3612,0.3297,0.2703,0.2427,0.2042,0.087,0.0446,0.0237,-0.0219,-0.0582,-0.0892,-0.1152,-0.1683,-0.2385,-0.3235,-0.42,-0.4982,-0.5299,-0.5815,-0.6029,0.0,0.0,0.0,0.0,0.0,0.0,0.0,0.0,0.0,0.0,0.0,0.0,0.0,0.0,0.0,0.0,0.0,0.0,0.0,0.0,-1.1119,-1.1378,-1.2046,0.0,-1.1815,-1.1651,-1.0832,-0.95,-0.9569,-0.8839,-0.7571,-0.7576,-0.7019,-0.6015,-0.5418,-0.513,-0.5037,-0.5157,-0.5092,-0.4961,-0.5005,-0.4927,-0.4811,0.0,0.0,0.0,0.0,0.0,0.0,0.0,-1.8228,-1.7707,-1.8033,-1.8216,-1.7766,-1.6242,-1.5446,-1.4638,-1.3588,-1.2866,-1.1932,-1.0735,-0.9635,-0.8579,-0.7506,-0.6351,-0.5292,-0.4276,-0.3564,-0.2176,0.0,0.0,0.0,0.0,0.0,0.0,0.0,0.0,0.5279,0.4476,0.4031,0.3555,0.3121,0.3311,0.3578,0.3896,0.4041,0.4333,0.4669,0.4705,0.4882,0.508,0.4972,0.4735,0.4465,0.438,0.4097,0.3722,0.3437,0.3058,0.2584,0.1877,0.1317,0.0827,0.0413,-0.0156,-0.0711,-0.1108,-0.1912,-0.2799,-0.3633,-0.4659,-0.5488,-0.5723,-0.6117,-0.6366,0.0,0.0,0.0,0.0,0.0,0.0,0.0,0.0,0.0,0.0,0.0,0.0,0.0,0.0,0.0,0.0,0.0,0.0,-0.9112,0.0,-1.0199,-1.065,-1.0807,-1.0762,-1.0505,-1.0354,-0.9814,-0.8907,-0.8904,-0.817,-0.6925,-0.6484,-0.6042,-0.5606,-0.4979,-0.4698,-0.4562,-0.4521,-0.4363,-0.4203,-0.4396,-0.4427,-0.438,-2.1079,0.0,-2.0572,0.0,-1.8947,-1.8339,-1.7694,-1.7056,-1.6656,-1.6881,-1.726,-1.6871,-1.5345,-1.4608,-1.3827,-1.3011,-1.226,-1.1298,-1.0178,-0.9155,-0.8186,-0.7168,-0.6018,0.0,-0.4228,-0.3436,-0.2178,-0.0422,0.1103,0.0,0.0,0.0,0.0,0.0,0.5647,0.5149,0.4425,0.4182,0.3801,0.3378,0.3605,0.3884,0.4163,0.4336,0.4573,0.4823,0.4874,0.4976,0.5087,0.4962,0.4894,0.4794,0.4605,0.4289,0.397,0.3839,0.3463,0.2968,0.2525,0.1993,0.144,0.0911,0.0266,-0.0423,-0.1038,-0.1948,-0.2937,-0.3956,-0.4982,-0.5723,-0.5936,-0.6254,-0.6465,0.0,0.0,0.0,0.0,0.0,0.0,0.0,-0.6832,-0.7273,-0.7636,0.0,0.0,0.0,0.0,0.0,0.0,0.0,0.0,0.0,0.0,0.0,0.0,0.0,-0.9871,-0.9629,-0.9526,-0.9167,-0.8585,-0.8165,-0.7388,-0.6376,-0.5544,-0.5191,-0.5156,-0.4514,-0.4168,-0.4036,-0.3878,-0.3741,-0.3578,-0.3774,-0.3866,-0.389,-2.0681,-2.0069,-1.9353,-1.8803,-1.8023,-1.7281,-1.6609,-1.6111,-1.6084,-1.6766,-1.5533,-1.4563,-1.4691,-1.429,-1.3609,-1.2579,-1.1652,-1.0713,-0.9844,-0.8686,-0.7715,0.0,0.0,-0.4678,-0.4196,-0.3024,-0.1932,-0.0981,0.0,0.0,0.2751,0.0,0.0,0.4615,0.455,0.425,0.3786,0.3463,0.3378,0.3533,0.3996,0.4321,0.4531,0.4931,0.5096,0.5104,0.5098,0.5091,0.5088,0.5012,0.4959,0.4841,0.4505,0.4308,0.4137,0.3874,0.3654,0.3332,0.2602,0.2297,0.1995,0.1191,0.0535,-0.0112,-0.0924,-0.1732,-0.2746,-0.4272,-0.5127,-0.5659,-0.5874,-0.6218,-0.626,-0.5531,0.0,0.0,0.0,0.0,0.0,0.0,-0.6423,-0.694,-0.7548,0.0,0.0,0.0,0.0,0.0,0.0,0.0,0.0,-0.7321,-0.8856,0.0,-0.9324,-0.9777,-0.9823,-0.9517,-0.9435,-0.9131,-0.8561,-0.7441,-0.6592,-0.597,-0.5007,-0.4648,-0.4654,-0.4,-0.3633,-0.3477,-0.3285,-0.3214,-0.317,-0.3081,-0.3081,-0.328,-1.9283,-1.8983,-1.8572,-1.7839,-1.6892,-1.6225,-1.6197,-1.5826,-1.562,-1.5734,-1.5321,-1.4549,-1.3376,-1.2887,-1.2414,0.0,-1.1091,-1.0226,0.0,-0.8531,-0.761,-0.6574,-0.5704,-0.483,-0.3943,-0.3132,-0.2252,-0.1279,0.0,0.0,0.0,0.4299,0.481,0.4867,0.4508,0.4487,0.4651,0.3929,0.3767,0.4002,0.439,0.4638,0.4793,0.4972,0.5056,0.51,0.5094,0.5096,0.5105,0.5067,0.5029,0.4935,0.4738,0.4522,0.432,0.4244,0.4095,0.3889,0.3462,0.3084,0.265,0.1985,0.1196,0.0332,-0.0616,-0.2023,-0.3315,-0.4045,-0.4679,-0.5194,-0.544,-0.5786,-0.5979,-0.5841,0.0,0.0,0.0,0.0,0.0,0.0,0.0,-0.6847,0.0,-0.7912,0.0,0.0,0.0,0.0,0.0,0.0,0.0,0.0,-0.8232,0.0,-0.8485,-0.8409,-0.8205,-0.7857,-0.7745,-0.7588,-0.7353,-0.6482,-0.5928,-0.5598,-0.4604,-0.4193,-0.4105,-0.3377,-0.3085,-0.3062,-0.2711,-0.2664,-0.2782,-0.2527,-0.2575,-0.2732,-1.8554,-1.8356,-1.8035,-1.7444,-1.6533,-1.5882,-1.5891,-1.5441,-1.5061,-1.4944,-1.4746,-1.396,-1.2282,-1.1598,0.0,-1.1658,-1.0864,0.0,-0.8882,-0.8351,-0.7511,-0.6325,-0.5652,-0.4871,-0.3946,0.0,0.0,-0.1369,-0.0182,0.1269,0.2943,0.3548,0.4086,0.4539,0.4169,0.4302,0.4753,0.4057,0.3931,0.4232,0.4571,0.4789,0.4907,0.501,0.5058,0.5094,0.5095,0.531,0.5592,0.5582,0.5743,0.5876,0.5453,0.5143,0.4862,0.4503,0.4243,0.4033,0.3827,0.3513,0.3129,0.2589,0.1789,0.0814,-0.044,-0.1959,-0.3189,-0.3584,-0.4252,-0.4855,-0.5098,-0.5488,-0.5731,-0.5667,0.0,-0.5459,0.0,0.0,0.0,0.0,0.0,0.0,0.0,-0.7452,0.0,0.0,0.0,0.0,0.0,0.0,0.0,-0.6108,-0.7433,0.0,-0.724,-0.6984,-0.6704,-0.6387,-0.6348,-0.6287,-0.6136,-0.547,-0.5026,-0.4753,-0.3915,-0.3556,-0.3545,-0.2944,-0.272,-0.273,-0.2378,-0.2297,-0.2393,-0.2184,-0.2117,-0.2194,-1.8322,-1.7987,0.0,0.0,-1.6637,0.0,-1.567,-1.4983,-1.4446,-1.4515,-1.3897,-1.2877,-1.1481,-1.0466,-1.0407,-1.1685,0.0,0.0,0.0,-0.8092,-0.7393,-0.621,-0.5521,0.0,-0.4087,-0.3187,-0.2248,-0.1254,-0.0,0.1106,0.2035,0.2499,0.3123,0.3818,0.3598,0.3825,0.4354,0.391,0.3925,0.4269,0.4589,0.4798,0.4927,0.514,0.5212,0.5191,0.5254,0.5809,0.6493,0.6498,0.6942,0.7346,0.6469,0.6052,0.5682,0.4725,0.422,0.3935,0.381,0.3686,0.3494,0.3074,0.2315,0.125,-0.0396,-0.1577,-0.2443,-0.2933,-0.3805,-0.4549,-0.4785,-0.5242,-0.548,-0.5127,-0.5136,-0.4963,-0.424,0.0,0.0,0.0,0.0,0.0,0.0,-0.6427,-0.6493,0.0,0.0,0.0,0.0,0.0,-0.56,-0.5077,-0.6518,-0.682,-0.5815,-0.566,-0.5432,-0.5126,-0.5223,-0.5163,-0.4965,-0.4451,-0.3959,-0.3521,-0.2984,-0.2878,-0.3018,-0.258,-0.2418,-0.2393,-0.2133,-0.2041,-0.2001,-0.1874,-0.1712,-0.16,0.0,0.0,-1.6544,-1.6006,-1.5326,-1.4851,-1.479,-1.4385,-1.4198,-1.4446,-1.3438,-1.2303,-1.1379,-1.0124,-0.9377,-0.9485,-0.9386,-0.8763,-0.7443,-0.7224,-0.6687,-0.557,-0.5103,-0.452,-0.3649,-0.3208,-0.224,-0.0688,0.0282,0.126,0.2228,0.2704,0.3361,0.4095,0.3738,0.416,0.5095,0.4379,0.4279,0.4599,0.4776,0.49,0.5082,0.6036,0.6268,0.6185,0.6855,0.722,0.7389,0.7395,0.7471,0.7404,0.6436,0.6322,0.6342,0.5199,0.4719,0.4568,0.449,0.4484,0.4336,0.3674,0.2481,0.1158,-0.0066,-0.0928,-0.1654,-0.2293,-0.2816,-0.3355,-0.4083,-0.4392,-0.458,-0.4639,-0.4362,-0.4024,-0.3639,0.0,0.0,0.0,-0.4504,-0.5005,-0.5305,-0.5479,-0.534,0.0,0.0,0.0,0.0,0.0,-0.4393,-0.4707,-0.5717,-0.6134,-0.5874,-0.5536,-0.5029,-0.4357,-0.4086,-0.3921,-0.3864,-0.3438,-0.3234,-0.3189,-0.2593,-0.2405,-0.2441,-0.1839,-0.1678,-0.1778,-0.1354,-0.1263,-0.1323,-0.1171,-0.109,-0.1016,-1.6949,-1.6602,-1.6077,-1.5137,-1.4734,-1.4515,-1.4515,-1.4327,-1.3997,-1.3497,-1.1901,-1.0822,-1.0762,-0.9727,-0.8936,-0.8569,-0.8554,-0.8039,-0.682,-0.7014,-0.6706,-0.5476,-0.5207,-0.4657,-0.3807,-0.32,-0.211,-0.0495,0.0164,0.0973,0.1949,0.2479,0.2981,0.3417,0.3453,0.378,0.4355,0.5145,0.6108,0.7073,0.6596,0.6457,0.66,0.7003,0.7097,0.7053,0.7534,0.7949,0.8288,0.8297,0.8517,0.8614,0.7605,0.7388,0.7319,0.641,0.5723,0.5208,0.4985,0.4949,0.4769,0.3838,0.2773,0.1657,0.0597,-0.0199,-0.0909,-0.1683,-0.225,-0.2847,-0.3619,-0.3935,-0.4017,-0.3885,-0.3624,-0.326,-0.2778,-0.2779,0.0,-0.3167,-0.3844,-0.4235,-0.4109,-0.4304,-0.4107,-0.3348,0.0,0.0,-0.1925,-0.2313,-0.2896,-0.3618,-0.445,-0.4752,-0.4433,-0.4102,-0.3704,-0.3233,-0.291,-0.2728,-0.2678,-0.2443,-0.2359,-0.2347,-0.1998,-0.1904,-0.194,-0.1276,-0.1177,-0.131,-0.084,-0.073,-0.0839,-0.0839,-0.0649,-0.0365,-1.7245,-1.6549,-1.5511,-1.4313,-1.4148,-1.4148,-1.4148,-1.4148,-1.3653,-1.2259,-1.0463,-0.9528,-1.0165,-0.9522,-0.8925,-0.8591,-0.8303,-0.7645,-0.6563,-0.7059,-0.6838,-0.5603,-0.5358,-0.4873,-0.4107,-0.3114,-0.1943,-0.0555,-0.0118,0.0578,0.1485,0.2117,0.2502,0.2672,0.3287,0.3517,0.3602,0.5834,0.7903,0.9603,0.8805,0.8442,0.8367,0.8077,0.7937,0.7904,0.8026,0.8551,0.9199,0.9175,0.9641,1.0017,0.9015,0.8515,0.8196,0.7674,0.6797,0.5925,0.5559,0.5363,0.502,0.3938,0.3219,0.2476,0.14,0.0596,-0.0178,-0.1021,-0.1738,-0.2426,-0.3081,-0.3411,-0.3391,-0.2878,-0.274,-0.2437,-0.1757,0.0,-0.2257,-0.2288,-0.3048,-0.3311,-0.2703,-0.2941,-0.2791,-0.2004,-0.1744,0.0,0.0,-0.1027,-0.1319,-0.2025,-0.2857,-0.2991,-0.2359,-0.2122,-0.1981,-0.1883,-0.1738,-0.1617,-0.1538,-0.1549,-0.149,-0.1408,-0.1352,-0.137,-0.1442,-0.0874,-0.0773,-0.0908,-0.0504,-0.0346,-0.0396,-0.0576,-0.0266,0.0205,-1.7114,-1.5237,-1.3221,-1.2605,-1.2452,-1.2452,-1.2452,-1.2452,-1.236,-1.2104,-1.1214,-1.0668,-1.0828,-0.994,-0.9305,-0.927,-0.8617,-0.7829,-0.7061,-0.6618,-0.6112,-0.5449,-0.4875,-0.4383,-0.4011,-0.281,-0.1713,-0.0743,-0.0192,0.0511,0.1338,0.2133,0.2793,0.3383,0.4323,0.5027,0.554,0.5741,0.6744,0.8315,0.932,0.9196,0.849,0.9367,0.9328,0.8888,0.9569,0.994,1.0094,1.0039,1.0101,1.0028,0.9017,0.8507,0.8211,0.7729,0.7259,0.6859,0.6691,0.6153,0.5449,0.4704,0.3984,0.3191,0.2167,0.1322,0.0558,-0.0089,-0.0579,-0.1086,-0.1701,-0.1927,-0.1894,-0.1484,-0.131,-0.1061,0.0,0.0,-0.1026,-0.0927,-0.1525,-0.182,-0.1498,-0.1421,-0.1352,-0.1259,-0.071,-0.0304,-0.0125,-0.0052,0.0,0.0031,-0.0914,-0.1207,-0.0761,-0.071,-0.0599,-0.0436,-0.0574,-0.0689,-0.0781,-0.0824,-0.0916,-0.0983,-0.0929,-0.0892,-0.0907,-0.0571,-0.037,-0.0235,-0.0101,0.0034,0.017,0.0068,0.0172,0.0424,-1.5263,-1.4022,-1.2725,-1.2175,-1.2323,-1.2529,-1.2529,-1.2529,-1.231,-1.1762,-1.1231,-1.0775,-1.0561,-0.9734,-0.908,-0.8806,-0.8375,-0.7757,-0.6992,-0.6818,-0.6302,-0.5293,-0.4967,-0.4393,-0.3432,-0.2523,-0.1555,-0.0595,0.0046,0.0865,0.1811,0.2563,0.3189,0.3708,0.4824,0.5716,0.639,0.6582,0.7467,0.8765,0.9492,0.9561,0.9282,0.9874,0.9889,0.9638,1.0044,1.0217,1.0242,1.0208,1.0191,1.0113,0.9562,0.9228,0.8931,0.8521,0.7941,0.7368,0.7091,0.6583,0.5963,0.5293,0.455,0.3784,0.3062,0.2346,0.1642,0.1032,0.0657,0.0218,-0.0413,-0.0605,-0.0583,-0.0283,-0.0211,0.0,0.0,-0.0043,-0.0199,-0.0036,-0.0507,-0.0712,-0.0372,-0.0381,-0.035,-0.0191,0.0202,0.0572,0.089,0.1106,0.1299,0.1462,0.0429,0.0124,0.0671,0.049,0.0499,0.0655,0.0377,0.0178,0.0045,-0.0253,-0.0352,-0.0309,-0.0465,-0.0525,-0.0504,-0.0101,0.0134,0.0202,0.0403,0.0538,0.0605,0.037,0.0244,0.0184,-1.3716,-1.3296,-1.292,-1.2382,-1.2627,-1.2744,-1.2344,-1.2239,-1.1859,-1.1022,-1.0711,-1.0413,-1.0076,-0.9412,-0.8782,-0.8295,-0.8079,-0.7637,-0.6822,-0.6913,-0.6449,-0.5227,-0.4928,-0.4252,-0.311,-0.2286,-0.1361,-0.0344,0.0314,0.115,0.2129,0.2989,0.3602,0.407,0.5308,0.6284,0.7,0.7605,0.8433,0.9376,0.9534,0.9715,0.9918,1.003,1.0089,1.0102,1.0161,1.019,1.019,1.0194,1.0195,1.0176,1.0067,0.9734,0.937,0.9207,0.8545,0.7753,0.73,0.6917,0.6519,0.5904,0.5143,0.442,0.3978,0.3268,0.2572,0.2088,0.1748,0.1359,0.0751,0.0624,0.0669,0.0893,0.0,0.0,0.0,0.0836,0.0677,0.0871,0.0546,0.0447,0.0759,0.0638,0.0644,0.0885,0.1123,0.1418,0.1785,0.2113,0.2433,0.2756,0.1806,0.1536,0.2044,0.1876,0.179,0.1786,0.1408,0.1118,0.085,0.0389,0.0222,0.0345,0.0032,-0.0133,-0.0101,0.037,0.0571,0.0638,0.0874,0.0976,0.0974,0.0639,0.0284,0.0,-1.3763,-1.3573,-1.3382,-1.292,-1.2881,-1.2344,-1.0723,-1.017,-0.9919,-0.9815,-0.9636,-0.9591,-0.9896,-0.9371,-0.8751,-0.818,-0.8002,-0.7555,-0.6661,-0.6503,-0.6153,-0.5404,-0.4264,-0.3635,-0.364,-0.2187,-0.1028,-0.0224,0.046,0.1148,0.1851,0.3093,0.4004,0.4697,0.6082,0.7089,0.7759,0.8367,0.8853,0.9231,0.9506,0.9717,0.9913,0.9976,1.0059,1.0094,1.0105,1.0141,1.0205,1.02,1.0194,1.019,1.0111,0.9486,0.8856,0.9265,0.8898,0.8209,0.7547,0.7272,0.7037,0.6621,0.587,0.5133,0.4788,0.3864,0.3025,0.2844,0.2492,0.2125,0.1765,0.1732,0.1869,0.2129,0.0,0.0,0.2385,0.212,0.192,0.2055,0.1938,0.1876,0.1967,0.1896,0.1853,0.1806,0.2111,0.2328,0.2433,0.27,0.3239,0.4118,0.3648,0.337,0.3355,0.3697,0.3659,0.3239,0.2773,0.2256,0.1692,0.1158,0.0901,0.0827,0.0556,0.0415,0.037,0.0672,0.0973,0.1238,0.111,0.1209,0.1306,0.0907,0.0439,0.007,-1.3125,-1.3319,-1.3387,-1.266,-1.2969,-1.2645,-1.0626,-1.0176,-0.998,-0.9723,-0.9723,-0.9597,-0.9261,-0.8915,-0.8341,-0.7493,-0.7268,-0.688,-0.621,-0.6109,-0.5701,-0.4823,-0.412,-0.3413,-0.2665,-0.1616,-0.0732,-0.0023,0.0833,0.1717,0.2682,0.3412,0.435,0.5412,0.6244,0.7012,0.7709,0.8138,0.8636,0.9152,0.9341,0.9552,0.9786,0.9942,1.0024,1.0039,1.0095,1.0138,1.0189,1.0205,1.0194,1.0194,1.0161,0.9824,0.9418,0.9312,0.9012,0.8611,0.8102,0.7709,0.7332,0.6838,0.631,0.5839,0.5505,0.4924,0.4424,0.4236,0.3844,0.3433,0.3105,0.2885,0.2794,0.2842,0.0,0.2692,0.2996,0.2933,0.2914,0.306,0.2988,0.2868,0.2742,0.2619,0.2523,0.2454,0.2693,0.3142,0.3822,0.4396,0.4851,0.5159,0.5122,0.4981,0.475,0.4648,0.4407,0.4019,0.355,0.3067,0.2592,0.2266,0.2047,0.1929,0.1719,0.1476,0.1208,0.141,0.1609,0.1778,0.1637,0.1707,0.1873,0.1807,0.1878,0.2039,-1.2451,-1.2552,-1.2663,-1.1996,-1.2358,-1.2218,-1.0656,-1.0361,-1.0205,-0.9872,-0.9841,-0.9612,-0.8982,-0.8642,-0.8072,-0.7102,-0.6828,-0.6445,-0.5826,-0.5672,-0.5263,-0.449,-0.3831,-0.3073,-0.2259,-0.126,-0.0329,0.0512,0.1284,0.219,0.321,0.3797,0.4661,0.5767,0.6335,0.6959,0.7591,0.8007,0.855,0.9119,0.9275,0.9489,0.9757,0.9882,0.9963,1.0015,1.0054,1.0124,1.0202,1.0209,1.0194,1.0203,1.0207,1.0055,0.98,0.9437,0.9152,0.8891,0.8583,0.8171,0.7709,0.7098,0.6676,0.63,0.5975,0.5574,0.5224,0.5098,0.4747,0.4412,0.4187,0.3881,0.3661,0.3647,0.3437,0.3382,0.3647,0.3681,0.375,0.3922,0.4003,0.3953,0.3774,0.3542,0.3385,0.3337,0.3555,0.412,0.5118,0.5675,0.6,0.6068,0.6131,0.6137,0.6099,0.5593,0.5116,0.4641,0.4287,0.3901,0.3527,0.3252,0.305,0.2974,0.2726,0.2394,0.204,0.2175,0.2308,0.2411,0.2232,0.2309,0.2474,0.2505,0.2896,0.3483,-1.185,-1.1346,-1.1147,-1.0919,-1.0891,-1.0843,-1.0621,-1.0428,-1.0244,-1.0118,-0.9862,-0.9554,-0.9217,-0.8665,-0.7951,-0.716,-0.6858,-0.6355,-0.554,-0.5119,-0.4788,-0.4602,-0.3234,-0.2598,-0.2784,-0.121,0.02,0.1388,0.1807,0.2421,0.3231,0.424,0.502,0.5641,0.6451,0.7053,0.7547,0.8147,0.8674,0.9114,0.933,0.9568,0.9808,0.9793,0.9887,0.9996,1.0011,1.0094,1.0194,1.0198,1.0191,1.0193,1.0198,1.0027,0.9775,0.964,0.9368,0.9068,0.8936,0.8651,0.8222,0.7486,0.6953,0.6528,0.6171,0.5638,0.5204,0.5204,0.5059,0.4904,0.4904,0.469,0.4532,0.4589,0.422,0.4045,0.4446,0.4389,0.4409,0.4682,0.4995,0.5215,0.5209,0.4792,0.4514,0.4519,0.4839,0.5369,0.6163,0.6288,0.65,0.6887,0.6646,0.68,0.7407,0.6664,0.5943,0.5204,0.5078,0.482,0.4498,0.4024,0.3811,0.3814,0.3543,0.3141,0.2732,0.2867,0.3003,0.3072,0.2871,0.2881,0.2986,0.2789,0.3194,0.3968,-1.2609,-1.1994,-1.1501,-1.1341,-1.1099,-1.0843,-1.0679,-1.0554,-1.0322,-0.999,-0.9657,-0.9133,-0.8429,-0.7815,-0.7153,-0.6393,-0.6169,-0.5812,-0.5246,-0.4666,-0.4285,-0.4183,-0.3176,-0.2393,-0.1834,-0.0709,0.0222,0.0914,0.1774,0.2666,0.3577,0.4387,0.5278,0.6177,0.6702,0.7223,0.7738,0.8156,0.8594,0.9043,0.9294,0.9532,0.975,0.9838,0.9918,1.0003,1.0001,1.0094,1.0197,1.0193,1.0231,1.0259,1.0105,0.9968,0.9838,0.9658,0.9504,0.9304,0.8928,0.8728,0.8448,0.7753,0.741,0.7112,0.6642,0.6266,0.6004,0.5918,0.5744,0.5581,0.5473,0.516,0.4934,0.4943,0.4798,0.4768,0.502,0.5156,0.5299,0.5515,0.5622,0.5718,0.5759,0.5633,0.5615,0.575,0.6594,0.7147,0.7238,0.7725,0.7918,0.7755,0.7485,0.7373,0.7407,0.6861,0.6318,0.5841,0.5563,0.5305,0.5137,0.4942,0.4884,0.4922,0.484,0.4414,0.3746,0.3746,0.3719,0.3644,0.3334,0.3399,0.3602,0.3445,0.3687,0.4064,-1.271,-1.221,-1.1785,-1.1527,-1.1287,-1.1044,-1.0881,-1.0679,-1.0379,-0.9839,-0.9432,-0.8903,-0.8035,-0.7442,-0.6877,-0.6313,-0.59,-0.5491,-0.5074,-0.4377,-0.3851,-0.3542,-0.2546,-0.1734,-0.1202,-0.0299,0.0534,0.1292,0.2267,0.3147,0.395,0.4818,0.5687,0.6541,0.6966,0.7471,0.8008,0.83,0.8688,0.9132,0.9321,0.9532,0.975,0.9825,0.9913,0.9971,0.9996,1.0067,1.0166,1.0198,1.0233,1.023,1.0055,0.9968,0.9912,0.9733,0.9617,0.9472,0.9134,0.8938,0.8728,0.8193,0.7753,0.7377,0.7009,0.6693,0.6483,0.6448,0.6345,0.6244,0.6183,0.5906,0.5682,0.5624,0.5558,0.5558,0.572,0.5884,0.6046,0.623,0.6369,0.6464,0.6515,0.6434,0.6511,0.6794,0.7503,0.7987,0.813,0.8521,0.8575,0.8243,0.7982,0.7768,0.7591,0.7205,0.6731,0.6177,0.5925,0.5807,0.5808,0.5717,0.5729,0.5789,0.5789,0.532,0.4558,0.452,0.4403,0.4242,0.4059,0.4122,0.4289,0.4137,0.4249,0.4451,-1.2412,-1.2174,-1.2004,-1.1623,-1.1459,-1.1346,-1.1158,-1.0791,-1.0296,-0.9678,-0.9206,-0.8658,-0.7921,-0.7332,-0.6901,-0.6646,-0.5852,-0.523,-0.4884,-0.4093,-0.3357,-0.2728,-0.1507,-0.0824,-0.0769,0.0072,0.109,0.2324,0.3054,0.3762,0.4404,0.544,0.6213,0.6752,0.7225,0.7753,0.8293,0.8518,0.8863,0.9293,0.9367,0.9605,0.9886,0.9908,0.9987,1.0125,1.0209,1.0223,1.0199,1.0208,1.0195,1.0182,1.0042,1.0001,0.9971,0.9838,0.971,0.9589,0.9447,0.9255,0.905,0.871,0.8057,0.7472,0.7346,0.6993,0.6723,0.6824,0.6858,0.6887,0.6936,0.6787,0.6613,0.6475,0.6411,0.6387,0.6438,0.6579,0.6726,0.685,0.7157,0.7355,0.7388,0.7227,0.7303,0.7681,0.7822,0.8176,0.8795,0.8818,0.8708,0.8435,0.8227,0.8063,0.7911,0.7723,0.7223,0.6438,0.6302,0.6341,0.6538,0.645,0.6439,0.6474,0.6474,0.5975,0.5194,0.5163,0.5049,0.4836,0.4893,0.4929,0.4947,0.4828,0.4875,0.5009,-1.2532,-1.2365,-1.2258,-1.2004,-1.1712,-1.1415,-1.1292,-1.0493,-0.98,-0.9493,-0.8526,-0.7736,-0.7399,-0.6714,-0.6222,-0.6,-0.4974,-0.4167,-0.3766,-0.2901,-0.2239,-0.1867,-0.0952,-0.0178,0.0329,0.0953,0.1902,0.3223,0.3494,0.4123,0.5095,0.5749,0.6399,0.7036,0.7453,0.7826,0.8176,0.8579,0.8908,0.9164,0.9394,0.9922,1.0588,1.0708,1.1165,1.1798,1.1926,1.1558,1.0961,1.0452,1.0244,1.0183,1.0106,1.0039,0.9984,0.9838,0.9786,0.9721,0.9524,0.9367,0.9196,0.8897,0.8555,0.8142,0.7651,0.7456,0.7332,0.7155,0.7282,0.7392,0.7296,0.7166,0.7036,0.6894,0.6947,0.6934,0.6739,0.7057,0.7338,0.7425,0.7577,0.7766,0.7991,0.8157,0.8338,0.8538,0.8659,0.8829,0.9026,0.8996,0.8863,0.8636,0.8488,0.8269,0.7982,0.8348,0.8194,0.7546,0.7256,0.7266,0.7582,0.7404,0.7224,0.7017,0.7017,0.6587,0.5875,0.5703,0.5467,0.5183,0.5221,0.5282,0.5357,0.5347,0.5293,0.5246,-1.2567,-1.2401,-1.2222,-1.1979,-1.1402,-1.0912,-1.072,-0.9868,-0.9018,-0.8507,-0.7796,-0.7187,-0.6754,-0.6207,-0.5689,-0.5219,-0.4456,-0.376,-0.326,-0.2659,-0.2008,-0.1246,-0.0217,0.0643,0.1307,0.2035,0.2757,0.3494,0.4022,0.4712,0.5536,0.6088,0.6651,0.7262,0.7529,0.7869,0.8296,0.9039,0.9504,0.9774,1.0408,1.0958,1.1434,1.1523,1.1851,1.2261,1.2444,1.2031,1.1272,1.0544,1.0264,1.0191,1.016,1.0106,1.0039,0.9917,0.9862,0.9825,0.9673,0.9489,0.9313,0.9129,0.8962,0.8663,0.808,0.7882,0.7781,0.762,0.7709,0.7783,0.762,0.7497,0.7403,0.7298,0.742,0.7498,0.7399,0.7664,0.7908,0.7964,0.8088,0.8227,0.8325,0.853,0.8689,0.8749,0.8874,0.8979,0.906,0.9018,0.8919,0.8748,0.8657,0.8467,0.8203,0.8697,0.8859,0.8651,0.8181,0.8063,0.8225,0.8013,0.7818,0.7637,0.7637,0.7198,0.6496,0.6176,0.5842,0.5547,0.5745,0.5832,0.5864,0.5959,0.5815,0.5652,-1.2615,-1.2354,-1.2079,-1.1696,-1.0945,-1.028,-0.994,-0.9106,-0.8274,-0.7534,-0.7195,-0.6787,-0.6207,-0.5696,-0.5118,-0.4375,-0.396,-0.3415,-0.2709,-0.2342,-0.1645,-0.0493,0.0659,0.1555,0.2203,0.3066,0.3578,0.3667,0.4534,0.5309,0.6038,0.6455,0.6964,0.7531,0.778,0.8162,0.8679,0.9777,1.0412,1.0702,1.1535,1.2051,1.2297,1.2354,1.2484,1.2675,1.2844,1.2395,1.1571,1.0624,1.0251,1.0219,1.0209,1.0166,1.0094,1.0033,0.9976,0.9893,0.9838,0.9625,0.9421,0.934,0.9273,0.9075,0.8575,0.8364,0.8243,0.8119,0.8135,0.8121,0.7941,0.7916,0.787,0.7739,0.796,0.8121,0.808,0.8271,0.8422,0.8443,0.8652,0.8791,0.8724,0.8846,0.8902,0.8914,0.8925,0.8964,0.9024,0.9028,0.8974,0.884,0.8764,0.8682,0.8591,0.9062,0.9438,0.97,0.9247,0.8976,0.8801,0.8616,0.8424,0.8238,0.8153,0.7705,0.6987,0.6521,0.6153,0.5972,0.6307,0.6403,0.6338,0.6486,0.6355,0.6108,-1.2709,-1.2365,-1.1868,-1.1166,-1.0648,-1.0116,-0.9474,-0.8503,-0.7797,-0.7678,-0.6777,-0.6106,-0.5952,-0.5118,-0.4328,-0.3686,-0.296,-0.2175,-0.1315,-0.0486,0.0278,0.0979,0.1835,0.255,0.3122,0.3695,0.4131,0.4364,0.4895,0.5764,0.6928,0.688,0.7267,0.8041,0.8758,0.9203,0.9527,1.0766,1.1381,1.1546,1.1736,1.2307,1.3051,1.3131,1.3696,1.4457,1.4538,1.3728,1.2384,1.0834,1.0293,1.0283,1.0215,1.0189,1.0166,1.0117,1.0048,0.9965,0.9899,0.9731,0.9542,0.9421,0.9339,0.9248,0.9115,0.9007,0.8883,0.858,0.8481,0.8431,0.8409,0.8636,0.8695,0.8285,0.8714,0.8942,0.8504,0.8663,0.8789,0.8667,0.9246,0.9627,0.9614,0.9696,0.9735,0.9727,0.9327,0.9113,0.9158,0.9168,0.9109,0.8979,0.8914,0.9027,0.9356,0.9876,1.0279,1.0545,1.0749,1.0461,0.9703,0.9523,0.9207,0.8855,0.8404,0.7792,0.7136,0.6665,0.646,0.644,0.665,0.6724,0.6731,0.6678,0.6526,0.6397,-1.2473,-1.1883,-1.1268,-1.0812,-0.9859,-0.9014,-0.8544,-0.7684,-0.6995,-0.6775,-0.6301,-0.5835,-0.539,-0.4419,-0.3488,-0.2727,-0.2386,-0.1781,-0.0843,0.0134,0.1028,0.1759,0.2637,0.3313,0.3744,0.4272,0.472,0.5059,0.5382,0.6196,0.7503,0.7584,0.816,0.9125,0.967,1.0074,1.0388,1.161,1.22,1.2368,1.2956,1.3443,1.3811,1.3881,1.4246,1.4643,1.4384,1.3658,1.2602,1.1376,1.0664,1.0284,1.026,1.0266,1.0241,1.018,1.0079,0.9997,0.9965,0.9838,0.9691,0.9601,0.9542,0.9516,0.9486,0.9453,0.935,0.8997,0.8846,0.8736,0.8628,0.9038,0.9189,0.8568,0.9087,0.9541,0.9402,0.9491,0.9553,0.9494,1.017,1.043,0.9902,1.0386,1.0548,1.0046,1.032,1.03,0.9893,0.9837,0.9776,0.968,0.9202,0.9215,0.9782,1.0267,1.0713,1.1093,1.1398,1.115,1.0398,1.0135,0.9764,0.9381,0.9209,0.8417,0.7196,0.6966,0.6949,0.7064,0.7099,0.7175,0.7176,0.7017,0.6872,0.6699]},{"header":{"parameterUnit":"m.s-1","parameterCategory":1,"la1":30.6,"la2":28.766,"lo1":-90.7593,"lo2":-88.6598,"dy":0.0162,"dx":0.0183,"nx":116,"ny":114,"refTime":"2023-05-20T00:00:00:Z","depth":0,"parameterNumber":3,"parameterNumberName":"V-component_of_WINDS"},"data":[0.0,0.0,0.0,0.0,0.0,0.0,0.0,0.0,0.0,0.0,0.0,0.0,0.0,0.0,0.0,0.0,0.0,0.0,0.0,0.0,0.0,0.0,0.0,0.0,0.0,0.0,0.0,0.0,0.0,0.0,0.0,0.0,0.0,0.0,0.0,0.0,0.0,0.0,0.0,0.0,0.0,0.0,0.0,0.0,0.0,0.0,0.0,0.0,0.0,0.0,0.0,0.0,0.0,0.0,0.0,0.0,0.0,0.0,0.0,0.0,0.0,0.0,0.0,0.0,0.0,0.0,0.0,0.0,0.0,0.0,0.0,0.0,0.0,0.0,0.0,0.0,0.0,0.0,0.0,0.0,0.0,0.0,0.0,0.0,0.0,0.0,0.0,0.0,0.0,0.0,0.0,0.0,0.0,0.0,0.0,0.0,0.0,0.0,0.0,0.0,0.0,0.0,0.0,0.0,0.0,0.0,0.0,0.0,0.0,0.0,0.0,0.0,0.0,0.0,0.0,0.0,0.0,0.0,0.0,0.0,0.0,0.0,0.0,0.0,0.0,0.0,0.0,0.0,0.0,0.0,0.0,0.0,0.0,0.0,0.0,0.0,0.0,0.0,0.0,0.0,0.0,0.0,0.0,0.0,0.0,0.0,0.0,0.0,0.0,0.0,0.0,0.0,0.0,0.0,0.0,0.0,0.0,0.0,0.0,0.0,0.0,0.0,0.0,0.0,0.0,0.0,0.0,0.0,0.0,0.0,0.0,0.0,0.0,0.0,0.0,0.0,0.0,0.0,0.0,0.0,0.0,0.0,0.0,0.0,0.0,0.0,0.0,0.0,0.0,0.0,0.0,0.0,0.0,0.0,0.0,0.0,0.0,0.0,0.0,0.0,0.0,0.0,0.0,0.0,0.0,0.0,0.0,0.0,0.0,0.0,0.0,0.0,0.0,0.0,0.0,0.0,0.0,0.0,0.0,0.0,0.0,0.0,0.0,0.0,0.0,0.0,0.0,0.0,0.0,0.0,0.0,0.0,0.0,0.0,0.0,0.0,0.0,0.0,0.0,0.0,0.0,0.0,0.0,0.0,0.0,0.0,0.0,0.0,0.0,0.0,0.0,0.0,0.0,0.0,0.0,0.0,0.0,0.0,0.0,0.0,0.0,0.0,0.0,0.0,0.0,0.0,0.0,0.0,0.0,0.0,0.0,0.0,0.0,0.0,0.0,0.0,0.0,0.0,0.0,0.0,0.0,0.0,0.0,0.0,0.0,0.0,0.0,0.0,0.0,0.0,0.0,0.0,0.0,0.0,0.0,0.0,0.0,0.0,0.0,0.0,0.0,0.0,0.0,0.0,0.0,0.0,0.0,0.0,0.0,0.0,0.0,0.0,0.0,0.0,0.0,0.0,0.0,0.0,0.0,0.0,0.0,0.0,0.0,0.0,0.0,0.0,0.0,0.0,0.0,0.0,0.0,0.0,0.0,0.0,0.0,0.0,0.0,0.0,0.0,0.0,0.0,0.0,0.0,0.0,0.0,0.0,0.0,0.0,0.0,0.0,0.0,0.0,0.0,0.0,0.0,0.0,0.0,0.0,0.0,0.0,0.0,0.0,0.0,0.0,0.0,0.0,0.0,0.0,0.0,0.0,0.0,0.0,0.0,0.0,0.0,0.0,0.0,0.0,0.0,0.0,0.0,0.0,0.0,0.0,0.0,0.0,0.0,0.0,0.0,0.0,0.0,0.0,0.0,0.0,0.0,0.0,0.0,0.0,0.0,0.0,0.0,0.0,0.0,0.0,0.0,0.0,0.0,0.0,0.0,0.0,0.0,0.0,0.0,0.0,0.0,0.0,0.0,0.0,0.0,0.0,0.0,0.0,0.0,0.0,0.0,0.0,0.0,0.0,0.0,0.0,0.0,0.0,0.0,0.0,0.0,0.0,0.0,0.0,0.0,0.0,0.0,0.0,0.0,0.0,0.0,0.0,0.0,0.0,0.0,0.0,0.0,0.0,0.0,0.0,0.0,0.0,0.0,0.0,0.0,0.0,0.0,0.0,0.0,0.0,0.0,0.0,0.0,0.0,0.0,0.0,0.0,0.0,0.0,0.0,0.0,0.0,0.0,0.0,0.0,0.0,0.0,0.0,0.0,0.0,0.0,0.0,0.0,0.0,0.0,0.0,0.0,0.0,0.0,0.0,0.0,0.0,0.0,0.0,0.0,0.0,0.0,0.0,0.0,0.0,0.0,0.0,0.0,0.0,0.0,0.0,0.0,0.0,0.0,0.0,0.0,0.0,0.0,0.0,0.0,0.0,0.0,0.0,0.0,0.0,0.0,0.0,0.0,0.0,0.0,0.0,0.0,0.0,0.0,0.0,0.0,0.0,0.0,0.0,0.0,0.0,0.0,0.0,0.0,0.0,0.0,0.0,0.0,0.0,0.0,0.0,0.0,0.0,0.0,0.0,0.0,0.0,0.0,0.0,0.0,0.0,0.0,0.0,0.0,0.0,0.0,0.0,0.0,0.0,0.0,0.0,0.0,0.0,0.0,0.0,0.0,0.0,0.0,0.0,0.0,0.0,0.0,0.0,0.0,0.0,0.0,0.0,0.0,0.0,0.0,0.0,0.0,0.0,0.0,0.0,0.0,0.0,0.0,0.0,0.0,0.0,0.0,0.0,0.0,0.0,0.0,0.0,0.0,0.0,0.0,0.0,0.0,0.0,0.0,0.0,0.0,0.0,0.0,0.0,0.0,0.0,0.0,0.0,0.0,0.0,0.0,0.0,0.0,0.0,0.0,0.0,0.0,0.0,0.0,0.0,0.0,0.0,0.0,0.0,0.0,0.0,0.0,0.0,0.0,0.0,0.0,0.0,0.0,0.0,0.0,0.0,0.0,0.0,0.0,0.0,0.0,0.0,0.0,0.0,0.0,0.0,0.0,0.0,0.0,0.0,0.0,0.0,0.0,0.0,0.0,0.0,0.0,0.0,0.0,0.0,0.0,0.0,0.0,0.0,0.0,0.0,0.0,0.0,0.0,0.0,0.0,0.0,0.0,0.0,0.0,0.0,0.0,0.0,0.0,0.0,0.0,0.0,0.0,0.0,0.0,0.0,0.0,0.0,0.0,0.0,0.0,0.0,0.0,0.0,0.0,0.0,0.0,0.0,0.0,0.0,0.0,0.0,0.0,0.0,0.0,0.0,0.0,0.0,0.0,0.0,0.0,0.0,0.0,0.0,0.0,0.0,0.0,0.0,0.0,0.0,0.0,0.0,0.0,0.0,0.0,0.0,0.0,0.0,0.0,0.0,0.0,0.0,0.0,0.0,0.0,0.0,0.0,0.0,0.0,0.0,0.0,0.0,0.0,0.0,0.0,0.0,0.0,0.0,0.0,0.0,0.0,0.0,0.0,0.0,0.0,0.0,0.0,0.0,0.0,0.0,0.0,0.0,0.0,0.0,0.0,0.0,0.0,0.0,0.0,0.0,0.0,0.0,0.0,0.0,0.0,0.0,0.0,0.0,0.0,0.0,0.0,0.0,0.0,0.0,0.0,0.0,0.0,0.0,0.0,0.0,0.0,0.0,0.0,0.0,0.0,0.0,0.0,0.0,0.0,0.0,0.0,0.0,0.0,0.0,0.0,0.0,0.0,0.0,0.0,0.0,0.0,0.0,0.0,0.0,0.0,0.0,0.0,0.0,0.0,0.0,0.0,0.0,0.0,0.0,0.0,0.0,0.0,0.0,0.0,0.0,0.0,0.0,0.0,0.0,0.0,0.0,0.0,0.0,0.0,0.0,0.0,0.0,0.0,0.0,0.0,0.0,0.0,0.0,0.0,0.0,0.0,0.0,0.0,0.0,0.0,0.0,0.0,0.0,0.0,0.0,0.0,0.0,0.0,0.0,0.0,0.0,0.0,0.0,0.0,0.0,0.0,0.0,0.0,0.0,0.0,0.0,0.0,0.0,0.0,0.0,0.0,0.0,0.0,0.0,0.0,0.0,0.0,0.0,0.0,0.0,0.0,0.0,0.0,0.0,0.0,0.0,0.0,0.0,0.0,0.0,0.0,0.0,0.0,0.0,0.0,0.0,0.0,0.0,0.0,0.0,0.0,0.0,0.0,0.0,0.0,0.0,0.0,0.0,0.0,0.0,0.0,0.0,0.0,0.0,0.0,0.0,0.0,0.0,0.0,0.0,0.0,0.0,0.0,0.0,0.0,0.0,0.0,0.0,0.0,0.0,0.0,0.0,0.0,0.0,0.0,0.0,0.0,0.0,0.0,0.0,0.0,0.0,0.0,0.0,0.0,0.0,0.0,0.0,0.0,0.0,0.0,0.0,0.0,0.0,0.0,0.0,0.0,0.0,0.0,0.0,0.0,0.0,0.0,0.0,0.0,0.0,0.0,0.0,0.0,0.0,0.0,0.0,0.0,0.0,0.0,0.0,0.0,0.0,0.0,0.0,0.0,0.0,0.0,0.0,0.0,0.0,0.0,0.0,0.0,0.0,0.0,0.0,0.0,0.0,0.0,0.0,0.0,0.0,0.0,0.0,0.0,0.0,0.0,0.0,0.0,0.0,0.0,0.0,0.0,0.0,0.0,0.0,0.0,0.0,0.0,0.0,0.0,0.0,0.0,0.0,0.0,0.0,0.0,0.0,0.0,0.0,0.0,0.0,0.0,0.0,0.0,0.0,0.0,0.0,0.0,0.0,0.0,0.0,0.0,0.0,0.0,0.0,0.0,0.0,0.0,0.0,0.0,0.0,0.0,0.0,0.0,0.0,0.0,0.0,0.0,0.0,0.0,0.0,0.0,0.0,0.0,0.0,0.0,0.0,0.0,0.0,0.0,0.0,0.0,0.0,0.0,0.0,0.0,0.0,0.0,0.0,0.0,0.0,0.0,0.0,0.0,0.0,0.0,0.0,0.0,0.0,0.0,0.0,0.0,0.0,0.0,0.0,0.0,0.0,0.0,0.0,0.0,0.0,0.0,0.0,0.0,0.0,0.0,0.0,0.0,0.0,0.0,0.0,0.0,0.0,0.0,0.0,0.0,0.0,0.0,0.0,0.0,0.0,0.0,0.0,0.0,0.0,0.0,0.0,0.0,0.0,0.0,0.0,0.0,0.0,0.0,0.0,0.0,0.0,0.0,0.0,0.0,0.0,0.0,0.0,0.0,0.0,0.0,0.0,0.0,0.0,0.0,0.0,0.0,0.0,0.0,0.0,0.0,0.0,0.0,0.0,0.0,0.0,0.0,0.0,0.0,0.0,0.0,0.0,0.0,0.0,0.0,0.0,0.0,0.0,0.0,0.0,0.0,0.0,0.0,0.0,0.0,0.0,0.0,0.0,0.0,0.0,0.0,0.0,0.0,0.0,0.0,0.0,0.0,0.0,0.0,0.0,0.0,0.0,0.0,0.0,0.0,0.0,0.0,0.0,0.0,0.0,0.0,0.0,0.0,0.0,0.0,0.0,0.0,0.0,0.0,0.0,0.0,0.0,0.0,0.0,0.0,0.0,0.0,0.0,0.0,0.0,0.0,0.0,0.0,0.0,0.0,0.0,0.0,0.0,0.0,0.0,0.0,0.0,0.0,0.0,0.0,0.0,0.0,0.0,0.0,0.0,0.0,0.0,0.0,0.0,0.0,0.0,0.0,0.0,0.0,0.0,0.0,0.0,0.0,0.0,0.0,0.0,0.0,0.0,0.0,0.0,0.0,0.0,0.0,0.0,0.0,0.0,0.0,0.0,0.0,0.0,0.0,0.0,0.0,0.0,0.0,0.0,0.0,0.0,0.0,0.0,0.0,0.0,0.0,0.0,0.0,0.0,0.0,0.0,0.0,0.0,0.0,0.0,0.0,0.0,0.0,0.0,0.0,0.0,0.0,0.0,0.0,0.0,0.0,0.0,0.0,0.0,0.0,0.0,0.0,0.0,0.0,0.0,0.0,0.0,0.0,0.0,0.0,0.0,0.0,0.0,0.0,0.0,0.0,0.0,0.0,0.0,0.0,0.0,0.0,0.0,0.0,0.0,0.0,0.0,0.0,0.0,0.0,0.0,0.0,0.0,0.0,0.0,0.0,0.0,0.0,0.0,0.0,0.0,0.0,0.0,0.0,0.0,0.0,0.0,2.1793,0.0,0.0,0.0,0.0,0.0,0.0,0.0,0.0,0.0,0.0,0.0,0.0,0.0,0.0,0.0,0.0,0.0,0.0,0.0,0.0,0.0,0.0,0.0,0.0,0.0,0.0,0.0,0.0,0.0,0.0,0.0,0.0,0.0,0.0,0.0,0.0,0.0,0.0,0.0,2.6814,2.7108,2.7458,2.789,2.7786,2.7131,0.0,0.0,0.0,0.0,0.0,0.0,0.0,0.0,0.0,0.0,0.0,0.0,0.0,0.0,0.0,0.0,0.0,0.0,0.0,0.0,0.0,0.0,0.0,0.0,0.0,0.0,0.0,0.0,0.0,0.0,0.0,0.0,0.0,0.0,0.0,0.0,0.0,0.0,0.0,0.0,0.0,0.0,0.0,0.0,0.0,0.0,0.0,0.0,0.0,0.0,0.0,0.0,0.0,0.0,0.0,0.0,0.0,0.0,0.0,0.0,0.0,0.0,0.0,0.0,0.0,0.0,0.0,0.0,0.0,0.0,0.0,2.2985,0.0,0.0,0.0,0.0,0.0,0.0,0.0,0.0,0.0,0.0,0.0,0.0,0.0,0.0,0.0,0.0,0.0,0.0,0.0,0.0,0.0,0.0,0.0,0.0,0.0,0.0,0.0,0.0,0.0,0.0,0.0,0.0,0.0,0.0,0.0,2.5136,2.5714,2.7202,2.707,2.7268,2.7725,2.8235,2.8231,2.7859,2.6682,0.0,0.0,0.0,0.0,0.0,0.0,0.0,0.0,0.0,0.0,0.0,0.0,0.0,0.0,0.0,0.0,0.0,0.0,0.0,0.0,0.0,0.0,0.0,0.0,0.0,0.0,0.0,0.0,0.0,0.0,0.0,0.0,0.0,0.0,0.0,0.0,0.0,0.0,0.0,0.0,0.0,0.0,0.0,0.0,0.0,0.0,0.0,0.0,0.0,0.0,0.0,0.0,0.0,0.0,0.0,0.0,0.0,0.0,0.0,0.0,0.0,0.0,0.0,0.0,0.0,1.8974,2.1322,2.2444,2.2548,2.3093,2.4017,2.4829,0.0,0.0,0.0,0.0,0.0,0.0,0.0,0.0,0.0,0.0,0.0,0.0,0.0,0.0,0.0,0.0,0.0,0.0,0.0,0.0,0.0,0.0,0.0,1.8596,1.8797,1.9541,2.0065,0.0,0.0,0.0,0.0,0.0,0.0,2.4985,2.5087,2.6016,2.7695,2.7879,2.8065,2.8299,2.8573,2.8795,2.9039,2.8291,2.7747,2.7287,0.0,0.0,0.0,0.0,0.0,0.0,0.0,0.0,0.0,0.0,0.0,0.0,0.0,0.0,0.0,0.0,0.0,0.0,0.0,0.0,0.0,0.0,0.0,0.0,0.0,0.0,0.0,0.0,0.0,0.0,0.0,0.0,0.0,0.0,0.0,0.0,0.0,0.0,0.0,0.0,0.0,0.9084,0.8584,0.0,0.0,0.0,0.0,0.0,0.0,0.0,0.0,0.0,0.0,0.0,0.0,0.0,0.0,1.2729,1.4085,1.5056,1.5671,1.826,1.979,2.0411,2.2248,2.3372,2.3941,2.4001,0.0,2.2414,1.9282,0.0,0.0,0.0,0.0,0.0,0.0,0.0,0.0,0.0,0.0,0.0,0.0,0.0,0.0,0.0,0.0,0.0,0.0,0.0,0.0,0.0,1.9477,1.9645,1.9636,2.0427,2.098,2.1094,0.0,0.0,0.0,0.0,2.492,2.5847,2.5497,2.5831,2.6902,2.7841,2.8244,2.8078,2.8762,2.9393,2.9881,2.977,2.9039,2.7814,2.5652,0.0,0.0,0.0,0.0,0.0,0.0,0.0,0.0,0.0,0.0,0.0,0.0,0.0,0.0,0.0,0.0,0.0,0.0,0.0,0.0,0.0,0.0,0.0,0.0,0.0,0.0,0.0,0.0,0.0,0.0,0.0,0.0,0.0,0.0,0.0,0.0,0.0,0.0,0.0,0.925,0.8497,0.7816,0.7332,0.6915,0.0,0.0,0.0,0.0,0.0,0.0,0.0,0.0,0.0,1.2004,1.2975,1.3921,1.4914,1.5939,1.6806,1.7455,1.9373,2.0512,2.1025,2.2432,2.325,2.353,2.353,2.347,2.3194,2.1008,1.8997,1.7128,0.0,0.0,0.0,0.0,0.0,1.1912,0.0,0.0,0.0,0.0,0.0,0.0,0.0,0.0,0.0,0.0,0.0,0.0,2.0254,2.0543,2.066,2.0662,2.1362,2.1916,2.2146,0.0,0.0,0.0,2.5205,2.5821,2.6542,2.6063,2.6142,2.6709,2.7774,2.8133,2.7866,2.893,2.9701,3.0179,3.0761,3.0062,2.8395,2.663,2.4544,2.2228,0.0,0.0,0.0,0.0,0.0,0.0,0.0,0.0,0.0,0.0,0.0,0.0,0.0,0.0,0.0,0.0,0.0,0.0,0.0,0.0,0.0,0.0,0.0,0.0,0.0,0.0,0.0,0.0,0.0,0.0,0.0,0.0,0.0,0.0,0.0,0.0,0.0,0.86,0.8288,0.7615,0.7457,0.7362,0.0,0.0,0.0,0.0,0.0,0.0,1.0619,1.1467,1.24,1.351,1.4525,1.5523,1.6581,1.7167,1.7836,1.8471,1.9772,2.0538,2.1021,2.2232,2.2777,2.2703,2.2927,2.3372,2.3761,2.2495,2.0595,1.8418,1.7228,1.6007,0.0,1.4812,1.42,1.3437,0.0,0.0,0.0,0.0,0.0,0.0,0.0,0.0,0.0,0.0,0.0,2.0289,2.0644,2.1157,2.1567,2.1866,2.2227,2.2805,2.3636,2.4414,2.5044,2.5508,2.5928,2.6264,2.6487,2.6819,2.7377,2.8106,2.7875,2.7794,2.7939,2.8989,2.9599,2.9866,3.1049,3.0908,2.9698,2.8296,2.6337,2.3905,2.0861,0.0,0.0,0.0,0.0,0.0,0.0,0.0,0.0,0.0,0.0,0.0,0.0,0.0,0.0,0.0,0.0,0.0,0.0,0.0,0.0,0.0,0.0,0.0,0.0,0.0,0.0,0.0,0.0,0.0,0.0,0.0,0.0,0.0,0.0,0.0,0.0,0.0,0.0,0.8755,0.8644,0.0,0.0,0.0,0.0,1.0928,1.103,1.1657,1.329,1.3626,1.4294,1.5474,1.59,1.6369,1.6968,1.7225,1.7552,1.7886,1.9259,1.991,2.0042,2.1681,2.2252,2.1883,2.2703,2.3001,2.3073,2.2752,2.1724,2.0216,1.8642,1.7375,1.6543,1.7027,1.6249,1.5005,0.0,0.0,0.0,0.0,0.0,0.0,0.0,0.0,0.0,2.0342,2.1053,2.1533,2.2057,2.1883,2.1925,2.2411,2.284,2.3442,2.4309,2.5317,2.5944,2.6104,2.6623,2.6905,2.6906,2.7402,2.7549,2.7222,2.8015,2.8231,2.7908,2.8996,2.9916,3.0664,3.1219,3.1236,3.0681,2.8972,2.6865,2.4403,2.1221,1.8557,0.0,0.0,0.0,0.0,0.0,0.0,0.0,0.0,0.0,0.0,0.0,0.0,0.0,0.0,0.0,0.0,0.0,0.0,0.0,0.0,0.0,0.0,0.0,0.0,0.0,0.0,0.0,0.0,0.0,0.0,0.0,0.0,0.0,0.0,0.0,0.0,0.0,0.8741,0.8941,0.0,0.9238,0.9651,1.0371,1.1407,1.1915,1.2797,1.4274,1.4584,1.5265,1.6493,1.6625,1.7023,1.7669,1.7736,1.7995,1.8482,1.9319,1.9928,2.042,2.1501,2.1959,2.1807,2.2101,2.2553,2.2925,2.2236,2.1902,2.1793,2.0588,1.9069,1.7622,1.7908,1.7786,1.7264,0.0,0.0,0.0,0.0,0.0,0.0,0.0,0.0,0.0,2.1225,2.1978,2.246,2.2884,2.2476,2.2353,2.2837,2.3342,2.3982,2.4724,2.5847,2.659,2.6841,2.7289,2.7565,2.7656,2.7769,2.7654,2.7316,2.8032,2.8203,2.7808,2.9204,3.0229,3.0981,3.1941,3.2186,3.1817,3.0342,2.8105,2.5295,2.2377,1.9755,1.7233,0.0,0.0,0.0,0.0,0.0,0.0,0.0,0.0,0.0,0.0,0.0,0.0,0.0,0.0,0.0,0.0,0.0,0.0,0.0,0.0,0.0,0.0,0.0,0.0,0.0,0.0,0.0,0.0,0.0,0.0,0.0,0.0,0.0,0.0,0.0,0.9186,0.9091,0.941,0.9805,1.019,1.0688,1.1467,1.263,1.2997,1.3778,1.5101,1.5491,1.6103,1.7239,1.7251,1.7525,1.8213,1.7995,1.8193,1.8754,1.9222,1.9687,2.0167,2.1031,2.1329,2.1138,2.1597,2.2072,2.2488,2.2171,2.2076,2.2099,2.1486,2.0037,1.841,1.8464,1.8472,1.8227,0.0,0.0,0.0,0.0,0.0,0.0,0.0,0.0,2.022,2.1539,2.2426,2.2951,2.3029,2.2848,2.2865,2.3203,2.3835,2.4426,2.4946,2.6067,2.7036,2.7683,2.7911,2.8235,2.8745,2.7923,2.783,2.8447,2.7875,2.7612,2.7624,2.9574,3.0528,3.0722,3.3091,3.3755,3.3091,3.2386,3.011,2.6691,2.4362,2.1616,1.8579,0.0,0.0,0.0,0.0,0.0,0.0,0.0,0.0,0.0,0.0,0.0,0.0,0.0,0.0,0.0,0.0,0.0,0.0,0.0,0.0,0.0,0.0,0.0,0.0,0.0,0.0,0.0,0.0,0.0,0.0,0.0,0.0,0.0,0.9656,0.9482,0.9701,0.99,1.0217,1.0826,1.1922,1.1831,1.247,1.454,1.4213,1.4612,1.6135,1.647,1.6972,1.7721,1.7706,1.7953,1.844,1.7979,1.7951,1.846,1.8843,1.9073,1.9301,2.0167,2.0325,1.9855,2.1169,2.1629,2.1555,2.2553,2.2265,2.1256,2.1233,2.031,1.903,1.8744,1.8346,1.782,0.0,0.0,0.0,0.0,0.0,0.0,0.0,1.9287,2.1067,2.2079,2.3163,2.3785,2.3602,2.323,2.3389,2.4344,2.47,2.5291,2.63,2.7054,2.7695,2.811,2.7961,2.7924,2.8076,2.7777,2.7526,2.7271,2.772,2.7753,2.7422,2.937,3.0604,3.1232,3.2429,3.3379,3.4032,3.2664,3.0957,2.8842,2.4937,2.1343,1.7911,0.0,0.0,0.0,0.0,0.0,0.0,0.0,0.0,0.0,0.0,0.0,0.0,0.0,0.0,0.0,0.0,0.0,0.0,0.0,0.0,0.0,0.0,0.0,0.0,0.0,0.0,0.0,0.0,0.0,0.0,0.0,0.0,1.2515,1.1151,1.0878,1.091,1.1216,1.1435,1.1859,1.2372,1.2797,1.326,1.4013,1.4754,1.5423,1.6143,1.7025,1.7574,1.7807,1.8047,1.828,1.8405,1.8051,1.7951,1.8121,1.8612,1.8922,1.9301,1.9863,1.9976,1.9738,2.0515,2.0938,2.1199,2.1684,2.1845,2.1824,2.1353,2.095,2.0449,1.9333,1.8678,1.83,0.0,0.0,0.0,0.0,0.0,0.0,0.0,2.0231,2.2078,2.2848,2.3806,2.4298,2.3967,2.3592,2.3596,2.4191,2.489,2.5555,2.6104,2.7076,2.7877,2.837,2.8183,2.7913,2.7565,2.7483,2.7147,2.6519,2.7443,2.7755,2.756,2.9793,3.1094,3.1629,3.324,3.3967,3.3967,3.3265,3.1726,2.9425,2.5443,2.2066,1.8901,1.4994,1.2108,0.9784,0.7266,0.603,0.5565,0.5304,0.0,0.0,0.0,0.0,0.0,0.0,0.0,0.0,0.0,0.0,0.0,0.0,0.0,0.0,0.0,0.0,0.0,0.0,0.0,0.0,0.0,0.0,0.0,0.0,1.4535,1.3744,1.2765,1.2056,1.1724,1.193,1.2181,1.2587,1.3204,1.3663,1.4027,1.4471,1.5407,1.615,1.6522,1.7545,1.8145,1.7994,1.841,1.8576,1.8379,1.8323,1.8201,1.804,1.8282,1.8603,1.9073,1.9469,1.9563,0.0,1.9972,2.0308,2.046,2.1097,2.1547,0.0,0.0,0.0,0.0,0.0,1.8922,1.856,0.0,0.0,0.0,0.0,0.0,0.0,0.0,2.1224,2.3016,2.3645,2.4314,2.4591,2.4209,2.4018,2.3801,2.3539,2.4906,2.5633,2.5278,2.6663,2.7802,2.8492,2.851,2.808,2.7238,2.7161,2.677,2.6,2.71,2.7658,2.7767,3.035,3.1663,3.189,3.4421,3.4733,3.3322,3.365,3.2032,2.8968,2.574,2.3112,2.0586,1.5928,1.3011,1.1017,0.8117,0.6631,0.5976,0.5467,0.0,0.0,0.0,0.0,0.0,0.0,0.0,0.0,0.0,0.0,0.0,0.0,0.0,0.0,0.0,0.0,0.0,0.0,0.0,0.0,0.0,0.0,0.0,0.0,1.5765,1.4961,1.4282,1.3032,1.2356,1.255,1.27,1.3194,1.4148,1.4421,1.4861,1.5417,1.6169,1.6652,1.702,0.0,0.0,0.0,0.0,1.9163,1.8754,1.8707,1.8451,1.8112,1.8112,1.8362,1.87,1.9152,1.917,1.8912,1.9466,1.9674,1.9671,2.0646,2.1221,2.1549,2.1999,2.1608,2.0668,1.9702,1.9062,0.0,0.0,0.0,0.0,0.0,0.0,0.0,0.0,2.1647,2.3062,2.3831,2.4486,2.4795,2.4595,2.4927,2.5056,2.4855,2.6085,2.6718,2.6257,2.7355,2.8242,2.8712,2.8536,2.8072,2.7306,2.7332,2.6721,2.5458,2.7056,2.759,2.7137,2.9644,3.1106,3.1686,3.2429,3.3014,3.3296,3.1956,3.0477,2.8758,2.5513,2.2615,1.9838,1.5657,1.2682,1.0507,0.8325,0.7301,0.6906,0.6586,0.6754,0.7209,0.7859,0.8173,0.0,0.0,0.0,0.0,0.0,0.0,0.0,0.0,0.0,0.0,0.0,0.0,0.0,0.0,0.0,0.0,0.0,0.0,0.0,1.7115,1.6435,1.5701,1.4668,1.4056,1.3622,1.3444,1.3701,1.4116,1.4815,1.5269,1.562,1.5844,1.6821,1.736,1.7471,1.8476,0.0,1.7535,1.953,2.0739,2.1051,1.9134,1.8434,1.9063,0.0,0.0,1.87,1.9469,1.942,1.8784,1.9125,1.9341,1.9375,1.9922,2.0635,2.1463,2.1999,2.2065,2.1705,2.0229,1.9554,1.9379,0.0,0.0,0.0,0.0,0.0,0.0,0.0,2.2075,2.3287,2.4486,2.4859,2.4962,2.4818,2.5354,2.5448,2.4857,2.5783,2.6634,2.7166,2.7402,2.7779,2.844,2.8062,2.7486,2.6736,2.6403,2.594,2.5299,2.6599,2.7272,2.735,2.9701,3.0864,3.1045,3.1956,3.2197,3.1878,3.08,2.9265,2.7317,2.4458,2.1666,1.8911,1.5776,1.3045,1.0659,0.8856,0.7849,0.7273,0.6939,0.7196,0.7766,0.8288,0.8711,0.9226,0.0,0.0,0.0,0.0,0.0,0.0,0.0,0.0,0.0,0.0,0.0,0.0,0.0,0.0,1.9051,0.0,0.0,1.8773,1.7952,1.7154,1.631,1.5183,1.4729,1.4418,1.3975,1.4283,1.4815,1.5357,1.6205,1.665,1.6278,1.7405,1.7914,1.748,1.8716,1.8982,1.8102,1.9729,2.1006,2.1731,2.0118,1.9301,1.9301,1.9301,1.9222,1.8984,1.9114,1.9004,1.8692,1.8772,1.8957,1.9253,2.0053,2.088,2.1604,2.1777,2.1777,2.1607,2.0275,1.9534,1.9146,0.0,0.0,0.0,0.0,0.0,0.0,0.0,0.0,0.0,2.487,2.5097,2.5061,2.498,2.5567,2.5712,2.5039,2.5479,2.6313,2.7584,2.7191,2.7166,2.7858,2.7522,2.6892,2.596,2.5443,2.5135,2.5114,2.5993,2.6761,2.745,2.9293,3.0022,2.9786,3.0781,3.0639,2.9592,2.9085,2.754,2.5207,2.2917,2.0435,1.7838,1.5831,1.345,1.0997,0.9368,0.8208,0.7426,0.6983,0.7377,0.8105,0.8507,0.9089,0.9841,1.0703,1.1629,0.0,0.0,0.0,0.0,0.0,0.0,0.0,0.0,0.0,1.4589,1.6374,1.8422,1.9976,2.044,2.0083,1.9476,1.8811,1.7917,1.6861,1.5801,1.5251,1.4928,1.46,1.4928,1.5464,1.5992,1.6948,1.7492,1.7015,1.7928,1.8261,1.7852,1.917,1.97,1.9387,2.0374,2.1186,2.1998,2.1182,2.0401,1.9539,1.9539,1.9539,1.9362,1.8773,1.8658,1.8944,1.8795,1.89,1.9274,2.0442,2.1152,2.1502,2.1403,2.1323,2.1145,2.0142,1.9434,1.8956,0.0,0.0,0.0,0.0,0.0,0.0,0.0,0.0,0.0,2.4101,2.4739,2.5118,2.5153,2.5831,2.6469,2.7023,2.6646,2.6509,2.6821,2.7029,2.7137,2.7115,2.7309,2.6755,2.542,2.5435,2.5113,2.4424,2.5338,2.5997,2.637,2.6939,2.7208,2.7246,2.6458,2.6279,2.6423,2.5319,2.4118,2.2734,2.0978,1.8865,1.6643,1.5065,1.3142,1.1093,0.9544,0.8326,0.7469,0.7096,0.7466,0.8134,0.8296,0.9055,0.9998,1.0711,1.1081,1.131,1.1435,1.2685,1.3507,1.1647,1.1329,1.1456,0.0,0.0,1.4886,1.6793,1.8052,1.9529,2.1619,2.0956,1.996,1.964,1.8418,1.7295,1.6594,1.5678,1.5143,1.5678,1.5779,1.5992,1.6518,1.7265,1.7765,1.822,1.7876,1.8274,1.987,2.0186,2.0559,2.1374,2.2255,2.2872,2.296,2.207,2.1262,2.0489,2.0489,2.0255,1.9835,1.9052,1.9096,1.9795,1.9777,1.9708,1.9605,2.0711,2.0957,2.0592,2.1199,2.1121,2.0612,2.0007,1.9863,1.9889,0.0,0.0,0.0,0.0,0.0,0.0,0.0,0.0,0.0,0.0,0.0,2.4352,2.4333,2.4931,2.5633,2.6465,2.5222,2.4601,2.5111,2.5569,2.5862,2.5949,2.5798,2.5427,2.4867,2.3917,2.3448,2.3523,2.3502,2.3809,2.4397,2.4521,2.4591,2.4594,2.3792,2.3302,2.2983,2.207,2.0851,1.9445,1.8283,1.6542,1.452,1.3516,1.2069,1.0407,0.9595,0.857,0.0,0.6907,0.7104,0.767,0.7916,0.8755,0.9818,1.0538,1.101,1.1368,1.1378,1.2355,1.3338,1.3087,1.2552,1.2172,1.2172,1.2853,1.4175,1.69,1.8332,1.9515,2.1139,2.0605,1.9888,0.0,1.8506,1.7414,1.6782,1.5982,1.5458,1.5446,1.5836,1.6386,1.7127,1.8003,1.854,1.8189,1.8325,1.8499,1.8566,2.0709,2.2078,2.252,2.2882,2.3396,2.3927,2.3524,2.2703,2.1262,2.1262,2.1031,2.0634,1.9932,1.9629,1.9665,1.9903,1.9885,1.9781,2.0281,2.0483,2.0514,2.0413,2.0365,2.0365,2.0101,1.985,1.9615,0.0,0.0,0.0,0.0,0.0,0.0,0.0,0.0,0.0,0.0,0.0,0.0,0.0,2.461,2.5111,2.5372,2.3873,2.3188,2.3864,2.4123,2.4464,2.4857,2.4427,2.4064,2.3871,2.2382,2.1815,2.2153,2.1412,2.1332,2.1946,2.1655,2.1411,2.1175,2.047,1.9734,1.9083,1.8313,1.7246,1.5932,1.5296,1.3941,1.2228,1.1737,1.0755,0.9673,0.9315,0.8576,0.7555,0.6774,0.6767,0.7212,0.7641,0.8477,0.9519,1.0352,1.1042,1.1671,1.1802,1.2367,1.3129,1.4021,1.3751,1.3357,1.3945,1.4144,1.4749,1.7088,1.8534,1.9621,2.0566,2.0242,1.9736,1.9927,1.8809,1.7676,1.6987,1.6429,1.594,1.559,1.5954,1.6658,1.7627,1.8428,1.881,1.8912,1.9285,1.9248,1.8835,2.1391,2.3047,2.3493,2.3484,2.3831,2.4711,2.4545,2.3696,2.2101,2.2101,2.1959,2.1492,2.0862,2.0173,1.963,1.9996,2.013,1.9955,1.9887,2.0102,2.0331,1.9948,1.9903,2.0056,2.0168,1.9999,1.962,0.0,0.0,0.0,0.0,0.0,0.0,0.0,0.0,0.0,0.0,0.0,0.0,0.0,2.5541,2.5541,2.4264,2.3376,2.3135,2.3659,2.3238,2.327,2.4021,2.3606,2.3007,2.2297,2.141,2.0637,2.0004,1.919,1.8893,1.901,1.8235,1.743,1.6669,1.5614,1.4961,1.4636,1.3679,1.2992,1.2388,1.1924,1.1022,1.0005,0.9817,0.945,0.8907,0.8635,0.8125,0.7512,0.674,0.6618,0.6802,0.7405,0.8204,0.9143,1.0174,1.1156,1.2091,1.3031,1.3353,1.3632,1.4131,1.4148,1.4787,1.7002,1.7423,1.7437,1.7575,1.8534,1.9501,2.0339,2.002,1.9959,2.0507,1.9431,1.8229,1.77,1.6857,1.6418,1.658,1.6403,1.6833,0.0,1.786,1.8498,2.0664,2.0547,2.1031,2.234,2.2389,2.3047,2.4454,2.4423,2.4669,2.52,2.4735,2.4017,2.2927,2.2927,2.2777,2.2306,2.1692,2.0761,1.9837,2.0387,2.0428,2.0052,1.9879,1.9784,1.9843,1.9953,1.9858,1.9681,2.0169,2.0359,2.0306,0.0,0.0,0.0,0.0,0.0,0.0,0.0,0.0,0.0,0.0,0.0,0.0,0.0,0.0,0.0,0.0,2.3817,2.3133,2.3037,2.3073,2.3112,2.3133,2.2975,2.2454,2.1498,2.0078,1.8786,1.7619,1.6717,1.5949,1.5349,1.4438,1.3621,1.2881,1.1661,1.0866,1.0501,1.0065,0.9669,0.9444,0.9074,0.8531,0.7948,0.8038,0.7681,0.7167,0.0,0.6942,0.6901,0.6146,0.5927,0.6103,0.6771,0.7613,0.8701,1.059,1.169,1.2527,1.3146,1.3642,1.4265,1.5099,1.5317,1.5676,1.7204,1.7819,1.7991,1.7592,1.8231,1.8898,1.916,1.9095,1.925,1.9681,1.8807,1.8057,1.7925,1.7329,1.6885,1.6795,1.6658,0.0,0.0,0.0,0.0,2.0119,2.0835,2.1473,2.2008,2.2395,2.2891,2.358,2.4166,2.468,2.5041,2.4923,2.4194,2.299,2.244,2.2142,2.2144,2.1596,2.1016,2.0398,2.0743,2.079,2.056,2.0665,2.0488,2.0134,2.0009,1.99,1.9811,2.0308,2.0673,2.0809,0.0,0.0,0.0,0.0,0.0,0.0,0.0,0.0,0.0,0.0,0.0,0.0,0.0,0.0,0.0,0.0,0.0,2.3248,2.2797,2.2785,2.2618,2.2299,2.2064,2.1514,2.057,1.915,1.766,1.6173,1.5097,1.3936,1.2802,1.1631,1.062,0.9698,0.8419,0.755,0.6992,0.6708,0.649,0.6452,0.6198,0.5928,0.5667,0.5899,0.5762,0.0,0.5432,0.5442,0.5503,0.5243,0.5152,0.533,0.6239,0.7767,0.9468,1.1103,1.2307,1.3114,1.3566,1.4043,1.4637,1.5443,1.5956,1.6472,1.7329,1.7996,1.8362,1.7718,1.8134,1.855,1.8372,1.8603,1.8821,1.9169,1.8646,1.8225,1.7976,1.7662,1.7318,1.7133,1.6961,1.7034,0.0,0.0,0.0,1.9771,2.0798,2.1613,2.1971,2.2466,2.2979,2.3396,2.4166,2.469,2.5052,2.4923,2.426,2.3224,2.2597,2.2284,2.2197,2.1782,2.128,2.0866,2.091,2.0908,2.0828,2.1019,2.0874,2.0558,2.0249,2.0172,2.0295,2.0638,2.0921,2.1104,0.0,0.0,0.0,0.0,0.0,0.0,0.0,0.0,0.0,0.0,0.0,0.0,0.0,0.0,0.0,0.0,0.0,0.0,2.2947,2.2375,2.1897,2.1537,2.0959,2.0287,1.9584,1.8491,1.7147,1.5527,1.4258,1.2832,1.1293,0.9867,0.8507,0.7117,0.5909,0.4978,0.4254,0.3738,0.3493,0.3563,0.3448,0.3244,0.3083,0.3447,0.3728,0.3893,0.3974,0.3795,0.3571,0.4172,0.4431,0.471,0.6049,0.8561,1.1163,1.1781,1.2875,1.3995,1.4382,1.4634,1.4977,1.539,1.6183,1.6975,1.7394,1.8156,1.8674,1.7875,1.814,1.8426,1.8213,1.8339,1.8678,1.9118,1.8902,1.8626,1.8171,1.7875,1.7707,0.0,0.0,0.0,0.0,0.0,0.0,1.9812,0.0,2.1377,2.24,2.2645,2.3144,2.4003,2.4358,2.47,2.52,2.4681,2.4117,2.3604,2.3486,2.3094,2.259,2.2235,2.1732,2.1085,2.0935,2.0903,2.091,2.0874,2.0974,2.1057,2.0662,2.0731,2.1093,2.1009,2.118,2.1328,0.0,0.0,0.0,0.0,0.0,0.0,0.0,0.0,0.0,0.0,0.0,0.0,0.0,0.0,0.0,0.0,0.0,0.0,2.3157,2.2852,2.2404,2.1798,2.1303,2.0361,1.89,1.7797,1.6308,1.4341,1.3243,1.1889,1.0266,0.8697,0.7123,0.5577,0.4156,0.3227,0.2815,0.2266,0.1957,0.1891,0.1688,0.1365,0.1082,0.1657,0.2133,0.2441,0.2823,0.2993,0.3084,0.3871,0.4832,0.605,0.7854,0.9668,1.1419,1.2654,1.3993,1.5139,1.5661,1.615,1.6671,1.7206,1.7108,1.7248,1.8127,1.8406,1.8357,1.8164,1.8375,1.8308,1.7531,1.7978,1.8488,1.8552,1.8629,0.0,1.8926,1.878,0.0,1.8576,0.0,1.8327,1.8853,1.8714,0.0,0.0,2.0213,2.0846,2.1852,2.2438,2.2969,2.3309,2.4079,2.469,2.5052,2.4751,2.4414,2.4043,2.3512,2.3527,2.4008,2.2227,2.135,2.116,2.1366,2.1486,2.1565,2.1957,2.1801,2.1486,2.1387,2.1313,2.1237,2.1159,2.1375,2.156,0.0,0.0,0.0,0.0,0.0,0.0,0.0,0.0,0.0,0.0,0.0,0.0,0.0,0.0,0.0,0.0,0.0,0.0,0.0,2.2306,2.157,2.1119,2.0604,1.9607,1.8164,1.7457,1.6276,1.4446,1.3449,1.2037,1.0247,0.8586,0.6874,0.5109,0.3619,0.2567,0.1884,0.1232,0.0782,0.0,0.0,-0.044,-0.0681,-0.0147,0.035,0.0919,0.1594,0.2135,0.2667,0.3589,0.4969,0.6684,0.8918,1.0754,1.2359,1.371,1.4983,1.6109,1.664,1.7225,1.768,1.8065,1.7966,1.7942,1.8315,1.8629,1.8709,1.8362,1.8297,1.8087,1.7261,1.7696,1.815,0.0,0.0,0.0,1.9008,1.8905,1.8837,0.0,1.8855,0.0,1.9513,1.9573,1.9766,0.0,2.061,2.1003,2.167,2.2706,2.3319,2.358,2.4423,2.4987,2.5005,2.4853,2.4633,2.4345,2.3973,2.4012,2.4308,2.2779,2.1969,2.1748,0.0,2.1749,2.1851,2.2285,2.236,2.2137,2.192,2.1867,2.1786,2.1538,2.1664,2.1838,0.0,0.0,0.0,0.0,0.0,0.0,0.0,0.0,0.0,0.0,0.0,0.0,0.0,0.0,0.0,0.0,0.0,0.0,0.0,0.0,2.017,1.9938,1.9421,1.8578,1.7423,1.721,1.6489,1.5096,1.3992,1.2569,1.0785,0.8944,0.716,0.5399,0.3866,0.2609,0.1611,0.0746,-0.0056,-0.086,-0.1623,-0.213,-0.2307,0.0,-0.1342,-0.0512,0.0555,0.1468,0.2308,0.3498,0.5079,0.6921,0.9428,1.1569,1.3528,1.4756,1.592,1.6929,1.7605,1.7994,1.8259,1.8544,1.8822,1.8943,1.854,1.8921,1.9213,1.853,1.8217,1.7905,1.7304,1.7518,1.785,1.8137,0.0,1.895,1.891,1.8906,1.888,1.9013,1.925,1.9561,2.0025,2.0304,2.0686,2.123,2.1396,2.1541,2.1866,2.3057,2.4013,2.4368,2.5126,2.5376,2.5071,2.4982,2.4827,2.449,2.4634,2.4531,2.42,2.368,2.3171,2.274,0.0,0.0,2.2049,2.2359,2.2616,2.2758,2.2347,2.2268,2.2366,2.1978,2.1949,2.2123,0.0,0.0,0.0,0.0,0.0,0.0,0.0,0.0,0.0,0.0,1.6853,1.8458,0.0,0.0,0.0,0.0,0.0,0.0,0.0,0.0,0.0,1.9142,1.8791,1.8098,1.6943,1.6545,1.574,1.4641,1.3081,1.1812,1.082,0.865,0.7158,0.6288,0.4532,0.3281,0.2435,0.1395,0.0162,-0.1188,-0.2156,-0.3083,-0.3774,-0.3257,0.0,0.0,0.0469,0.1416,0.198,0.3819,0.5359,0.6854,0.9378,1.1763,1.3822,1.5507,1.6949,1.8211,1.8985,1.9336,1.9508,1.9876,1.9771,1.9734,1.9911,1.9782,0.0,1.9529,1.8974,1.8258,1.7615,1.7684,1.7992,1.8339,1.8699,1.9095,2.0019,1.9737,1.9378,0.0,1.9523,1.9781,2.0016,2.0491,0.0,0.0,0.0,0.0,2.2577,2.3406,2.4358,2.5559,2.5453,2.5385,2.5518,2.5062,2.4773,2.4562,2.4849,2.5063,2.5378,2.4776,2.4323,2.3932,0.0,0.0,2.2555,2.2836,2.2742,2.2397,2.2402,2.2273,2.203,2.2104,2.2278,2.2483,0.0,0.0,0.0,0.0,0.0,0.0,0.0,1.3047,1.3183,1.3797,1.5101,1.6819,1.9003,2.0051,2.1055,0.0,0.0,0.0,0.0,0.0,0.0,0.0,0.0,0.0,1.5955,1.5529,1.4893,0.0,0.0,1.1344,1.0612,0.8699,0.7346,0.6426,0.5091,0.3906,0.2847,0.1789,0.0345,-0.1382,-0.256,-0.3635,0.0,0.0,0.0,0.0,0.0172,0.1122,0.1922,0.3186,0.502,0.7167,0.9917,1.2271,1.4412,1.6034,1.7515,1.8895,1.9716,2.0202,2.0578,2.0835,2.0707,2.0467,2.0161,0.0,0.0,1.9458,1.8958,1.8395,1.7983,1.7908,1.8041,1.8461,1.8556,1.8952,2.0022,1.9747,1.9595,1.9953,2.0031,2.0171,0.0,0.0,0.0,0.0,0.0,0.0,2.2577,2.3744,2.4946,2.6229,2.5842,2.5655,2.5791,2.5308,2.5011,2.4969,2.5253,2.5535,2.5804,2.5208,2.4737,2.4263,0.0,0.0,2.2884,2.2824,2.2769,2.2737,2.2431,2.2282,2.2251,2.2362,2.2509,2.268,0.0,0.0,0.0,0.0,0.0,0.0,0.0,1.2583,1.2546,1.2935,1.3646,1.5098,1.7682,1.8714,1.9771,0.0,0.0,0.0,0.0,0.0,0.0,0.0,0.0,0.0,0.0,0.0,0.0,0.0,0.0,0.0,0.0,0.0,0.0,0.0,0.0,0.4412,0.3239,0.2145,0.0581,0.0,0.0,0.0,0.0,0.0,0.0,0.0,0.0,0.0785,0.169,0.2648,0.4618,0.7259,1.0259,1.2765,1.4894,1.6448,1.8034,1.9439,2.0442,2.1131,2.1552,2.1593,2.1499,2.1176,2.041,2.012,1.9875,1.9468,1.8977,1.8532,1.8452,1.8177,1.8018,1.8458,1.8532,1.887,1.992,1.9813,1.987,0.0,2.0536,0.0,2.0883,0.0,0.0,0.0,0.0,0.0,0.0,2.4251,2.5538,2.6644,2.6199,2.6016,2.6188,2.5563,2.5312,2.5453,2.5664,2.5828,2.5968,2.5536,2.5049,2.4406,0.0,0.0,0.0,2.2814,2.2807,2.3005,2.2404,2.2227,2.2385,2.2555,2.2723,2.2889,0.0,0.0,0.0,0.0,0.0,0.0,0.0,1.2427,1.2509,1.2533,1.2924,1.3502,1.4217,1.7073,1.9254,0.0,0.0,0.0,0.0,0.0,0.0,0.0,0.0,0.0,0.0,0.0,0.0,0.0,0.0,0.0,0.0,0.0,0.0,0.0,0.0,0.0,0.0,0.2611,0.0,0.0,0.0,0.0,0.0,0.0,0.0,0.0,0.0,0.0336,0.1121,0.3019,0.4697,0.6504,0.9813,1.2657,1.5038,1.6369,1.8295,2.0248,2.1544,2.2127,2.2347,2.2449,2.2258,2.1986,2.1514,0.0,2.0606,2.0424,1.953,1.8751,1.8736,1.8324,1.8103,1.8559,1.8759,1.9145,2.0053,2.0237,2.0445,2.0933,0.0,0.0,2.118,0.0,0.0,0.0,0.0,0.0,0.0,2.52,2.5874,2.6809,2.6554,2.6601,2.6784,2.5781,2.5465,2.584,2.5955,2.6107,2.6201,2.6252,2.5787,2.4924,0.0,0.0,0.0,2.3358,2.2923,2.263,2.2398,2.2106,2.1924,2.2509,2.2949,2.3319,0.0,0.0,0.0,0.0,0.0,0.0,1.1738,1.184,1.1868,1.1641,1.2221,1.2721,1.2885,1.4323,1.6375,1.9033,0.0,0.0,0.0,0.0,0.0,0.0,0.0,0.0,0.0,0.0,0.0,0.0,0.0,0.0,0.0,0.0,0.0,0.0,0.0,0.0,0.0,0.0,0.0,0.0,0.0,0.0,0.0,0.0,0.0,0.0,0.0,0.0,0.1008,0.2397,0.4439,0.6841,0.8955,1.2084,1.5333,1.6806,1.8558,2.0349,2.1677,2.2357,2.2793,2.3149,2.2872,2.2331,2.1985,0.0,2.1069,2.0665,2.0172,1.9706,1.9507,1.9107,1.8844,1.9043,1.8747,1.8936,2.0127,2.0027,2.0227,2.1375,2.119,0.0,0.0,0.0,0.0,0.0,0.0,0.0,0.0,2.5633,2.5992,2.6588,2.6645,2.6628,2.6392,2.6082,2.6005,2.6062,2.6119,2.6258,2.6533,2.6577,2.6105,2.5294,0.0,0.0,0.0,2.3798,2.3647,2.3595,2.299,2.2763,2.2738,2.2898,2.3127,2.3451,0.0,0.0,0.0,0.0,0.0,1.1227,1.1063,1.1163,1.1195,1.0936,1.1541,1.1746,1.1161,1.2233,1.4045,1.6567,1.7305,0.0,0.0,0.0,0.0,0.0,0.0,0.0,0.0,0.0,0.0,1.0857,0.9556,0.0,0.0,0.0,0.0,0.0,0.0,0.0,0.0,0.0,0.0,0.0,0.0,0.0,0.0,0.0,0.0,0.0,0.0,0.0,0.0,0.0,0.0,0.7079,0.8777,1.2067,1.5566,1.6896,1.8788,2.068,2.1755,2.2593,2.3246,2.3742,2.3342,2.2818,2.2391,2.2045,2.1687,2.1084,2.0778,2.0478,2.0237,1.9792,1.9444,1.939,1.8978,1.9021,2.0196,1.9991,2.0255,0.0,0.0,0.0,0.0,0.0,0.0,0.0,0.0,0.0,0.0,2.6218,2.6315,2.645,2.6767,2.6742,2.6299,2.6493,2.651,2.627,2.6339,2.6465,2.6714,2.6671,2.627,0.0,0.0,0.0,0.0,2.4146,2.4164,2.4336,2.3426,2.3243,2.3412,2.3182,2.3319,2.3625,0.0,0.0,0.0,0.0,0.0,0.0,1.0433,1.0481,1.055,1.0685,1.0884,1.03,0.8436,1.1269,1.2965,1.2146,1.4365,0.0,0.0,0.0,0.0,0.0,0.0,0.0,0.0,0.0,1.1674,1.0806,0.9576,0.8633,0.7895,0.0,0.0,0.0,0.0,0.0,0.0,0.0,0.0,0.0,0.0,0.0,0.0,0.0,0.0,0.0,0.0,0.0,0.0,0.0,0.0,0.0,0.0,1.2814,1.5651,1.6397,1.8704,2.1244,2.2181,2.2985,2.3754,2.4155,2.3971,2.347,2.3,2.2718,2.2497,2.1966,2.1363,2.0868,2.0864,2.0358,1.9739,1.9367,1.9369,1.9576,2.0133,2.0282,2.0714,0.0,0.0,0.0,0.0,0.0,0.0,0.0,0.0,0.0,0.0,0.0,2.7036,2.67,2.7058,2.71,2.6721,2.6865,2.6818,2.6533,2.6658,2.6714,2.6701,2.6647,0.0,0.0,0.0,0.0,0.0,2.4367,2.4394,2.4696,2.3539,2.3339,2.3663,2.3241,2.3392,2.3839,0.0,0.0,0.0,0.0,0.0,0.0,0.0,1.0454,1.0457,0.9877,1.0269,1.02,0.9139,1.0715,1.1848,1.1858,1.3981,0.0,0.0,0.0,0.0,0.0,0.0,0.0,0.0,0.0,1.0449,0.9716,0.8959,0.8118,0.7217,0.6507,0.5875,0.0,0.0,0.0,0.0,0.0,0.0,0.0,0.0,0.0,0.0,0.0,0.0,0.0,0.0,0.0,0.0,0.0,0.0,0.0,0.0,0.0,0.0,1.7584,1.9637,2.158,2.225,2.2903,2.3578,2.4084,2.3813,2.3496,2.3442,2.3214,2.2939,2.2665,2.2213,2.1834,2.1616,2.1197,2.0864,2.0577,2.0471,2.0487,0.0,0.0,0.0,2.2353,0.0,0.0,0.0,0.0,0.0,0.0,0.0,0.0,0.0,0.0,2.7343,2.6818,2.7423,2.732,2.6404,2.7047,2.7157,2.6658,2.6807,2.6739,2.6488,2.6596,0.0,0.0,0.0,0.0,0.0,2.5411,2.5544,2.5795,2.5163,2.5034,2.5052,2.432,2.4239,2.4474,0.0,0.0,0.0,0.0,0.0,0.0,0.0,0.984,1.0046,0.9526,0.9853,0.9905,0.9289,1.0225,1.0946,1.0974,1.2511,0.0,0.0,0.0,0.0,0.0,0.0,0.0,0.0,1.0309,0.9675,0.9012,0.8294,0.7482,0.6631,0.606,0.5477,0.4826,0.4646,0.0,0.0,0.0,0.0,0.0,0.0,0.0,-0.0957,0.0,0.0,0.0,0.0,0.0,0.0,0.0,0.0,0.0,0.0,0.0,0.0,0.0,2.0467,2.2047,2.2509,2.2977,2.3486,2.4153,2.3944,0.0,2.3835,2.3749,2.3629,2.3371,2.3078,2.2775,2.2384,2.2002,2.1544,2.1289,2.0963,2.0915,0.0,0.0,0.0,0.0,0.0,0.0,0.0,0.0,0.0,0.0,0.0,0.0,0.0,0.0,2.7758,2.7184,2.7539,2.7336,2.627,2.6943,2.7081,2.6794,2.7011,2.6917,2.6466,0.0,0.0,0.0,0.0,0.0,0.0,2.5893,2.6111,2.6443,2.5988,2.5893,2.5927,2.5171,2.4897,2.4879,0.0,0.0,0.0,0.0,0.0,0.0,0.0,0.8839,0.9461,0.9458,0.9591,0.9487,0.8996,0.9855,1.0223,0.965,0.0,0.0,0.0,0.0,0.0,0.0,0.0,0.0,0.0,0.9932,0.9257,0.8646,0.7637,0.6785,0.6098,0.5595,0.5042,0.45,0.4608,0.4113,0.3113,0.1301,0.02,-0.0378,-0.0918,-0.0581,0.0,0.0,0.0,0.0,0.0,0.0,0.0,0.0,0.0,0.0,0.0,0.0,0.0,0.0,0.0,0.0,0.0,2.325,2.3537,2.442,2.4352,2.4097,2.4178,2.4336,0.0,2.4178,2.391,2.3569,2.3308,2.2641,2.2075,2.1607,2.1122,2.1072,0.0,2.1908,0.0,0.0,0.0,0.0,0.0,0.0,0.0,0.0,0.0,0.0,0.0,0.0,0.0,2.7557,2.752,2.7209,2.6427,2.6645,2.6863,2.7024,2.7281,2.709,2.6608,0.0,0.0,0.0,0.0,0.0,0.0,2.5948,2.6286,2.6774,2.6148,2.6167,2.6406,2.5881,2.547,2.5234,0.0,0.0,0.0,0.0,0.0,0.0,0.0,0.0,0.0,0.0,0.9408,0.9502,0.9357,0.9712,0.988,0.0,0.0,0.0,0.0,0.0,0.0,0.0,0.0,0.0,0.0,0.9454,0.8772,0.8001,0.7046,0.6142,0.528,0.4385,0.3824,0.3514,0.3388,0.3032,0.2453,0.1234,0.0511,0.02,-0.0132,0.0232,0.0,0.0,0.0,0.0,0.2697,0.311,0.0,0.0,0.0,0.0,0.0,0.0,0.0,0.0,2.0742,2.1924,2.3327,0.0,2.4166,2.4473,2.4365,2.4354,0.0,2.4807,2.4824,2.4805,2.4721,2.4625,2.4515,2.3679,2.3046,2.3155,2.2893,2.2782,2.2818,0.0,0.0,0.0,0.0,0.0,0.0,0.0,0.0,0.0,0.0,0.0,0.0,0.0,0.0,2.7988,2.8122,2.7725,2.6658,2.7053,2.7268,2.7214,2.7683,2.7499,2.6828,0.0,0.0,0.0,0.0,0.0,2.6056,2.6258,2.6592,2.6937,2.7019,2.7149,2.7275,2.6844,2.6397,2.5966,0.0,0.0,0.0,0.0,0.0,0.0,0.0,0.0,0.0,0.0,0.0,0.0,0.0,0.0,0.0,0.0,0.0,0.0,0.0,0.0,0.0,0.0,0.0,0.9405,0.9292,0.8578,0.7797,0.6936,0.6194,0.5348,0.4352,0.372,0.3219,0.292,0.2871,0.2743,0.2508,0.17,0.1187,0.0894,0.0697,0.0,0.0,0.0,0.0,0.0,0.3593,0.4013,0.0,0.6036,0.7756,0.9855,0.0,0.0,0.0,0.0,2.1,2.206,2.3458,2.4166,2.4636,2.511,2.5154,2.5226,2.5641,2.5534,2.5259,2.5066,2.5191,2.5174,2.4576,2.4282,2.4093,2.3963,2.3818,0.0,0.0,0.0,0.0,0.0,0.0,0.0,0.0,0.0,0.0,0.0,0.0,0.0,0.0,0.0,0.0,0.0,2.8545,2.8209,2.7011,2.7323,2.7523,2.7523,2.7947,2.7759,2.7147,0.0,0.0,0.0,0.0,0.0,2.6218,2.6486,2.6817,2.7144,2.7386,2.759,2.768,2.7677,2.7103,2.6377,0.0,0.0,0.0,0.0,0.0,0.0,0.0,0.0,0.0,0.0,0.0,0.0,0.0,0.0,0.0,0.0,0.0,0.0,0.0,0.0,0.0,0.0,0.0,0.8289,0.8454,0.7593,0.6726,0.5828,0.5207,0.4426,0.3475,0.3156,0.2839,0.2589,0.2725,0.2795,0.2828,0.2279,0.1859,0.1603,0.1541,0.0,0.0,0.0,0.0,0.0,0.0,0.0,0.0,0.6779,0.819,0.99,1.2616,0.0,0.0,0.0,0.0,0.0,2.359,2.4474,2.5213,2.5794,2.6098,2.6323,2.6511,2.6203,2.5725,2.5402,2.5607,2.5563,2.4709,2.4949,0.0,0.0,0.0,0.0,0.0,0.0,0.0,0.0,0.0,0.0,0.0,0.0,0.0,0.0,0.0,0.0,0.0,0.0,0.0,0.0,2.8879,2.8686,2.7416,2.7536,2.7723,2.7908,2.8066,2.7994,2.7584,2.7108,0.0,0.0,0.0,0.0,2.6286,2.6674,2.6989,2.7284,2.7524,2.7725,2.789,2.8299,2.769,2.6756,0.0,0.0,0.0,0.0,0.0,0.0,0.0,0.0,0.0,0.0,0.0,0.0,0.0,0.0,0.0,0.0,0.0,0.0,0.0,0.0,0.0,0.0,0.7404,0.7626,0.7263,0.6786,0.62,0.5474,0.4204,0.3355,0.2896,0.2029,0.1913,0.2443,0.2643,0.2695,0.2636,0.2356,0.2208,0.2109,0.2155,0.0,0.0,0.0,0.0,0.0,0.0,0.0,0.0,0.7083,0.8487,1.0245,1.2219,0.0,0.0,0.0,0.0,0.0,2.3801,2.5331,2.6172,2.548,2.6157,2.689,2.6569,2.6422,2.6375,2.6433,2.6385,2.6543,2.7058,2.65,2.6196,0.0,0.0,0.0,0.0,0.0,0.0,0.0,0.0,0.0,0.0,0.0,0.0,0.0,0.0,0.0,0.0,0.0,0.0,0.0,0.0,2.8963,2.7961,2.8118,2.8157,2.8235,2.8457,2.8519,2.8561,2.7577,2.7161,0.0,0.0,2.6111,2.6179,2.6621,2.7041,2.7401,2.764,2.794,2.8186,2.851,2.8249,2.7601,0.0,0.0,0.0,0.0,0.0,0.0,0.0,0.0,0.0,0.0,0.0,0.0,0.0,0.0,0.0,0.0,0.0,0.0,0.0,0.0,0.0,0.5833,0.6164,0.6344,0.6362,0.607,0.5398,0.4318,0.3525,0.2794,0.2157,0.1778,0.1898,0.2399,0.2579,0.2652,0.2709,0.255,0.251,0.2572,0.0,0.0,0.0,0.0,0.0,0.0,0.0,0.0,0.0,0.0,0.8851,1.0219,1.2146,0.0,0.0,0.0,0.0,0.0,2.3285,2.5107,2.6389,2.5945,2.7234,2.8553,2.8347,2.8068,2.774,2.721,2.7448,2.7668,2.7128,0.0,2.7618,2.808,0.0,0.0,0.0,0.0,0.0,0.0,0.0,0.0,0.0,0.0,0.0,0.0,0.0,0.0,0.0,0.0,0.0,0.0,0.0,0.0,2.8406,2.8509,2.8509,2.8444,2.8651,2.878,2.8903,2.7754,2.7276,2.7353,0.0,2.6233,2.6233,2.6765,2.7196,2.7452,2.7806,2.7811,2.7718,2.7749,2.7706,2.7529,0.0,0.0,0.0,0.0,0.0,0.0,0.0,0.0,0.0,0.0,0.0,0.0,0.0,0.0,0.0,0.0,0.0,0.0,0.0,0.0,0.5672,0.5224,0.5163,0.5254,0.549,0.5319,0.4611,0.3368,0.3061,0.2537,0.1826,0.1983,0.2229,0.2629,0.2669,0.2772,0.2832,0.2758,0.2867,0.3043,0.0,0.0,0.0,0.0,0.0,0.0,0.0,0.0,0.0,0.0,0.0,0.0,0.0,0.0,0.0,1.7677,1.9483,2.0976,2.2421,2.4408,2.6132,2.643,2.8091,2.9645,2.9868,2.9554,2.9025,2.8353,2.8749,2.8788,2.7632,2.8311,0.0,2.8904,0.0,0.0,0.0,0.0,0.0,0.0,0.0,0.0,0.0,0.0,0.0,0.0,0.0,0.0,0.0,0.0,0.0,0.0,0.0,0.0,2.878,2.8908,2.8908,2.878,2.8844,2.9035,2.9233,2.7875,2.7395,2.7633,2.6718,2.6326,2.6447,2.7026,2.7335,2.7554,2.7955,2.7869,2.7519,2.7532,2.7423,2.7242,0.0,0.0,0.0,0.0,0.0,0.0,0.0,0.0,0.0,0.0,0.0,0.0,0.0,0.0,0.0,0.0,0.0,0.0,0.0,0.0,0.5022,0.4071,0.4661,0.4889,0.4599,0.4453,0.4038,0.3305,0.285,0.2599,0.2535,0.2485,0.2734,0.3235,0.3111,0.303,0.3003,0.3098,0.3252,0.3398,0.3568,0.0,0.0,0.0,0.0,0.0,0.0,0.0,0.0,0.0,0.0,0.0,0.0,0.0,1.361,1.5553,1.7365,1.9162,2.1373,2.3476,2.5274,2.6449,2.7771,2.9034,3.0015,2.9848,2.9684,3.0443,3.0276,3.0024,2.9992,3.0286,3.0334,0.0,0.0,0.0,0.0,0.0,0.0,0.0,0.0,0.0,0.0,0.0,0.0,0.0,0.0,0.0,0.0,0.0,0.0,0.0,0.0,0.0,2.9247,2.9463,2.9477,2.9352,2.9162,2.9338,2.9704,2.819,2.7703,2.8068,2.6854,2.6486,2.6779,2.7181,2.7554,2.779,2.8201,2.8295,2.8231,2.8878,2.818,2.6942,0.0,0.0,0.0,0.0,0.0,0.0,0.0,0.0,0.0,0.0,0.0,0.0,0.0,0.0,0.0,0.0,0.0,0.0,0.0,0.0,0.5265,0.4372,0.4131,0.3996,0.3931,0.4349,0.4171,0.3412,0.312,0.2775,0.2421,0.2776,0.2863,0.2761,0.2808,0.2828,0.2777,0.3207,0.3478,0.3609,0.3923,0.4272,0.0,0.0,0.0,0.0,0.0,0.0,0.0,0.0,0.9164,0.9907,1.0737,1.1808,1.314,1.488,1.6904,1.9015,2.1092,2.348,2.5685,2.6919,2.809,2.9123,2.9894,3.0594,3.1132,3.1347,3.161,3.1586,3.1053,0.0,3.0881,0.0,0.0,0.0,0.0,0.0,0.0,0.0,0.0,0.0,0.0,0.0,0.0,0.0,0.0,0.0,0.0,0.0,0.0,0.0,0.0,0.0,0.0,2.9884,3.0021,3.0144,2.9699,2.9501,2.9334,2.8363,2.7883,2.7751,2.7035,2.687,2.7078,2.7372,2.774,2.8042,2.8155,2.8539,2.8946,2.8485,2.7996,2.7522,0.0,0.0,0.0,0.0,0.0,0.0,0.0,0.0,0.0,0.0,0.0,0.0,0.0,0.0,0.0,0.0,0.0,0.0,0.6484,0.6083,0.5415,0.4425,0.3758,0.3389,0.3376,0.3908,0.3912,0.3333,0.3307,0.319,0.2959,0.3155,0.3119,0.2878,0.2867,0.2795,0.2739,0.3367,0.3793,0.4012,0.4392,0.4742,0.0,0.0,0.0,0.0,0.0,0.0,0.0,0.0,0.9181,0.979,1.0318,1.1247,1.2363,1.3916,1.5844,1.7932,1.981,2.2352,2.4839,2.6202,2.7512,2.8793,2.9805,3.1029,3.2023,3.2239,3.257,3.2528,3.1757,0.0,0.0,0.0,0.0,0.0,0.0,0.0,0.0,0.0,0.0,0.0,0.0,0.0,0.0,0.0,0.0,0.0,0.0,0.0,0.0,0.0,0.0,0.0,0.0,3.0312,3.0447,3.0762,3.017,2.966,2.9288,2.8656,2.815,2.7719,2.7319,2.7248,2.7437,2.7675,2.8024,2.8384,2.8212,2.8459,2.8849,2.8278,2.7769,2.7361,0.0,0.0,0.0,0.0,0.0,0.0,0.0,0.0,0.0,0.0,0.0,0.0,0.0,0.0,0.0,0.0,0.0,0.0,0.6385,0.6131,0.538,0.3961,0.3568,0.3233,0.2905,0.3047,0.3071,0.3016,0.3353,0.3821,0.4375,0.3705,0.357,0.3863,0.3391,0.3079,0.2949,0.3696,0.4226,0.4613,0.4903,0.5324,0.583,0.0,0.0,0.0,0.0,0.0,0.0,0.0,0.9229,0.9947,1.0346,1.0749,1.1217,1.2362,1.3893,1.5549,1.7237,1.9802,2.2416,2.4024,2.5837,2.7763,2.9815,3.1105,3.2098,3.3183,3.2987,3.2547,3.2437,3.2865,0.0,0.0,0.0,0.0,0.0,0.0,0.0,0.0,0.0,0.0,0.0,0.0,0.0,0.0,0.0,0.0,0.0,0.0,0.0,0.0,0.0,0.0,0.0,3.0821,3.0895,3.1073,3.0424,2.9971,2.9797,2.8999,2.858,2.8278,2.7669,2.7539,2.784,2.8088,2.8494,2.8826,2.836,2.7982,2.7802,2.8623,2.7692,2.6261,0.0,0.0,0.0,0.0,0.0,0.0,0.0,0.0,0.0,0.0,0.0,0.0,0.0,0.0,0.0,0.0,0.0,0.0,0.7649,0.7365,0.6272,0.4193,0.2792,0.2392,0.3087,0.3521,0.3726,0.3701,0.413,0.4266,0.4114,0.3856,0.3521,0.3141,0.3138,0.3146,0.3238,0.4212,0.4768,0.508,0.5588,0.5861,0.6037,0.0,0.0,0.0,0.0,0.0,0.0,0.0,0.0,0.0,0.9624,1.0437,1.1283,1.2101,1.3942,1.6086,1.7979,2.0617,2.3307,2.5243,2.6987,2.8586,3.0112,3.1288,3.2437,3.3779,3.3818,3.3451,3.3105,0.0,0.0,0.0,0.0,0.0,0.0,0.0,0.0,0.0,0.0,0.0,0.0,0.0,0.0,0.0,0.0,0.0,0.0,0.0,0.0,0.0,0.0,0.0,0.0,0.0,3.1234,3.1351,3.0795,3.0116,2.9307,2.8769,2.8263,2.7793,2.7831,2.7955,2.825,2.8653,2.837,2.7743,2.8361,2.8702,2.8755,2.8092,2.7864,2.7851,0.0,0.0,0.0,0.0,0.0,0.0,0.0,0.0,0.0,0.0,0.0033,0.0,0.0,0.0,0.0,0.0,0.0,0.0,0.0,0.708,0.5479,0.3081,0.2252,0.2202,0.2954,0.3611,0.4113,0.444,0.4847,0.4855,0.4431,0.4047,0.3539,0.2902,0.2862,0.301,0.3326,0.4345,0.5128,0.575,0.629,0.6683,0.6956,0.0,0.0,0.0,0.0,0.0,0.0,0.0,0.0,0.0,0.9098,0.9801,1.0572,1.1406,1.3152,1.5211,1.7142,1.9899,2.2703,2.472,2.6791,2.8763,3.0461,3.163,3.2641,0.0,3.3863,3.3874,3.367,0.0,0.0,0.0,0.0,0.0,0.0,0.0,0.0,0.0,0.0,0.0,0.0,0.0,0.0,0.0,0.0,0.0,0.0,0.0,0.0,0.0,0.0,0.0,0.0,0.0,0.0,3.1306,3.0684,2.9952,2.9131,2.8847,2.8408,2.7925,2.7959,2.8044,2.8217,2.829,2.7942,2.7364,2.7842,2.8192,2.8372,2.769,2.7584,2.7724,0.0,0.0,0.0,0.0,0.0,0.0,0.0,0.0,0.0,0.0,-0.0335,0.0798,0.0,0.0,0.0,0.0,0.0,0.0,0.0,0.0,0.3706,0.1363,0.1996,0.2456,0.2567,0.3516,0.4341,0.503,0.5425,0.5442,0.5089,0.4205,0.3526,0.3027,0.2659,0.2784,0.3274,0.4223,0.5333,0.6514,0.6942,0.7557,0.8222,0.7847,0.0,0.0,0.0,0.0,0.0,0.0,0.0,0.0,0.8773,0.9085,0.9491,1.051,1.189,1.3496,1.552,1.8278,2.1088,2.3063,2.5782,2.8527,3.0728,3.1892,3.2579,3.2983,0.0,3.3969,0.0,0.0,0.0,0.0,0.0,0.0,0.0,0.0,0.0,0.0,0.0,0.0,0.0,0.0,0.0,0.0,0.0,0.0,0.0,0.0,0.0,0.0,0.0,0.0,0.0,0.0,0.0,0.0,3.0456,2.9892,2.9322,2.9063,2.8752,2.8321,2.8076,2.7852,2.774,2.7391,2.7285,2.734,2.6958,2.7,2.7267,2.7401,2.7071,2.6721,0.0,0.0,0.0,0.0,0.0,0.0,0.0,0.0,0.0,0.0,0.0,0.0,0.0,0.0,0.0,0.0,0.0,0.0,0.0,0.0,0.376,0.2493,0.2471,0.2441,0.2365,0.394,0.467,0.447,0.5391,0.5606,0.5164,0.4125,0.3266,0.2548,0.251,0.2862,0.3495,0.4255,0.5294,0.6458,0.6867,0.7381,0.7885,0.7693,0.7552,0.0,0.0,0.0,0.0,0.0,0.0,0.0,0.8608,0.9291,0.9983,1.0855,1.1878,1.3252,1.5857,1.7791,1.9875,2.3299,2.6314,2.8721,2.9809,3.0684,3.1729,3.3321,3.3705,3.3985,0.0,0.0,0.0,0.0,0.0,0.0,0.0,0.0,0.0,0.0,0.0,0.0,0.0,0.0,0.0,0.0,0.0,0.0,0.0,0.0,0.0,0.0,0.0,0.0,3.194,3.2094,3.2074,0.0,3.1467,3.0985,3.039,2.9089,2.8338,2.7998,2.8023,2.7522,2.6707,2.7338,2.7081,2.6372,2.6911,2.7358,2.7616,2.7199,2.7352,2.7794,0.0,0.0,0.0,0.0,0.0,0.0,0.0,0.0,0.0,0.0,0.0,0.0,0.0,0.0,0.0,0.0,0.0,0.0,0.0,0.0,0.4128,0.2988,0.2447,0.2325,0.2668,0.3883,0.4494,0.445,0.52,0.5199,0.4473,0.3539,0.2664,0.1831,0.194,0.2431,0.328,0.4179,0.5511,0.7064,0.7492,0.8158,0.8818,0.8603,0.8372,0.8078,0.75,0.0,0.0,0.0,0.0,0.0,0.0,0.0,0.9398,1.0032,1.1109,1.2581,1.4921,1.6682,1.8966,2.3495,2.617,2.8003,2.9245,3.0149,3.1193,3.2659,3.3503,0.0,0.0,0.0,0.0,0.0,0.0,0.0,0.0,0.0,0.0,0.0,0.0,0.0,0.0,0.0,0.0,0.0,0.0,0.0,0.0,0.0,0.0,0.0,0.0,0.0,3.2191,3.2428,3.2384,3.2152,3.1576,3.0908,3.0164,2.9218,2.8513,2.8018,2.7862,2.7285,2.6438,2.6668,2.6477,2.6148,2.6564,2.695,2.7249,2.6928,2.7147,2.7621,0.0,0.0,0.0,0.0,0.0,0.0,0.0,0.0,0.0,0.0,0.0,0.0,0.0,0.0,0.0,0.0,0.0,0.0,0.0,0.0,0.0,0.3242,0.2386,0.2289,0.3083,0.3609,0.4047,0.4398,0.4722,0.4326,0.3265,0.273,0.1975,0.106,0.1249,0.1874,0.2878,0.3892,0.5537,0.7517,0.8024,0.8901,0.9816,0.951,0.9222,0.8838,0.7941,0.7513,0.734,0.7004,0.0,0.0,0.0,0.0,0.8425,0.8867,0.9957,1.1448,1.3311,1.5512,1.8415,2.308,2.5229,2.6672,2.8545,2.9575,3.0456,3.1655,0.0,0.0,0.0,0.0,0.0,0.0,0.0,0.0,0.0,0.0,0.0,0.0,0.0,0.0,0.0,0.0,0.0,0.0,0.0,0.0,0.0,0.0,0.0,0.0,0.0,3.2773,3.2523,3.2648,3.2535,3.2112,3.1344,3.0577,2.9797,2.9534,2.8978,2.812,2.7714,2.7155,2.6487,2.5999,2.5974,2.6274,2.6274,2.6486,2.6742,2.6758,2.6875,2.7072,0.0,0.0,0.0,0.0,0.0,0.0,0.0,0.0,0.0,0.0,0.0,0.0,0.0,0.0,0.0,0.0,0.0,0.0,0.0,0.0,0.0,0.3626,0.2842,0.2623,0.3092,0.3285,0.3442,0.3563,0.3616,0.2915,0.1535,0.1911,0.1512,0.0526,0.0821,0.1533,0.2525,0.3295,0.4775,0.6622,0.7266,0.8257,0.9292,0.9052,0.8911,0.8705,0.7701,0.7144,0.6841,0.6505,0.6442,0.0,0.0,0.0,0.7703,0.8126,0.8684,0.9567,1.1382,1.4866,1.8491,2.0702,2.2709,2.4734,0.0,0.0,2.8815,0.0,0.0,0.0,0.0,0.0,0.0,0.0,0.0,0.0,0.0,0.0,0.0,0.0,0.0,0.0,0.0,0.0,0.0,0.0,0.0,0.0,0.0,3.3065,3.3203,3.3043,3.2951,0.0,3.2843,3.2379,3.2123,3.2183,3.1326,3.0914,3.0855,3.031,2.93,2.7924,2.7753,2.7118,2.6228,2.6181,2.6312,2.6624,2.6624,2.6759,2.6975,2.704,2.712,2.723,0.0,0.0,0.0,0.0,0.0,0.0,0.0,0.0,0.0,0.0,0.0,0.0,0.0,0.0,0.0,0.0,0.0,0.0,0.0,0.0,0.0,0.3486,0.2947,0.2809,0.309,0.3418,0.3487,0.3285,0.3592,0.2692,0.071,0.1171,0.0676,-0.0587,-0.0109,0.062,0.1538,0.2788,0.4396,0.6144,0.6955,0.7541,0.8007,0.8985,0.8643,0.7714,0.7999,0.7617,0.6939,0.6669,0.6585,0.6599,0.6752,0.0,0.0,0.0,0.865,0.9608,1.1576,1.4221,1.6936,1.905,2.0721,2.2514,2.508,2.6576,2.7879,0.0,0.0,0.0,0.0,0.0,0.0,0.0,0.0,0.0,0.0,0.0,0.0,0.0,0.0,0.0,0.0,0.0,0.0,0.0,0.0,0.0,3.2592,3.253,3.246,3.231,3.226,0.0,3.2069,3.1908,3.174,3.1566,3.1172,3.0896,3.0707,3.0336,2.9361,2.7963,2.7963,2.7301,2.622,2.6293,2.6469,2.6691,2.6792,2.6892,2.704,2.6925,2.707,2.7386,0.0,0.0,0.0,0.0,0.0,0.0,0.0,0.0,0.0,0.0,0.0,0.0,0.0,0.0,0.0,0.0,0.0,0.0,0.0,0.0,0.0,0.3162,0.274,0.2686,0.3035,0.3405,0.3495,0.3302,0.3725,0.2815,0.07,0.0618,-0.022,-0.1633,-0.098,-0.0213,0.0679,0.2169,0.379,0.5407,0.6224,0.6634,0.6922,0.8087,0.77,0.665,0.7532,0.7396,0.6754,0.6589,0.6515,0.6527,0.6683,0.7212,0.0,0.0,0.0,0.9709,1.1477,1.3198,1.5003,1.7192,1.8659,2.0263,0.0,0.0,0.0,0.0,0.0,0.0,0.0,0.0,0.0,0.0,0.0,0.0,0.0,0.0,0.0,0.0,0.0,0.0,0.0,0.0,0.0,0.0,0.0,0.0,3.2298,3.2082,3.1947,3.1805,3.1758,3.1678,3.1469,3.1502,3.1286,3.0875,3.092,3.0756,3.0401,3.0161,2.9486,2.8448,2.8322,2.7545,2.6329,2.6469,2.664,2.6791,2.6909,2.7007,2.7072,2.6908,2.7103,2.7448,0.0,0.0,0.0,0.0,0.0,0.0,0.0,0.0,0.0,0.0,0.0,0.0,-0.6434,-0.486,-0.2712,0.0063,0.0,0.0,0.0,0.0,0.0,0.2729,0.2105,0.0,0.2893,0.2994,0.3219,0.3575,0.3675,0.3065,0.1783,0.0349,-0.1054,-0.2317,-0.1515,-0.0642,0.0301,0.1346,0.2674,0.4141,0.4567,0.5447,0.6438,0.5625,0.5554,0.5838,0.5641,0.5693,0.5861,0.5775,0.5837,0.5978,0.6175,0.6655,0.7205,0.0,0.0,0.0,0.9968,1.1498,1.3187,1.4716,1.6238,1.8019,0.0,0.0,0.0,0.0,0.0,0.0,0.0,0.0,0.0,0.0,0.0,0.0,0.0,0.0,0.0,0.0,0.0,0.0,0.0,0.0,0.0,0.0,0.0,0.0,3.1798,3.2093,3.2196,3.2071,3.1947,3.1805,3.171,3.1207,3.0709,3.0254,3.045,3.0518,3.0493,2.9942,2.9727,2.966,2.8826,2.7808,2.6691,2.6809,2.6975,2.7103,2.7105,2.7105,2.7105,2.7218,2.7264,2.7276,0.0,0.0,0.0,0.0,0.0,0.0,0.0,0.0,0.0,0.0,0.0,0.0,0.0,-0.6059,-0.4371,-0.1843,-0.0467,0.0,0.0,0.0,0.0,0.1543,0.14,0.1552,0.2056,0.242,0.3059,0.3981,0.3148,0.2272,0.1379,0.0998,-0.0465,-0.2744,-0.1636,-0.1189,-0.116,0.058,0.188,0.2825,0.345,0.374,0.389,0.4758,0.4581,0.0,0.0,0.0,0.5227,0.5253,0.5446,0.5775,0.6188,0.6802,0.7504,0.8254,0.871,0.9204,1.0162,1.1314,1.2582,1.3984,1.5166,1.6483,1.8413,0.0,0.0,0.0,0.0,0.0,0.0,0.0,0.0,0.0,0.0,0.0,0.0,0.0,0.0,0.0,0.0,0.0,0.0,0.0,0.0,0.0,0.0,0.0,3.1419,3.1383,3.1305,3.1073,3.0898,3.0782,3.0721,3.0538,3.0451,3.0401,3.0443,3.0443,3.0493,2.9902,2.9727,2.9832,2.9168,2.8653,2.8235,2.793,2.7877,2.8012,2.7459,2.7218,2.7218,2.7299,2.7373,2.7552,0.0,0.0,0.0,0.0,0.0,0.0,0.0,0.0,0.0,-1.0146,0.0,0.0,0.0,0.0,-0.554,-0.3091,-0.1758,-0.077,-0.002,0.0337,0.0415,0.0145,0.0255,0.0504,0.0887,0.1509,0.236,0.3428,0.3251,0.2336,0.0741,0.1258,0.0021,-0.2602,-0.1673,-0.1385,-0.1523,-0.0331,0.0682,0.1555,0.1961,0.2131,0.2243,0.3202,0.0,0.0,0.0,0.0,0.0,0.4677,0.0,0.0,0.6193,0.7132,0.8153,0.8939,0.9251,0.9492,1.0197,1.1219,1.2279,0.0,1.4242,1.5343,1.6345,0.0,0.0,0.0,0.0,0.0,0.0,0.0,0.0,0.0,0.0,0.0,0.0,0.0,0.0,0.0,0.0,0.0,0.0,0.0,0.0,0.0,0.0,0.0,3.1329,3.119,3.0975,3.0651,3.0401,3.0316,3.0316,3.0274,3.0359,3.0526,3.0526,3.0452,3.0186,2.9905,2.9866,2.9985,2.9734,2.933,2.8853,2.8492,2.8318,2.813,2.754,2.7299,2.7313,2.739,2.7539,2.7701,0.0,0.0,0.0,0.0,0.0,0.0,0.0,0.0,-1.1555,-1.1571,0.0,0.0,0.0,0.0,0.0,-0.3502,-0.3274,-0.2891,-0.2012,-0.1161,-0.0902,-0.1386,0.0,0.0,0.0,0.0224,0.104,0.1847,0.3914,0.3193,-0.0085,0.0954,0.0247,-0.1886,-0.1754,-0.1294,-0.0665,-0.1349,-0.0852,0.0348,0.0,0.0725,0.1667,0.0,0.0,0.0,0.2319,0.2847,0.0,0.4053,0.0,0.0,0.0,0.0,0.0,0.0,0.9617,0.9817,0.0,0.0,0.0,0.0,0.0,0.0,1.4359,0.0,0.0,0.0,0.0,0.0,0.0,0.0,0.0,0.0,0.0,0.0,0.0,0.0,0.0,0.0,0.0,0.0,0.0,0.0,0.0,0.0,0.0,3.2002,3.1582,3.1542,3.1312,3.0878,3.0634,3.0526,3.0485,3.0443,3.0426,3.0477,3.0757,3.0413,2.9593,2.9968,3.0173,3.0207,3.0537,2.9817,2.8505,2.8535,2.81,2.7456,2.7362,2.733,2.7345,2.76,2.7701,2.7701,0.0,0.0,0.0,0.0,0.0,0.0,-1.441,-1.3894,-1.3433,0.0,0.0,0.0,-1.0818,-0.8909,-0.6996,-0.5247,-0.4852,-0.4332,-0.3411,-0.2812,-0.2228,-0.1641,-0.1633,-0.1896,-0.2437,-0.1233,-0.023,0.0524,0.0683,-0.0469,-0.2782,-0.0953,-0.0693,-0.1816,-0.3364,-0.2928,-0.0991,-0.027,-0.0211,-0.0511,0.0626,0.0995,0.0,0.0,0.0,0.0,0.0,0.2737,0.3155,0.0,0.4102,0.4884,0.0,0.0,0.8512,0.0,0.9178,0.9332,0.9867,0.0,0.0,0.0,0.0,0.0,0.0,0.0,0.0,0.0,0.0,0.0,0.0,0.0,0.0,0.0,0.0,0.0,0.0,0.0,0.0,0.0,0.0,0.0,0.0,0.0,0.0,0.0,3.1608,3.1237,3.0902,3.1138,3.0842,2.9932,3.0368,3.0568,3.0443,3.0443,3.0203,2.9715,2.9869,2.9582,2.887,2.8578,2.9187,3.0411,3.0005,3.0075,3.0379,2.9706,2.9117,2.8572,2.7866,2.7677,2.7813,2.7882,2.7836,2.7701,0.0,0.0,0.0,0.0,0.0,-1.6915,-1.6194,-1.5628,-1.5133,0.0,0.0,0.0,-1.1923,-1.0184,-0.8577,-0.7097,-0.6245,-0.5328,-0.4221,-0.3801,-0.3246,-0.253,-0.2393,-0.2659,-0.3353,-0.267,-0.1985,-0.1328,-0.0793,-0.1387,-0.301,-0.217,-0.183,-0.1961,-0.3162,-0.306,-0.1871,0.0113,0.0,0.0,0.0605,0.0,0.0,0.09,0.1235,0.0,0.0,0.0,0.2868,0.3112,0.3878,0.0,0.0,0.0,0.0,0.0,0.0,0.8992,0.9694,1.0413,1.1137,0.0,0.0,0.0,1.3936,1.4815,0.0,0.0,0.0,0.0,0.0,0.0,0.0,0.0,0.0,0.0,0.0,0.0,0.0,0.0,0.0,0.0,0.0,0.0,0.0,0.0,3.1244,3.062,3.0231,3.0304,3.0176,2.9716,3.0072,3.0335,3.0443,3.0485,3.0162,2.9473,2.9593,2.9176,2.825,2.8332,2.8851,2.9609,2.9609,2.9863,3.0211,2.9659,2.9085,2.8487,2.7994,2.7911,2.8099,2.8099,2.7922,2.7701,0.0,0.0,-2.073,-2.0238,-1.9374,-1.8544,-1.801,-1.722,-1.6682,0.0,-1.6321,-1.5292,-1.3238,-1.1832,-1.0545,-0.9233,-0.764,-0.6152,-0.4811,-0.4543,-0.4262,-0.388,-0.3517,-0.3434,-0.37,-0.3916,-0.3787,-0.3319,-0.1266,-0.0865,-0.2034,-0.2789,-0.2829,-0.2257,0.0,0.0,-0.2678,0.0,0.0,0.0063,0.0376,0.0473,0.0,0.0,0.1049,0.153,0.1799,0.2191,0.2616,0.2883,0.3835,0.0,0.0,0.0,0.0,0.0,0.8563,0.8599,0.9313,1.0106,1.0791,0.0,0.0,0.0,1.281,1.3909,0.0,0.0,0.0,0.0,0.0,0.0,0.0,0.0,0.0,0.0,0.0,0.0,0.0,0.0,0.0,0.0,0.0,0.0,3.2447,3.219,3.0955,3.0039,2.9572,2.9317,2.9377,2.9732,2.9727,2.9899,3.0278,3.0361,3.0054,2.9337,2.9421,2.8837,2.7723,2.856,2.875,2.847,2.9327,2.9438,2.9048,2.9009,2.8481,2.773,2.7864,2.8025,2.8182,2.8182,2.8025,2.776,0.0,0.0,-2.0261,-2.033,-1.9632,-1.8977,-1.8692,-1.8533,-1.8302,-1.7906,-1.7508,-1.7131,-1.6767,-1.3937,-1.2095,-1.2283,-0.9675,-0.7506,-0.626,-0.6336,-0.6167,-0.5558,-0.495,-0.4557,-0.4401,-0.4297,-0.416,-0.3998,-0.2614,-0.241,-0.331,-0.2527,-0.2386,-0.2738,0.0,0.0,0.0,0.0,0.0,0.0295,0.0941,0.0,0.0087,0.07,0.1145,0.1476,0.1853,0.218,0.2528,0.3098,0.3612,0.4109,0.0,0.0,0.0,0.6422,0.0,0.0,0.0,0.0,0.0,0.0,0.0,0.0,1.3416,1.3949,1.4292,0.0,0.0,0.0,0.0,0.0,0.0,0.0,0.0,0.0,0.0,0.0,0.0,0.0,0.0,0.0,0.0,0.0,3.098,3.0643,2.9733,2.9029,2.8693,2.899,2.8864,2.8174,2.9152,2.9438,2.8904,2.9503,2.9121,2.7844,2.8012,2.7685,2.6928,2.7266,2.7856,2.8665,2.8853,2.9341,2.9991,2.9281,2.8588,2.794,2.7979,2.8007,2.8063,2.8154,2.8154,2.8099,-2.1313,-2.1168,-2.1138,-2.1332,-2.0902,-2.0441,-2.0425,-2.0366,-2.0185,-1.982,-1.9435,-1.8888,-1.8038,-1.5906,-1.4183,-1.3292,-1.1159,-0.9467,-0.8555,-0.7681,-0.6884,-0.6179,-0.5411,-0.4914,-0.4749,-0.4519,-0.4299,-0.4093,-0.3294,-0.307,-0.3387,-0.2539,-0.2491,-0.3068,-0.2329,0.0,0.0,0.0,-0.1392,-0.1325,0.0051,0.0,0.0293,0.0701,0.1086,0.1435,0.1664,0.2033,0.2523,0.3291,0.3551,0.0,0.0,0.4742,0.4986,0.0,0.6145,0.6586,0.0,0.0,0.0,0.97,0.0,0.0,0.0,1.3325,1.4076,0.0,0.0,0.0,0.0,0.0,0.0,0.0,0.0,0.0,0.0,0.0,0.0,0.0,0.0,0.0,0.0,0.0,2.9953,2.9351,2.8389,2.7689,2.7324,2.7448,2.7453,2.7249,2.8222,2.8645,2.8548,2.8915,2.8586,2.7557,2.7647,2.7401,2.6859,2.6942,2.7407,2.8088,2.8136,2.8544,2.913,2.8729,2.8379,2.8136,2.8035,2.8035,2.8119,2.8182,2.8182,2.8209,-2.1606,-2.1832,-2.2127,-2.2408,-2.2188,-2.1971,-2.2046,-2.1906,-2.1744,-2.1551,-2.128,-2.0515,-1.9027,-1.8058,-1.6707,-1.4734,-1.3141,-1.1993,-1.146,-0.9371,-0.7856,-0.7188,-0.609,-0.5442,-0.5314,-0.4988,-0.4567,-0.4022,0.0,0.0,0.0,-0.2736,0.0,0.0,-0.2627,-0.2462,-0.2539,0.0,0.0,-0.2889,0.0,-0.0274,0.0224,0.0502,0.0873,0.1301,0.1521,0.1929,0.2491,0.3271,0.3354,0.3288,0.4043,0.4188,0.0,0.0,0.0,0.0,0.0,0.0,0.0,0.0,0.0,1.0975,0.0,0.0,0.0,1.3926,0.0,0.0,0.0,0.0,0.0,0.0,0.0,0.0,0.0,0.0,0.0,0.0,0.0,0.0,0.0,0.0,2.8969,2.8293,2.7243,2.6498,2.6236,2.5819,2.5839,2.6285,2.7045,2.7593,2.7935,2.8219,2.8059,2.7446,2.7481,2.7232,2.672,2.6802,2.6977,2.7287,2.7377,2.7625,2.8014,2.8099,2.8209,2.8327,2.8146,2.8146,2.8246,2.8264,2.8264,2.8318,-2.2018,-2.1712,-2.1729,-2.2531,-2.2332,-2.2209,-2.2528,-2.2209,-2.1975,-2.2234,-2.2255,-2.2048,-2.1614,-2.067,-1.9931,-1.9527,0.0,0.0,-1.5138,0.0,-1.0696,-1.0307,-0.8361,-0.7144,-0.6773,-0.6265,-0.5375,-0.4088,-0.3687,0.0,0.0,0.0,0.0,0.0,-0.2993,0.0,0.0,0.0,-0.2952,0.0,-0.2093,-0.169,0.0,-0.0123,0.0479,0.0876,0.1673,0.2101,0.2364,0.0,0.2646,0.243,0.0,0.3157,0.3185,0.0,0.0,0.0,0.0,0.0,0.0,0.0,0.9201,0.0,0.0,0.0,1.2956,1.3684,0.0,1.5114,1.5127,0.0,0.0,0.0,0.0,0.0,0.0,0.0,0.0,0.0,0.0,0.0,0.0,0.0,0.0,2.7693,2.6638,2.6068,2.6202,2.5227,2.4613,2.4508,2.5764,2.618,2.5597,2.6861,2.7145,2.6447,2.6655,2.6371,2.5776,2.6016,2.6264,2.6533,2.665,2.7208,2.8014,2.8126,2.83,2.8484,2.8432,2.8424,2.838,2.851,2.8562,2.8536,-2.2012,-2.1981,-2.2153,-2.2689,-2.2449,-2.2367,-2.2827,-2.3029,-2.3125,-2.3049,-2.3363,-2.3329,0.0,0.0,0.0,0.0,0.0,-1.7776,0.0,0.0,-1.2914,-1.1666,0.0,0.0,-0.7247,-0.6403,-0.543,-0.434,-0.386,-0.3535,0.0,0.0,0.0,0.0,-0.4115,0.0,-0.4106,0.0,-0.4234,0.0,0.0,0.0,0.0,-0.0181,0.0732,0.1284,0.1806,0.2108,0.2311,0.0,0.261,0.0,0.0,0.0,0.0,0.0,0.0,0.0,0.0,0.0,0.0,0.0,0.0,0.0,1.0432,0.0,1.2704,0.0,0.0,0.0,0.0,0.0,0.0,0.0,0.0,0.0,0.0,0.0,0.0,0.0,0.0,0.0,0.0,0.0,0.0,0.0,0.0,2.4647,2.4958,2.4223,2.3728,2.3589,2.4463,2.483,2.4613,2.523,2.5631,2.5782,2.5479,2.5426,2.5656,2.5401,2.5436,2.5732,2.6384,2.6939,2.7396,2.8013,2.8353,2.8492,2.8536,2.8536,2.8536,2.8662,2.8712,2.8712,-2.2623,-2.2575,-2.2665,-2.2969,-2.2745,-2.2649,-2.3057,0.0,0.0,0.0,0.0,0.0,-2.3895,-2.3231,0.0,0.0,-2.1741,-2.0294,0.0,0.0,-1.5168,0.0,0.0,0.0,0.0,-0.7507,-0.6227,-0.4889,-0.4626,-0.4289,0.0,0.0,0.0,0.0,0.0,-0.5247,-0.5317,0.0,-0.5059,-0.4138,-0.3867,-0.2957,-0.1611,-0.0101,0.0941,0.1618,0.18,0.1953,0.2147,0.2544,0.2473,0.0,0.2448,0.0,0.0,0.0,0.0,0.0,0.398,0.0,0.0,0.0,0.0,0.0,0.0,0.0,0.0,0.0,0.0,0.0,0.0,0.0,1.5143,0.0,0.0,0.0,0.0,0.0,0.0,0.0,0.0,0.0,0.0,0.0,0.0,0.0,0.0,0.0,2.3719,2.2846,2.2446,2.2742,2.3089,2.3438,2.3783,2.3934,2.4381,2.4996,2.4557,2.4599,2.5077,2.468,2.4654,2.4958,2.5754,2.6393,2.6979,2.77,2.8216,2.8543,2.8612,2.8662,2.8712,2.8761,2.881,2.8858,-2.4047,-2.3531,-2.3138,-2.3343,0.0,0.0,0.0,0.0,0.0,0.0,0.0,0.0,0.0,0.0,0.0,0.0,0.0,-2.3407,-2.2582,0.0,-1.7755,0.0,0.0,-1.2592,0.0,0.0,0.0,-0.5844,-0.6296,-0.6004,0.0,-0.5502,-0.5734,-0.5767,-0.5761,-0.5596,-0.5293,-0.524,-0.4965,-0.4509,-0.3723,-0.2535,-0.1101,0.0,0.0896,0.16,0.1538,0.0,0.0,0.2056,0.1951,0.0,0.0,0.0,0.0,0.0,0.0,0.0,0.0,0.0,0.0,0.7032,0.0,0.0,0.0,0.0,1.1671,0.0,0.0,0.0,0.0,1.5195,1.5195,1.5198,0.0,0.0,0.0,0.0,0.0,0.0,0.0,0.0,0.0,0.0,0.0,0.0,0.0,0.0,2.2805,2.0908,2.045,2.1811,2.1544,2.1825,2.2735,2.3324,2.3718,2.3951,2.413,2.3936,2.349,2.3727,2.3977,2.4235,2.44,2.5427,2.7022,2.7169,2.7814,2.8694,2.8694,2.881,2.897,2.8834,2.8881,2.897,-2.4234,-2.4305,-2.4129,-2.3417,0.0,0.0,0.0,-2.392,0.0,0.0,0.0,0.0,0.0,-2.7352,-2.7466,0.0,0.0,-2.4983,-2.384,-2.1117,0.0,0.0,0.0,-1.3581,0.0,0.0,0.0,0.0,0.0,0.0,-0.5977,-0.6256,-0.6228,-0.5951,0.0,-0.6335,0.0,0.0,0.0,0.0,0.0,-0.1938,-0.1002,0.0,0.0,0.1206,0.1231,0.145,0.0,0.176,0.1836,0.1877,0.1769,0.2017,0.2341,0.241,0.2877,0.0,0.0,0.0,0.5494,0.6328,0.0,0.0,0.0,0.0,0.0,0.0,0.0,0.0,0.0,0.0,1.5206,1.5267,1.5297,1.5319,0.0,0.0,0.0,0.0,0.0,0.0,0.0,0.0,0.0,0.0,0.0,0.0,0.0,1.997,1.9479,1.9868,1.9601,1.9891,2.0828,2.1149,2.1843,2.2965,2.2789,2.2886,2.3253,2.3134,2.3197,2.344,2.4169,2.4882,2.5595,2.6219,2.6718,2.7113,2.7255,2.7343,2.7533,2.8567,2.897,2.8975,-2.5087,-2.5154,0.0,0.0,0.0,0.0,0.0,0.0,0.0,0.0,-2.7735,0.0,-2.9833,0.0,-2.8788,0.0,-2.7859,-2.5983,-2.422,-2.2407,0.0,-1.8836,-1.6679,0.0,0.0,0.0,0.0,0.0,0.0,-0.7852,-0.6823,-0.7008,-0.6879,-0.6543,0.0,-0.6546,-0.6123,0.0,-0.5745,0.0,0.0,-0.1983,0.0,0.0,0.0591,0.0,0.0,0.1082,0.135,0.138,0.1549,0.1744,0.1686,0.1893,0.2201,0.2412,0.283,0.332,0.3778,0.4685,0.0,0.0,0.7552,0.0,0.9171,0.0,0.0,0.0,0.0,0.0,0.0,0.0,1.4527,1.4123,1.4264,1.4411,0.0,1.3561,0.0,0.0,0.0,0.0,0.0,0.0,0.0,0.0,1.8397,0.0,0.0,0.0,1.8455,1.8869,1.8249,1.8345,1.9326,1.9433,2.0048,2.1228,2.1072,2.1511,2.2461,2.2293,2.2531,2.3063,2.3746,2.4361,2.4905,2.5479,2.5978,2.6407,2.6536,2.6641,2.6868,2.8169,2.8809,2.9044,-2.645,0.0,0.0,0.0,-2.4942,0.0,0.0,0.0,-2.791,0.0,-2.9322,-3.0134,-3.1653,-3.0237,-2.947,-3.0212,-2.8606,0.0,-2.4116,-2.3479,0.0,0.0,-1.8413,-1.7201,-1.6068,0.0,0.0,0.0,0.0,0.0,-0.766,-0.7768,-0.7678,-0.7414,-0.6842,0.0,-0.565,-0.5727,-0.5338,-0.4579,-0.3389,-0.2627,-0.2075,-0.0889,0.0,0.0615,0.0513,0.057,0.0715,0.0922,0.1121,0.1346,0.1677,0.1851,0.2028,0.2423,0.274,0.3097,0.3739,0.476,0.5933,0.7094,0.0,0.0,0.0,0.0,1.0446,0.0,0.0,0.0,0.0,0.0,0.0,1.2012,1.2363,1.2771,1.2728,0.0,0.0,0.0,0.0,0.0,0.0,0.0,1.4331,1.3515,1.5989,1.7577,0.0,0.0,0.0,1.8596,1.7379,1.7182,1.8177,1.8207,1.8436,1.8869,1.9223,1.9942,2.1039,2.1224,2.1927,2.2996,2.3105,2.3815,2.4882,2.4918,2.5564,2.6491,2.6486,2.6646,2.6934,2.771,2.8424,2.9042,-2.6933,-2.7441,-2.7818,0.0,-2.6399,-2.5908,0.0,0.0,0.0,0.0,-3.1187,-3.2013,-3.3593,-3.2103,-3.1181,-3.1653,-2.9492,0.0,0.0,0.0,0.0,-2.0742,-1.8893,-1.7601,-1.6905,-1.4269,0.0,-1.1951,0.0,0.0,-0.8479,-0.8121,-0.7431,0.0,0.0,0.0,-0.6219,-0.5508,-0.4876,-0.425,-0.3395,-0.2733,0.0,0.0,-0.0715,-0.0352,0.0111,0.0368,0.0524,0.0826,0.0991,0.1125,0.141,0.1994,0.2472,0.1943,0.2661,0.3721,0.4091,0.4608,0.5121,0.5532,0.6794,0.7979,0.0,0.0,0.0,0.0,0.0,0.0,0.0,0.0,0.0,1.1997,1.2317,1.2373,0.0,0.0,0.0,0.9331,0.0,0.0,0.0,0.0,1.3369,1.3886,1.4795,1.569,0.0,0.0,0.0,1.6423,1.5846,1.593,1.6732,1.6875,1.7502,1.8513,1.8911,1.9416,2.001,2.0348,2.0798,2.1371,2.2117,2.2779,2.3345,2.399,2.4476,2.4836,2.4986,2.5502,2.6281,2.738,2.7936,2.8234,-2.7611,0.0,0.0,-2.9644,0.0,0.0,-2.9115,0.0,0.0,-3.198,-3.2468,0.0,-3.3758,-3.2757,-3.1949,-3.1735,-2.9776,0.0,-2.6168,0.0,0.0,-2.0697,-1.9299,-1.817,-1.7317,-1.5293,0.0,-1.2577,0.0,0.0,-0.8486,-0.8011,0.0,0.0,0.0,-0.5889,-0.5638,-0.503,-0.4622,-0.4319,-0.3789,0.0,0.0,-0.2164,-0.1668,-0.1267,-0.0478,-0.0105,0.0121,0.0831,0.1198,0.1433,0.1911,0.2523,0.2996,0.2614,0.3204,0.4132,0.4821,0.5492,0.6133,0.6586,0.7733,0.8734,0.8744,0.9519,1.0364,0.0,0.0,0.0,0.0,0.0,0.0,1.1147,0.0,0.0,0.0,0.0,0.0,0.0,0.0,0.0,0.0,0.0,1.1611,1.2585,1.3372,1.4219,0.0,0.0,0.0,1.4718,1.4471,1.4513,1.4958,1.537,1.6062,1.7061,1.7546,1.8226,1.9029,1.9428,2.0003,2.0735,2.1423,2.1911,2.2243,2.2812,2.3327,2.3856,2.4379,2.4909,2.5466,2.6131,2.6991,2.796,-2.845,0.0,0.0,0.0,0.0,0.0,0.0,-3.1347,0.0,-3.3066,0.0,-3.362,-3.3324,-3.2872,-3.223,-3.1252,0.0,-2.7947,-2.5472,-2.4752,-2.3177,-2.0408,-1.9758,-1.883,-1.7425,-1.652,0.0,0.0,0.0,0.0,-0.8115,0.0,0.0,0.0,0.0,0.0,0.0,-0.4578,-0.4562,0.0,-0.425,-0.3976,-0.3665,-0.3108,-0.2568,-0.1979,-0.1084,-0.0592,-0.0182,0.0958,0.1613,0.2078,0.2748,0.3208,0.3558,0.3862,0.4048,0.4436,0.5674,0.6708,0.7657,0.8519,0.9399,1.0034,1.0032,1.0164,1.0266,1.0194,1.0016,0.0,0.0,0.0,0.0,0.0,0.0,0.0,0.0,0.0,0.0,0.0,0.0,0.0,0.0,0.0,0.9634,1.0674,1.1893,0.0,0.0,0.0,0.0,0.0,1.3275,0.0,1.3182,0.0,1.4407,1.4994,1.5672,1.6622,1.7838,1.8384,1.9218,2.028,2.0756,2.1164,2.1461,2.1694,2.2414,2.3425,2.4342,2.4707,2.4742,2.4835,2.5953,2.7568,0.0,0.0,0.0,0.0,0.0,-3.2289,-3.4162,-3.4274,-3.4134,-3.3949,-3.4806,-3.5316,-3.4861,-3.3868,-3.2756,-3.1619,-3.0244,0.0,0.0,0.0,0.0,-2.1388,-2.0686,-1.943,-1.7434,-1.5331,-1.3678,0.0,0.0,0.0,-0.8253,-0.7617,0.0,0.0,0.0,0.0,-0.4846,-0.4895,0.0,-0.416,-0.3897,-0.3633,-0.335,-0.3015,-0.254,-0.1942,-0.1326,-0.046,0.0524,0.1284,0.2093,0.2836,0.3133,0.3569,0.4074,0.4573,0.4607,0.4814,0.6191,0.6577,0.6819,0.7686,0.8573,0.9201,0.9132,0.969,1.0188,1.0063,0.9924,0.98,0.9719,0.0,0.0,0.0,0.0,0.0,0.0,0.0,0.0,0.0,0.0,0.0,0.0,0.0,0.0,0.0,0.0,0.0,0.0,0.0,0.0,0.0,0.0,0.0,0.0,0.0,0.0,1.3331,1.4443,1.5093,1.5402,1.6987,1.7781,1.7974,1.9514,2.0373,2.0758,2.1487,2.2444,2.3468,2.4345,2.4726,2.4859,2.5525,2.5586,2.5355,0.0,0.0,0.0,0.0,0.0,0.0,0.0,-3.5694,0.0,-3.4119,-3.4159,-3.4006,-3.3168,-3.272,-3.2154,-3.1355,-2.9953,-2.8474,-2.6906,-2.5497,-2.3775,-2.1698,-2.0665,0.0,-1.7492,-1.638,-1.4724,-1.2499,0.0,0.0,-0.8235,-0.7701,0.0,-0.6266,0.0,-0.5435,0.0,0.0,0.0,-0.4405,-0.4269,-0.4078,-0.3846,-0.3609,-0.298,-0.2106,-0.1323,-0.0022,0.133,0.1387,0.1927,0.2715,0.3516,0.3962,0.4271,0.4605,0.4741,0.5153,0.6736,0.7128,0.7394,0.8723,0.9364,0.9649,0.959,0.9839,1.0067,0.9972,0.9762,0.9515,0.9286,0.9088,0.0,0.0,0.0,0.0,0.0,0.0,0.0,0.0,0.0,0.0,0.0,0.0,0.0,0.0,0.0,0.0,0.0,0.0,0.0,0.0,0.0,0.0,0.0,0.0,0.0,1.254,1.3482,1.4147,1.4581,1.5764,1.6428,1.671,1.82,1.8998,1.9378,2.0812,2.1732,2.234,2.3187,2.3733,2.4142,2.5106,2.4874,2.4217,0.0,-3.1695,0.0,0.0,-3.3437,0.0,0.0,-3.5719,-3.6008,-3.4056,-3.3322,-3.253,-3.1353,-3.1542,-3.1424,-3.0608,-2.9327,-2.8053,-2.6845,-2.4882,-2.3129,-2.1785,-2.0418,-1.8993,-1.7518,-1.7254,-1.5613,0.0,0.0,0.0,0.0,0.0,0.0,0.0,0.0,0.0,0.0,0.0,-0.4738,-0.4612,-0.4495,-0.4324,-0.4106,-0.3824,-0.3075,-0.2043,-0.1108,0.0267,0.1591,0.1266,0.1685,0.2545,0.3647,0.4054,0.4186,0.4402,0.4843,0.5614,0.718,0.7773,0.8337,0.9913,1.0285,1.0262,1.0198,1.0093,0.9967,0.9865,0.954,0.9196,0.8844,0.8699,0.0,0.0,0.0,0.0,0.0,0.0,0.0,0.0,0.0,0.0,0.0,0.0,0.0,0.0,0.0,0.0,0.0,0.0,0.0,0.0,0.0,0.0,0.996,0.0,1.1144,0.0,1.2564,1.3302,1.3942,1.4788,1.5387,1.5836,1.7184,1.7923,1.8286,2.003,2.0834,2.102,2.2035,2.264,2.3087,2.4119,2.3853,2.3327,0.0,0.0,0.0,0.0,0.0,0.0,0.0,-3.3895,-3.4066,-3.4047,-3.3605,-3.2857,-3.1757,-3.1948,-3.1306,-2.9267,-2.8464,-2.7467,-2.6083,-2.4675,-2.3268,-2.1857,-2.0451,-1.8981,-1.7444,-1.6044,-1.44,0.0,0.0,0.0,0.0,0.0,0.0,0.0,0.0,0.0,0.0,-0.4318,-0.4249,-0.4295,-0.3809,-0.3491,-0.3252,-0.2691,-0.2022,-0.1315,-0.0613,-0.0,0.0516,0.0896,0.183,0.289,0.3201,0.3458,0.3759,0.4183,0.5204,0.638,0.7351,0.8171,0.904,1.0056,1.0257,1.0195,1.011,1.0055,0.9933,0.9668,0.9269,0.8895,0.8733,0.8422,0.8222,0.0,0.0,0.0,0.0,0.0,0.0,0.0,0.0,0.0,0.0,0.0,0.0,0.0,0.0,0.0,0.0,0.0,0.0,0.0,0.0,0.8924,0.8849,0.9327,0.0,1.0225,1.155,1.2244,1.2381,1.4254,1.5081,1.5103,1.6916,1.7933,1.8376,1.9536,2.0017,2.0202,2.1901,2.2277,2.1926,2.2577,2.2454,2.2159,0.0,0.0,0.0,0.0,0.0,0.0,0.0,-3.2884,-3.2612,-3.2701,-3.3203,-3.2891,-3.1201,-3.0644,-2.9846,-2.8488,-2.7748,-2.68,-2.5445,-2.3997,-2.2794,-2.1955,-1.9992,-1.8455,-1.7473,-1.6414,-1.4782,0.0,0.0,0.0,0.0,0.0,0.0,0.0,0.0,-0.5786,-0.5218,-0.4596,-0.4181,-0.3906,-0.3535,-0.3236,-0.2976,-0.2525,-0.1839,-0.1046,-0.0453,0.0096,0.0613,0.1125,0.1723,0.225,0.2329,0.2763,0.3426,0.4379,0.5406,0.6518,0.7744,0.8433,0.9005,0.9952,1.0194,1.017,1.0115,0.9955,0.9763,0.9526,0.9046,0.8615,0.8485,0.8229,0.8039,0.0,0.0,0.0,0.0,0.0,0.0,0.0,0.0,0.0,0.0,0.0,0.0,0.0,0.0,0.0,0.0,0.0,0.0,0.7886,0.0,0.7755,0.8098,0.8406,0.8715,0.9052,1.0445,1.124,1.1555,1.3077,1.4295,1.5196,1.6149,1.6943,1.7646,1.8745,1.9199,1.9372,2.0604,2.0977,2.089,2.1608,2.1761,2.1771,-3.1251,0.0,-3.1377,0.0,-3.1224,-3.1133,-3.2085,-3.1743,-3.1491,-3.1748,-3.1788,-3.1399,-3.0279,-2.9621,-2.8828,-2.7745,-2.7059,-2.6139,-2.4725,-2.3242,-2.219,-2.1739,-1.938,0.0,-1.7444,-1.6521,-1.5019,-1.2884,-1.2608,0.0,0.0,0.0,0.0,0.0,-0.676,-0.6082,-0.5464,-0.4645,-0.404,-0.3607,-0.3176,-0.2861,-0.2589,-0.2115,-0.1475,-0.0764,-0.0287,0.0217,0.0715,0.1168,0.1496,0.1733,0.1896,0.2414,0.3229,0.4555,0.5735,0.6867,0.8071,0.872,0.9224,0.9919,1.0172,1.0206,1.0083,0.9908,0.9682,0.9375,0.8895,0.8485,0.8361,0.815,0.7984,0.0,0.0,0.0,0.0,0.0,0.0,0.0,0.7621,0.7116,0.6726,0.0,0.0,0.0,0.0,0.0,0.0,0.0,0.0,0.0,0.0,0.0,0.0,0.0,0.8137,0.8482,0.9779,1.0638,1.1138,1.2513,1.3967,1.5392,1.5441,1.5975,1.6866,1.7937,1.8421,1.859,1.972,2.0184,2.0292,2.0872,2.1114,2.1248,-3.2307,-3.2116,-3.1892,-3.2242,-3.1856,-3.1175,-3.0274,-3.03,-3.0733,-3.1699,-2.9213,-2.7826,-2.899,-2.9299,-2.8694,-2.6977,-2.6326,-2.5391,-2.3912,-2.2482,-2.1489,0.0,0.0,-1.7309,-1.7311,-1.5926,-1.4678,-1.3597,0.0,0.0,-0.9289,0.0,0.0,-0.7457,-0.659,-0.5796,-0.5047,-0.4182,-0.3686,-0.3427,-0.2632,-0.219,-0.1923,-0.1127,-0.0648,-0.0368,-0.0022,0.0267,0.0546,0.0816,0.1179,0.1596,0.2125,0.2576,0.3175,0.4576,0.6235,0.7709,0.8252,0.9129,0.9918,1.0066,1.0201,1.0253,1.0055,0.9948,0.9737,0.9214,0.8835,0.8551,0.8428,0.8178,0.8121,0.8518,0.0,0.0,0.0,0.0,0.0,0.0,0.7968,0.7442,0.6766,0.0,0.0,0.0,0.0,0.0,0.0,0.0,0.0,0.5174,0.5834,0.0,0.6805,0.7536,0.8134,0.8607,0.9813,1.0644,1.1157,1.2889,1.4381,1.5554,1.4966,1.5204,1.6098,1.7157,1.7658,1.7888,1.9629,2.0294,2.0301,2.0314,2.0314,2.0422,-2.9978,-3.0676,-3.1063,-3.0588,-3.0319,-3.0039,-2.9676,-2.9765,-3.0006,-3.0387,-2.9589,-2.8865,-2.8523,-2.748,-2.6472,0.0,-2.5356,-2.4536,0.0,-2.2081,-2.1195,-2.0084,-1.823,-1.7125,-1.691,-1.5746,-1.4632,-1.3592,0.0,0.0,0.0,-0.9115,-0.8723,-0.8263,-0.6876,-0.6204,-0.6007,-0.4214,-0.3318,-0.303,-0.231,-0.1969,-0.1792,-0.1125,-0.0789,-0.0615,-0.0189,0.0111,0.0346,0.0712,0.0944,0.1196,0.1772,0.2267,0.2886,0.4208,0.5931,0.751,0.8057,0.8957,0.9804,0.998,1.0105,1.0151,1.0079,0.9833,0.9559,0.9359,0.9036,0.8773,0.8622,0.8418,0.8306,0.838,0.0,0.0,0.0,0.0,0.0,0.0,0.0,0.7342,0.0,0.6522,0.0,0.0,0.0,0.0,0.0,0.0,0.0,0.0,0.5711,0.0,0.6394,0.684,0.7291,0.7721,0.9028,1.0445,1.1941,1.2721,1.3715,1.4776,1.4829,1.4991,1.5319,1.6414,1.6849,1.6932,1.8138,1.8954,1.949,1.9525,1.9893,2.0404,-2.8845,-2.9663,-3.0314,-3.0366,-2.9826,-2.9403,-2.942,-2.9041,-2.8778,-2.886,-2.894,-2.8307,-2.649,-2.545,0.0,-2.5144,-2.5135,0.0,-2.2405,-2.1899,-2.1064,-1.9611,-1.8062,-1.6849,-1.6126,0.0,0.0,-1.3309,-1.1932,-1.0726,-0.97,-0.9182,-0.8762,-0.8359,-0.6837,-0.6144,-0.6002,-0.4146,-0.3183,-0.2841,-0.2168,-0.1803,-0.1583,-0.1042,-0.0778,-0.0659,-0.0167,0.0162,0.0391,0.0698,0.0948,0.1195,0.1602,0.2078,0.2751,0.4019,0.5631,0.7165,0.789,0.886,0.9703,0.9922,1.0017,1.0065,1.0088,0.9846,0.9601,0.9524,0.9223,0.8943,0.8829,0.8615,0.8456,0.8522,0.0,0.8611,0.0,0.0,0.0,0.0,0.0,0.0,0.0,0.6281,0.0,0.0,0.0,0.0,0.0,0.0,0.0,0.5057,0.5253,0.0,0.5707,0.64,0.6912,0.7283,0.8859,1.0463,1.2042,1.2359,1.3092,1.4103,1.4359,1.4673,1.5057,1.608,1.6476,1.6534,1.7476,1.8373,1.9148,1.9173,1.973,2.0449,-2.8622,-2.8926,0.0,0.0,-3.0014,0.0,-2.9317,-2.8178,-2.7313,-2.7299,-2.7422,-2.6402,-2.341,-2.3369,-2.4078,-2.5346,0.0,0.0,0.0,-2.1788,-2.0878,-1.9401,-1.7919,0.0,-1.5121,-1.5157,-1.4396,-1.2731,-1.1035,-1.0096,-0.9891,-0.8934,-0.8299,-0.7916,-0.6491,-0.5618,-0.5143,-0.3962,-0.3222,-0.2786,-0.2128,-0.1664,-0.1309,-0.0883,-0.0663,-0.05,0.0,0.0368,0.0625,0.0769,0.1115,0.1511,0.1583,0.204,0.2786,0.4,0.5353,0.6681,0.7768,0.879,0.9599,0.9823,0.9929,1.0,1.009,0.9954,0.9798,0.9744,0.9417,0.9124,0.9047,0.8767,0.8644,0.888,0.8762,0.8816,0.925,0.0,0.0,0.0,0.0,0.0,0.0,0.5967,0.5449,0.0,0.0,0.0,0.0,0.0,0.4316,0.3843,0.4585,0.5001,0.501,0.6204,0.6984,0.7355,0.9185,1.0585,1.1557,1.1827,1.2555,1.3615,1.3742,1.4303,1.5171,1.6064,1.6424,1.6507,1.737,1.8265,1.9036,1.9029,1.9574,2.0328,0.0,0.0,-2.7131,-2.7723,-2.7792,-2.7784,-2.7816,-2.7632,-2.7421,-2.7313,-2.6516,-2.5226,-2.333,-2.2345,-2.2499,-2.4078,-2.3676,-2.2389,-2.0175,-1.9984,-1.9284,-1.7801,-1.6821,-1.5893,-1.5052,-1.5092,-1.414,-1.2109,-1.0778,-1.0078,-0.9949,-0.8915,-0.8163,-0.7622,-0.607,-0.5025,-0.441,-0.3499,-0.2806,-0.2243,-0.1726,-0.1256,-0.0873,-0.0969,-0.0714,-0.027,-0.003,0.0315,0.0695,0.0826,0.115,0.1523,0.1635,0.2332,0.3214,0.3777,0.4865,0.6145,0.7327,0.8344,0.9141,0.951,0.9768,0.9972,1.0136,1.0094,1.0021,0.9934,0.9819,0.9607,0.9278,0.9157,0.9087,0.9057,0.8606,0.8532,0.9419,0.0,0.0,0.0,0.7841,0.7082,0.5815,0.5624,0.5294,0.0,0.0,0.0,0.0,0.0,0.4609,0.4201,0.4609,0.5239,0.603,0.6598,0.7492,0.874,0.9341,1.0148,1.1064,1.1244,1.2175,1.3676,1.3821,1.437,1.5196,1.5536,1.5633,1.5602,1.588,1.6514,1.7293,1.7285,1.7818,1.8605,-2.5975,-2.6059,-2.6364,-2.6892,-2.7137,-2.7299,-2.7299,-2.7376,-2.6887,-2.5385,-2.3484,-2.2189,-2.2066,-2.1345,-2.1053,-2.1479,-2.1716,-2.0806,-1.8364,-1.9271,-1.907,-1.7237,-1.6769,-1.624,-1.5557,-1.4894,-1.3706,-1.1943,-1.0741,-1.0109,-1.0027,-0.894,-0.8081,-0.7328,-0.5419,-0.4426,-0.415,-0.3373,-0.2751,-0.2247,-0.1938,-0.155,-0.1149,-0.1109,-0.0856,-0.0493,-0.0263,0.0087,0.0453,0.0617,0.0989,0.1422,0.1703,0.2418,0.3297,0.4005,0.5086,0.6262,0.712,0.8077,0.8923,0.9382,0.9669,0.9901,1.0119,1.0154,1.0135,1.0055,0.9944,0.9769,0.949,0.9384,0.9349,0.9321,0.9026,0.9019,0.9688,0.9382,0.0,0.8303,0.7839,0.7048,0.5682,0.5411,0.5094,0.4545,0.0,0.0,0.4402,0.4564,0.4546,0.4255,0.4608,0.5209,0.6074,0.7104,0.8271,0.9525,0.9669,1.0006,1.0544,1.1021,1.1997,1.331,1.3782,1.4465,1.5248,1.5357,1.5385,1.5354,1.5387,1.5921,1.6698,1.6698,1.7488,1.861,-2.5567,-2.5606,-2.5815,-2.6499,-2.6609,-2.6609,-2.6609,-2.6609,-2.5678,-2.3057,-2.0425,-1.9321,-2.0727,-2.0537,-1.9929,-1.9072,-1.9921,-1.9534,-1.7209,-1.888,-1.9044,-1.6991,-1.6865,-1.6584,-1.6025,-1.4493,-1.3198,-1.2116,-1.0839,-1.0179,-1.0087,-0.8992,-0.8058,-0.7196,-0.5038,-0.4136,-0.4218,-0.3488,-0.2955,-0.2573,-0.238,-0.2066,-0.1683,-0.1315,-0.1063,-0.0848,-0.0579,-0.0261,0.006,0.028,0.0716,0.1274,0.1732,0.2402,0.3228,0.4364,0.5479,0.6466,0.7083,0.795,0.8784,0.9277,0.955,0.9749,0.9961,1.01,1.0194,1.0144,0.9987,0.9822,0.9698,0.9566,0.9511,0.9638,0.9556,0.9598,0.9963,0.0,0.9401,0.8466,0.7993,0.7141,0.5635,0.5225,0.4884,0.4474,0.4456,0.0,0.0,0.4493,0.4417,0.4293,0.4594,0.5129,0.5914,0.7782,0.9123,0.992,0.9987,1.0066,1.0138,1.1024,1.1919,1.2853,1.3723,1.4565,1.5323,1.5385,1.5391,1.5403,1.5402,1.5856,1.6499,1.6494,1.7439,1.8749,-2.5373,-2.4149,-2.3016,-2.3337,-2.3419,-2.3419,-2.3419,-2.3419,-2.3246,-2.2763,-2.1201,-2.0385,-2.1138,-2.0381,-1.9841,-1.9879,-1.9467,-1.8785,-1.7812,-1.7585,-1.7022,-1.6053,-1.5461,-1.516,-1.5101,-1.3659,-1.2796,-1.2595,-1.0994,-1.0182,-1.0166,-0.8969,-0.8169,-0.7644,-0.6033,-0.5027,-0.4486,-0.3818,-0.3326,-0.2965,-0.2497,-0.2102,-0.1766,-0.1652,-0.1269,-0.0817,-0.0879,-0.0651,-0.0264,0.0044,0.0574,0.1187,0.161,0.2359,0.3296,0.4306,0.5059,0.5833,0.7113,0.7982,0.8594,0.8847,0.9108,0.9333,0.9482,0.9873,1.0219,1.0253,1.0198,1.0118,1.0033,0.9912,0.9859,0.9929,0.9322,0.9138,0.0,0.0,0.867,0.7836,0.7582,0.6792,0.5097,0.4875,0.4793,0.4657,0.4752,0.4795,0.4764,0.4746,0.4727,0.4707,0.4597,0.5334,0.6951,0.878,0.9786,0.999,1.0101,1.0172,1.0205,1.1083,1.1977,1.2853,1.3719,1.4582,1.5383,1.54,1.5406,1.5408,1.541,1.5488,1.5605,1.5605,1.5761,1.6205,-2.3391,-2.2881,-2.2377,-2.2659,-2.2579,-2.2487,-2.2487,-2.2487,-2.2207,-2.1439,-2.0793,-2.0373,-2.0287,-1.9524,-1.8931,-1.8672,-1.8377,-1.7733,-1.6574,-1.7089,-1.6744,-1.5157,-1.5287,-1.4832,-1.3637,-1.298,-1.2226,-1.1352,-1.0586,-1.0139,-1.0013,-0.9322,-0.8587,-0.7818,-0.6731,-0.5691,-0.4728,-0.4316,-0.3929,-0.3541,-0.3084,-0.2651,-0.225,-0.1919,-0.1611,-0.1312,-0.1211,-0.0871,-0.0492,-0.0379,0.0289,0.113,0.1557,0.2386,0.3384,0.4271,0.5306,0.6349,0.7216,0.7811,0.8245,0.8553,0.8883,0.9193,0.9355,0.9681,0.9943,1.0025,1.0018,0.9978,0.9952,0.9884,0.9885,0.9976,0.9685,0.0,0.0,0.9746,0.9138,0.834,0.7737,0.6917,0.5671,0.5123,0.4851,0.486,0.4859,0.483,0.4801,0.4696,0.4646,0.4638,0.5452,0.6307,0.7136,0.8971,0.9929,0.9998,1.0149,1.0194,1.0254,1.1599,1.2417,1.2867,1.4211,1.503,1.5402,1.539,1.541,1.5409,1.5405,1.5401,1.5398,1.5406,1.5994,1.6913,-2.1738,-2.202,-2.2265,-2.2569,-2.2432,-2.2073,-2.138,-2.1305,-2.096,-1.9884,-1.9831,-1.9791,-1.946,-1.8877,-1.8207,-1.7488,-1.7524,-1.6953,-1.5413,-1.6586,-1.6478,-1.4559,-1.5054,-1.4588,-1.2832,-1.2488,-1.1718,-1.0502,-1.0288,-1.0091,-0.9911,-0.9625,-0.8972,-0.8031,-0.7273,-0.6311,-0.5251,-0.4892,-0.4484,-0.4053,-0.3612,-0.3157,-0.2681,-0.2224,-0.1938,-0.1759,-0.1519,-0.1139,-0.0713,-0.0646,0.0,0.089,0.1482,0.2292,0.3203,0.4099,0.5417,0.6681,0.7173,0.7516,0.7839,0.824,0.8644,0.9013,0.926,0.9492,0.9684,0.972,0.9787,0.9828,0.9815,0.9844,0.988,0.996,0.0,0.0,0.0,1.0063,0.9683,0.8844,0.8067,0.7311,0.6538,0.549,0.4978,0.5218,0.4912,0.4713,0.4712,0.4532,0.4457,0.4542,0.6146,0.7001,0.7013,0.8826,0.9779,0.9879,1.0019,1.0212,1.0513,1.1888,1.2713,1.3179,1.4512,1.5214,1.539,1.5406,1.54,1.5377,1.5385,1.5399,1.5379,1.5397,1.6247,1.7519,-2.1708,-2.1827,-2.1945,-2.2265,-2.231,-2.138,-1.8572,-1.8346,-1.8461,-1.8362,-1.8412,-1.8722,-1.9421,-1.8898,-1.8244,-1.7542,-1.7559,-1.6968,-1.5505,-1.5508,-1.523,-1.4453,-1.4055,-1.3807,-1.3704,-1.2248,-1.1458,-1.1404,-1.0537,-1.0072,-0.9986,-0.9592,-0.9099,-0.8517,-0.7715,-0.6997,-0.6339,-0.5512,-0.4857,-0.4329,-0.3792,-0.3275,-0.2772,-0.2534,-0.2184,-0.1803,-0.185,-0.1516,-0.1005,-0.0557,-0.0156,0.0334,0.1309,0.1865,0.2415,0.3603,0.4856,0.6046,0.6825,0.7146,0.7351,0.7753,0.8192,0.8628,0.8957,0.9329,0.9593,0.9526,0.9725,0.9891,0.9883,0.9948,0.9963,0.9911,0.0,0.0,0.9933,0.9972,0.9655,0.8726,0.8393,0.7966,0.7278,0.575,0.5125,0.5861,0.5003,0.4425,0.4435,0.4301,0.4358,0.4675,0.6011,0.6722,0.6729,0.8402,0.9349,0.9543,0.9669,1.0283,1.132,1.1504,1.2487,1.4019,1.4149,1.4643,1.5406,1.5395,1.536,1.5302,1.539,1.5363,1.5315,1.5383,1.5482,1.6054,-2.0307,-2.111,-2.1529,-2.0761,-2.1373,-2.1044,-1.8221,-1.7895,-1.8005,-1.819,-1.819,-1.8146,-1.8078,-1.7881,-1.7293,-1.616,-1.6134,-1.5729,-1.472,-1.4657,-1.438,-1.3811,-1.369,-1.3199,-1.2273,-1.1686,-1.1167,-1.0684,-1.0298,-0.999,-0.9755,-0.9504,-0.9069,-0.8455,-0.7886,-0.7293,-0.6642,-0.6077,-0.5344,-0.4538,-0.4134,-0.3619,-0.3062,-0.2664,-0.2337,-0.2088,-0.2008,-0.1538,-0.0959,-0.0781,-0.0156,0.0646,0.1225,0.1865,0.2656,0.3905,0.4767,0.5459,0.6189,0.6702,0.7112,0.7562,0.7933,0.8262,0.8558,0.8883,0.912,0.9188,0.9337,0.9496,0.9629,0.9738,0.9825,0.9832,0.0,0.9874,0.9725,0.9744,0.9607,0.9212,0.8618,0.7935,0.719,0.606,0.5202,0.4843,0.4374,0.4113,0.4153,0.4415,0.4705,0.5004,0.6104,0.6762,0.6879,0.8299,0.9085,0.9242,0.9432,1.0111,1.1228,1.1796,1.2747,1.3949,1.4527,1.4986,1.5343,1.5345,1.5306,1.5307,1.5912,1.6239,1.6437,1.719,1.787,1.8619,-1.8811,-1.9608,-2.0069,-1.9105,-1.9777,-1.9841,-1.8,-1.7766,-1.7856,-1.8087,-1.8126,-1.7983,-1.7629,-1.7428,-1.6923,-1.5951,-1.5517,-1.5002,-1.433,-1.4307,-1.4171,-1.382,-1.347,-1.28,-1.1758,-1.1277,-1.0757,-1.0202,-1.0094,-0.9877,-0.9594,-0.9399,-0.9002,-0.8431,-0.7964,-0.7398,-0.6805,-0.6312,-0.5553,-0.4646,-0.4325,-0.3834,-0.3217,-0.281,-0.2507,-0.2289,-0.2114,-0.1626,-0.1027,-0.0961,-0.0178,0.0803,0.1163,0.1909,0.288,0.3909,0.4538,0.503,0.5574,0.613,0.6702,0.7318,0.768,0.7991,0.8261,0.8583,0.8824,0.8919,0.9023,0.9148,0.9296,0.9428,0.9536,0.9563,0.964,0.9618,0.95,0.9466,0.946,0.9411,0.8886,0.8242,0.7568,0.5983,0.4925,0.4721,0.4181,0.3944,0.4108,0.4474,0.488,0.5345,0.6105,0.6668,0.7016,0.81,0.8773,0.9012,0.9142,0.9967,1.1359,1.1725,1.2705,1.4144,1.4532,1.4907,1.5235,1.5236,1.5217,1.522,1.5879,1.6696,1.76,1.8405,1.9375,2.0269,-1.7404,-1.7224,-1.733,-1.7474,-1.7515,-1.7522,-1.7589,-1.7704,-1.7833,-1.7883,-1.807,-1.8256,-1.8385,-1.7765,-1.7347,-1.7287,-1.6058,-1.5062,-1.4526,-1.4556,-1.4627,-1.4707,-1.3344,-1.2626,-1.2686,-1.1047,-1.0193,-1.0199,-0.9994,-0.9803,-0.9587,-0.925,-0.8918,-0.8563,-0.7895,-0.7335,-0.6855,-0.6195,-0.5394,-0.4569,-0.4301,-0.3793,-0.3187,-0.3041,-0.2719,-0.2285,-0.2219,-0.1803,-0.1274,-0.1072,-0.0289,0.0668,0.1072,0.1949,0.2896,0.3437,0.4122,0.4745,0.503,0.5432,0.6029,0.695,0.7456,0.778,0.8115,0.8518,0.879,0.879,0.8852,0.8894,0.8894,0.9009,0.9089,0.9104,0.926,0.9359,0.9218,0.9202,0.9193,0.9188,0.92,0.9032,0.8627,0.5513,0.4209,0.5863,0.4633,0.3973,0.4376,0.4403,0.481,0.5677,0.5958,0.6425,0.7091,0.7768,0.8332,0.879,0.8796,0.9883,1.1872,1.1131,1.2273,1.4749,1.3952,1.4168,1.5107,1.5101,1.5095,1.5101,1.512,1.6548,1.859,1.866,1.9347,2.018,-1.7515,-1.7209,-1.705,-1.7134,-1.7338,-1.7522,-1.7599,-1.7652,-1.7789,-1.8022,-1.7603,-1.7176,-1.6814,-1.6202,-1.5607,-1.5152,-1.4801,-1.4567,-1.4511,-1.4687,-1.4823,-1.4832,-1.3358,-1.203,-1.0961,-1.0464,-1.0193,-1.0193,-1.006,-0.978,-0.938,-0.9095,-0.8654,-0.8086,-0.7709,-0.7223,-0.6668,-0.6118,-0.5449,-0.4708,-0.4285,-0.3779,-0.3239,-0.2961,-0.2681,-0.2425,-0.2263,-0.1803,-0.1252,-0.0914,-0.0268,0.0538,0.1353,0.2141,0.2821,0.3326,0.3744,0.4216,0.4923,0.527,0.5672,0.6621,0.7031,0.7332,0.7812,0.8092,0.8264,0.8374,0.8281,0.8274,0.8509,0.8588,0.8676,0.8872,0.8929,0.8967,0.8918,0.8841,0.8733,0.8575,0.8575,0.8204,0.7273,0.6229,0.5375,0.4846,0.4262,0.4106,0.4523,0.485,0.5341,0.6031,0.6393,0.6756,0.7091,0.762,0.8051,0.838,0.8567,0.9721,1.1674,1.1503,1.256,1.45,1.4259,1.4438,1.4887,1.4887,1.4914,1.5033,1.5685,1.6708,1.7903,1.859,1.9419,2.0201,-1.7176,-1.6961,-1.6831,-1.7009,-1.7216,-1.7419,-1.7498,-1.7599,-1.762,-1.7569,-1.7192,-1.6745,-1.6203,-1.5515,-1.5003,-1.4783,-1.4511,-1.4399,-1.453,-1.4776,-1.476,-1.4475,-1.3254,-1.2142,-1.1205,-1.0543,-1.0181,-1.0153,-0.992,-0.9615,-0.925,-0.8874,-0.8391,-0.7795,-0.7471,-0.6966,-0.6341,-0.592,-0.5298,-0.4578,-0.4273,-0.3779,-0.3239,-0.3004,-0.2772,-0.2555,-0.2285,-0.1843,-0.1338,-0.1072,-0.0179,0.094,0.1683,0.2233,0.2702,0.3163,0.35,0.3875,0.4529,0.4904,0.527,0.6035,0.6621,0.7093,0.7484,0.7768,0.797,0.7998,0.7905,0.7886,0.8131,0.8166,0.8229,0.8457,0.8477,0.8477,0.844,0.8326,0.8209,0.8119,0.7936,0.7502,0.6687,0.6159,0.5488,0.4561,0.431,0.4405,0.4861,0.512,0.5515,0.6099,0.6406,0.6664,0.6865,0.7268,0.7709,0.816,0.8345,0.9476,1.1399,1.1466,1.2499,1.4239,1.4239,1.4421,1.468,1.4671,1.4747,1.4916,1.5836,1.6686,1.753,1.8468,1.9364,2.0079,-1.6546,-1.6528,-1.6675,-1.6991,-1.7149,-1.7224,-1.7346,-1.7439,-1.7306,-1.6762,-1.6781,-1.6631,-1.615,-1.5459,-1.5142,-1.5469,-1.4761,-1.4371,-1.4492,-1.4634,-1.4399,-1.3716,-1.2979,-1.2571,-1.2574,-1.1015,-1.0157,-1.0067,-0.9686,-0.9371,-0.913,-0.8622,-0.8133,-0.7665,-0.7193,-0.6621,-0.5998,-0.5638,-0.504,-0.4333,-0.4219,-0.3808,-0.326,-0.3195,-0.3006,-0.2737,-0.2404,-0.1964,-0.1524,-0.1321,-0.0,0.1635,0.1975,0.2263,0.2555,0.2961,0.3296,0.3633,0.3986,0.4414,0.4863,0.5337,0.6183,0.6937,0.7125,0.7499,0.7768,0.7679,0.765,0.7649,0.7737,0.7739,0.7811,0.7925,0.7952,0.7922,0.788,0.7737,0.7636,0.7709,0.7315,0.6919,0.6594,0.5596,0.4926,0.4846,0.4654,0.4744,0.5233,0.5194,0.5415,0.5933,0.6088,0.6271,0.6493,0.6863,0.7415,0.8131,0.8212,0.9269,1.1155,1.1228,1.2238,1.3963,1.3963,1.4162,1.4467,1.4478,1.456,1.4775,1.5639,1.6506,1.7396,1.834,1.9195,1.9907,-1.6332,-1.6409,-1.649,-1.6675,-1.6882,-1.7084,-1.7142,-1.6957,-1.6804,-1.6778,-1.595,-1.5348,-1.534,-1.4734,-1.4396,-1.4575,-1.4048,-1.3737,-1.3812,-1.3361,-1.3032,-1.2873,-1.2091,-1.1659,-1.1597,-1.0621,-1.0016,-0.9775,-0.9536,-0.9153,-0.865,-0.8325,-0.7937,-0.7512,-0.7042,-0.6625,-0.6189,-0.5545,-0.504,-0.4644,-0.4158,-0.3908,-0.3802,-0.3635,-0.3494,-0.3355,-0.3029,-0.2457,-0.1712,-0.0594,0.0447,0.1363,0.1736,0.2088,0.242,0.2821,0.3062,0.3323,0.38,0.4171,0.4535,0.5059,0.5582,0.6136,0.6739,0.6953,0.7112,0.7345,0.7219,0.7107,0.7233,0.7389,0.7512,0.759,0.7515,0.7501,0.7651,0.7276,0.6994,0.7015,0.6792,0.6545,0.63,0.5818,0.5414,0.513,0.4924,0.4819,0.4824,0.4961,0.5195,0.5528,0.5752,0.6063,0.6406,0.7067,0.7708,0.8344,0.8571,0.9687,1.1564,1.1679,1.245,1.3698,1.3698,1.3888,1.4183,1.4295,1.4429,1.4637,1.5491,1.6376,1.7254,1.8196,1.9084,1.9926,-1.6231,-1.6382,-1.6517,-1.6717,-1.6668,-1.6644,-1.6746,-1.6423,-1.6104,-1.5916,-1.5383,-1.49,-1.4651,-1.4361,-1.4259,-1.4437,-1.4241,-1.4158,-1.4261,-1.4008,-1.3642,-1.3242,-1.2459,-1.1779,-1.1252,-1.0349,-0.9775,-0.9599,-0.9305,-0.8909,-0.8445,-0.8153,-0.7753,-0.7294,-0.699,-0.6544,-0.6027,-0.5621,-0.5214,-0.482,-0.4472,-0.4261,-0.4162,-0.3968,-0.3851,-0.3719,-0.3131,-0.2284,-0.1309,-0.0253,0.0448,0.0936,0.1383,0.1736,0.2088,0.245,0.2735,0.3004,0.3402,0.3834,0.4244,0.4626,0.4942,0.5413,0.6313,0.6497,0.6558,0.6861,0.6761,0.6676,0.6861,0.7053,0.718,0.7203,0.7134,0.7023,0.69,0.6604,0.6404,0.6335,0.6206,0.6088,0.602,0.5726,0.5482,0.5309,0.5098,0.4952,0.4843,0.4922,0.5098,0.5387,0.5568,0.5819,0.6153,0.6918,0.7701,0.8501,0.8928,0.9957,1.1478,1.1604,1.2272,1.3295,1.3295,1.3537,1.3931,1.4119,1.4281,1.4545,1.5784,1.6583,1.715,1.8477,1.932,1.9876,-1.6219,-1.6394,-1.6549,-1.6703,-1.6458,-1.6215,-1.622,-1.5852,-1.5398,-1.4947,-1.4918,-1.4722,-1.419,-1.4277,-1.4453,-1.4654,-1.465,-1.4646,-1.4614,-1.4579,-1.4163,-1.3292,-1.258,-1.1812,-1.0952,-1.003,-0.9505,-0.9429,-0.9044,-0.8749,-0.8504,-0.8043,-0.7633,-0.7272,-0.7005,-0.6493,-0.5854,-0.5759,-0.542,-0.4962,-0.4867,-0.4686,-0.4476,-0.4314,-0.4177,-0.3966,-0.3143,-0.2019,-0.0835,-0.0162,0.0246,0.0558,0.0961,0.1338,0.1689,0.2019,0.2372,0.2697,0.2961,0.3479,0.3999,0.4232,0.4423,0.4774,0.5622,0.583,0.5934,0.623,0.6242,0.626,0.6517,0.6821,0.6963,0.6787,0.6769,0.6606,0.6089,0.5927,0.5815,0.5749,0.5754,0.5791,0.5857,0.5635,0.5509,0.5489,0.5205,0.502,0.4951,0.4902,0.5,0.5311,0.5397,0.5638,0.6016,0.6798,0.7711,0.8696,0.9369,1.0235,1.1316,1.1434,1.2031,1.2931,1.2985,1.3278,1.3713,1.3984,1.415,1.4418,1.6114,1.6789,1.7064,1.8836,1.956,1.9823,-1.6194,-1.6409,-1.6485,-1.6096,-1.6163,-1.6111,-1.5612,-1.5183,-1.4899,-1.4829,-1.4533,-1.4298,-1.4193,-1.4453,-1.4729,-1.4923,-1.4386,-1.3735,-1.3059,-1.2373,-1.1598,-1.0658,-1.0406,-1.0133,-0.9828,-0.9502,-0.9278,-0.9149,-0.8876,-0.8833,-0.8988,-0.802,-0.7725,-0.8006,-0.7124,-0.6504,-0.6128,-0.5876,-0.5582,-0.5231,-0.5042,-0.4941,-0.4912,-0.4812,-0.4616,-0.4282,-0.3692,-0.2452,-0.0975,-0.0355,0.009,0.0449,0.0625,0.0959,0.1338,0.167,0.2044,0.2415,0.2676,0.3232,0.3807,0.4145,0.4281,0.4337,0.4299,0.4565,0.4924,0.5361,0.5587,0.5767,0.597,0.6839,0.72,0.6271,0.6448,0.6467,0.5763,0.5413,0.5281,0.5442,0.5806,0.6045,0.6066,0.5971,0.5907,0.5844,0.517,0.4744,0.4742,0.4722,0.4793,0.4952,0.5146,0.5641,0.649,0.7175,0.8067,0.9126,0.998,1.0832,1.1719,1.1866,1.2162,1.2588,1.294,1.3295,1.3636,1.3894,1.4012,1.4214,1.5955,1.6642,1.6871,1.8728,1.9504,1.9834,-1.6328,-1.6281,-1.6168,-1.603,-1.5626,-1.5227,-1.5026,-1.4606,-1.4342,-1.4447,-1.432,-1.4263,-1.4416,-1.4681,-1.4669,-1.4194,-1.4453,-1.4245,-1.3313,-1.2265,-1.1458,-1.0953,-1.0675,-1.0198,-0.9504,-0.9214,-0.8971,-0.8762,-0.8613,-0.8607,-0.8746,-0.8097,-0.7914,-0.8109,-0.7353,-0.6859,-0.6522,-0.6205,-0.5951,-0.5734,-0.5566,-0.5466,-0.544,-0.5259,-0.494,-0.4477,-0.342,-0.2163,-0.0936,-0.0497,-0.0023,0.0427,0.0515,0.074,0.1031,0.1385,0.1777,0.2193,0.2415,0.2961,0.3527,0.371,0.3807,0.382,0.3737,0.3819,0.4065,0.4584,0.503,0.5406,0.5684,0.6567,0.7083,0.6545,0.6363,0.6107,0.5511,0.5397,0.5405,0.5509,0.5901,0.6113,0.6008,0.5996,0.5907,0.5684,0.5344,0.5079,0.4933,0.4958,0.5035,0.5174,0.5153,0.5482,0.6202,0.6958,0.7784,0.8706,0.9691,1.0581,1.1347,1.1608,1.1897,1.2226,1.2332,1.2838,1.3605,1.3746,1.4169,1.4894,1.6038,1.7111,1.8102,1.902,1.9405,1.9734]}]]